GFSWCAN_925_spd_003.txt.gz
Wind_Speed
19 21 22 22 22 23 23 24 23 23 23 23 22 22 21 22 21 22 13 13 7 4 2 3 4 5 3 3 3 2 1 1 2 1 2 2 3 4 2 3 4 6 5 4 2 2 5 2 2 1 2 5 3 3
18 20 22 21 20 20 21 22 22 23 23 22 22 21 21 22 22 19 9 23 22 4 2 4 4 1 4 6 4 3 1 2 1 3 2 2 3 2 3 3 1 2 5 2 6 5 3 4 5 4 3 4 3 1
17 20 20 21 20 19 20 21 22 22 22 23 23 23 21 21 21 18 13 13 11 3 3 2 4 4 7 4 6 3 2 2 2 1 2 2 4 3 3 4 2 3 3 3 1 2 5 5 4 1 3 2 1 2
17 20 19 20 19 19 19 21 22 22 22 23 24 24 23 22 20 19 14 13 6 3 2 3 2 2 3 7 9 4 5 3 2 1 2 3 2 2 3 2 3 4 3 2 5 6 5 4 3 1 4 5 10 9
17 19 19 19 19 19 20 20 22 23 23 24 25 24 24 21 19 21 25 16 12 3 2 2 2 1 1 3 6 5 5 3 2 2 3 3 1 2 1 0 3 5 6 4 4 3 2 4 3 4 6 5 8 13
17 20 19 19 19 20 21 22 23 24 25 26 26 26 25 22 17 15 2 8 9 5 3 2 1 2 2 4 5 5 3 2 2 2 2 3 2 3 3 3 5 4 2 2 2 1 2 3 4 2 6 5 8 9
16 19 19 20 19 20 22 23 25 26 28 29 30 32 32 22 13 5 3 2 17 18 3 1 2 1 4 2 2 2 3 2 2 2 3 2 2 3 2 3 5 5 5 5 4 6 3 3 3 6 9 10 14 14
16 19 19 20 19 20 23 24 26 27 29 32 37 36 25 13 9 7 10 7 7 4 2 1 2 1 5 2 2 3 2 2 3 2 1 2 2 2 4 7 5 2 4 4 5 1 2 7 7 7 9 13 14 13
15 19 19 19 19 20 23 24 26 28 29 36 35 16 2 3 3 1 9 11 10 4 1 1 3 3 2 1 1 1 1 2 1 2 2 2 3 5 7 6 6 8 7 7 5 5 6 7 10 9 10 10 15 12
15 18 19 18 19 20 22 24 26 25 30 27 12 5 1 2 18 5 3 4 3 3 2 2 3 2 3 1 1 1 1 1 2 1 2 2 4 9 9 8 5 7 8 12 6 4 5 5 10 12 10 8 11 12
16 18 18 18 19 19 21 22 23 26 17 9 4 2 11 14 2 0 2 3 2 1 3 2 4 3 1 3 2 2 1 1 2 2 2 2 3 3 5 5 6 7 10 9 1 4 5 11 14 12 10 9 11 13
15 18 18 19 18 19 21 19 22 22 15 10 14 11 5 3 2 1 2 1 3 5 1 2 3 4 2 1 2 1 1 1 3 2 1 3 4 3 5 5 3 7 9 6 2 6 8 12 12 11 11 12 12 18
13 17 17 18 19 18 17 22 23 20 12 2 2 3 2 2 3 5 5 2 0 1 1 1 1 2 1 1 2 2 2 3 1 1 3 4 3 4 2 2 3 5 7 7 6 7 11 10 17 18 13 18 22 20
11 16 16 16 17 13 20 22 20 7 2 2 3 4 2 2 2 2 2 3 3 2 3 1 2 2 1 3 1 3 1 1 2 3 6 3 4 4 3 0 4 5 7 8 8 9 12 13 12 18 21 24 25 21
11 15 16 10 8 18 20 18 7 3 2 2 1 1 2 2 3 2 3 3 3 2 1 1 1 3 1 3 1 2 1 4 5 5 3 3 3 3 2 1 5 7 7 7 8 9 11 14 14 15 19 23 25 26
9 13 3 4 16 18 19 6 4 2 1 1 0 2 3 1 3 1 2 3 2 5 1 2 1 1 3 4 4 7 5 6 4 4 3 2 2 1 1 1 4 5 7 10 9 12 15 16 15 19 22 22 23 26
6 5 4 13 17 19 7 1 2 2 0 1 1 1 2 4 4 2 3 3 4 3 1 0 4 6 2 1 3 5 5 3 3 3 2 3 2 2 3 4 5 6 8 9 12 16 17 22 25 23 14 16 24 24
8 11 10 13 15 10 0 1 1 1 2 2 1 3 2 3 3 4 2 2 4 3 3 1 2 2 5 5 4 4 4 2 2 2 2 2 2 2 4 6 5 8 8 11 14 19 22 22 14 11 22 26 27 26
8 8 9 11 8 3 2 2 2 1 3 2 3 3 3 5 4 4 4 4 4 3 3 2 4 3 4 2 2 3 3 2 2 2 1 2 2 5 5 9 9 9 13 14 17 13 16 17 19 24 23 23 20 20
8 7 8 5 3 1 3 2 1 1 2 2 2 3 4 5 5 4 4 3 1 2 3 4 3 0 2 3 2 4 5 3 3 2 2 1 1 5 5 7 6 14 15 18 17 19 19 19 18 21 22 24 25 20
4 4 1 3 2 2 2 1 1 1 2 2 2 3 3 3 3 3 2 2 2 3 3 2 3 4 5 5 8 4 7 4 4 3 3 2 2 6 6 11 16 14 10 10 9 13 15 14 19 24 23 21 23 25
4 3 2 3 2 2 1 1 1 1 1 2 2 1 2 3 3 3 3 1 2 2 3 4 5 6 8 8 8 13 14 14 11 7 2 7 4 4 6 10 10 7 8 12 17 14 18 22 23 25 26 26 27 27
5 4 3 3 2 2 3 2 2 1 1 3 2 2 2 2 3 2 2 2 2 2 1 2 6 11 8 14 13 12 10 8 5 4 4 3 5 9 11 13 15 11 8 11 20 23 23 24 25 27 28 27 27 25
5 3 3 2 2 3 2 2 1 2 2 2 1 4 3 3 3 2 4 3 2 1 1 3 4 6 6 5 4 4 9 9 8 7 5 5 3 4 12 13 15 16 18 22 24 25 27 26 27 26 27 27 24 23
4 2 3 3 2 3 1 2 3 2 2 2 1 4 3 2 2 3 3 3 2 2 1 2 3 4 5 6 5 6 14 9 5 4 6 8 9 10 9 12 15 20 28 27 24 25 25 28 26 26 26 26 26 24
2 4 6 6 2 4 5 3 4 5 3 2 5 3 2 1 1 6 3 3 2 2 2 2 5 6 7 6 7 6 10 16 15 4 5 11 13 10 8 9 9 12 22 27 31 29 27 27 28 28 26 27 28 30
4 6 3 2 2 4 1 2 2 3 3 5 3 1 3 1 5 4 2 2 3 5 6 14 13 8 8 10 16 17 18 18 14 9 8 13 14 15 18 14 11 19 26 29 29 36 36 31 29 28 27 25 28 30
4 4 6 4 2 1 4 2 4 6 4 3 4 3 6 7 5 3 4 4 7 11 17 18 18 20 19 19 19 18 16 10 6 8 9 8 9 15 17 21 29 34 35 36 32 29 32 35 35 34 34 32 29 25
4 3 4 3 1 2 5 6 5 3 2 4 5 4 4 3 2 2 3 4 10 13 11 10 15 16 17 18 17 16 15 11 4 5 5 3 1 5 21 27 30 32 34 35 31 37 40 42 40 39 37 34 29 25
5 3 4 3 6 6 4 3 2 2 1 2 1 2 2 3 5 6 8 10 9 9 13 16 18 13 9 7 6 9 8 13 14 6 5 5 5 16 23 27 31 33 36 40 38 37 35 38 36 37 35 31 28 24
3 3 3 2 4 2 2 2 3 0 2 2 2 3 3 3 6 4 6 8 14 13 13 9 10 7 9 7 4 3 3 3 12 16 14 21 22 23 26 29 33 36 39 43 42 40 37 35 37 35 31 28 23 21
2 4 4 3 2 1 2 2 1 1 3 2 2 1 3 3 3 3 2 8 7 6 9 11 8 6 7 3 2 2 5 13 17 23 26 27 27 30 34 35 36 38 40 40 41 41 41 38 33 31 30 26 23 20
3 2 2 3 2 1 1 3 3 4 2 2 3 2 3 2 5 3 2 4 4 6 9 8 6 7 8 10 13 15 16 20 20 23 27 29 34 38 39 40 42 44 43 38 37 40 38 36 34 30 28 25 22 19

GFSWCAN_925_spd_006.txt.gz
Wind_Speed
15 14 15 17 17 18 18 18 18 19 19 20 21 21 21 22 22 22 10 10 5 3 7 3 4 4 3 4 3 4 3 1 2 2 3 3 3 2 2 2 4 7 6 5 4 4 4 3 2 3 4 7 6 5
16 14 15 17 16 17 17 17 18 17 18 19 20 20 19 18 18 18 6 12 13 4 4 6 6 2 2 4 3 4 1 2 2 3 2 2 3 3 2 2 3 4 5 2 5 3 2 3 7 5 5 6 2 1
16 14 17 17 17 16 17 18 18 17 18 18 19 20 19 19 17 14 10 11 10 3 3 2 4 3 5 3 4 3 1 3 2 0 1 2 4 2 3 4 2 5 4 3 2 3 5 5 4 2 5 4 1 2
15 14 14 17 19 17 17 19 19 18 18 19 20 20 19 19 18 15 11 11 2 3 3 1 2 1 2 5 5 2 4 3 3 1 2 2 3 2 2 2 3 1 6 5 5 8 8 5 3 3 5 5 8 9
17 15 13 16 19 18 18 19 21 20 20 21 21 21 19 19 19 19 23 17 15 3 2 3 2 1 1 2 5 4 5 4 2 2 3 3 2 1 2 1 5 5 5 3 2 1 3 3 4 4 7 6 8 13
16 15 15 16 18 20 19 20 22 22 22 23 23 22 21 21 17 10 2 6 8 6 2 2 2 1 2 2 4 4 3 2 2 2 2 2 2 2 3 4 6 10 5 5 2 2 1 3 5 5 9 7 9 14
15 14 16 17 19 19 20 21 23 23 24 26 27 26 26 20 14 6 2 5 5 5 2 2 2 1 3 2 2 2 3 2 2 1 2 2 2 3 3 7 4 5 7 6 3 6 2 4 3 8 11 12 13 15
14 14 15 18 19 18 20 22 23 24 27 29 31 27 18 5 5 6 12 11 6 4 3 1 0 1 5 2 2 3 3 2 3 2 2 2 1 2 5 12 11 4 3 5 7 2 3 9 11 11 12 13 14 14
14 14 14 18 20 17 19 22 23 24 29 32 22 4 4 3 2 1 5 5 10 5 2 1 2 2 2 1 1 2 0 2 1 2 2 1 3 6 10 10 8 7 6 5 6 5 7 9 12 12 13 13 15 12
13 13 14 18 19 17 16 20 22 25 28 17 9 5 2 2 13 3 5 2 3 3 3 2 1 1 3 1 1 0 1 1 2 1 2 3 4 12 12 8 6 4 7 12 6 4 5 5 11 14 14 12 13 14
13 13 13 18 18 16 16 18 19 24 12 6 5 2 8 12 2 1 2 4 3 3 3 1 4 3 2 3 3 0 1 0 2 0 2 2 4 3 2 6 6 8 9 11 1 2 10 13 15 15 13 11 12 16
13 13 12 16 16 15 16 15 18 16 10 8 9 6 4 3 1 1 1 2 2 2 1 2 1 2 1 1 1 1 1 1 3 2 2 3 4 2 4 5 7 5 9 9 3 4 8 12 14 14 14 14 16 19
13 12 12 17 14 14 12 16 18 10 5 2 0 2 1 0 2 3 5 2 1 3 3 1 1 1 2 1 2 2 3 3 0 1 4 5 3 5 4 4 3 2 7 8 6 6 11 11 18 19 15 19 22 21
13 11 13 15 14 8 13 16 9 4 1 2 2 3 2 3 3 3 2 3 2 2 3 1 1 1 0 2 1 2 1 0 2 3 6 3 3 4 5 2 1 4 6 8 9 10 11 12 12 17 20 24 23 19
12 11 14 15 6 10 14 12 2 2 1 1 0 2 2 1 2 1 2 2 2 2 3 1 1 1 1 1 2 2 2 4 5 5 3 2 2 3 3 1 2 5 5 6 8 10 11 13 13 16 18 21 23 24
10 12 11 7 8 12 13 2 2 0 1 1 1 1 1 1 1 2 3 3 2 5 1 1 1 2 4 2 3 6 3 5 3 3 2 3 3 2 2 1 3 5 6 7 7 10 14 15 14 18 21 20 21 22
8 6 6 5 10 12 3 3 1 1 2 2 2 2 1 2 3 2 2 2 4 4 1 1 3 1 1 1 3 4 4 3 6 5 4 5 5 4 2 2 4 6 8 8 10 13 15 19 23 22 15 18 21 21
11 8 7 7 10 5 1 2 2 2 3 2 2 2 1 1 3 3 1 2 4 3 3 1 2 3 4 4 2 3 3 7 6 5 5 6 8 7 4 4 5 7 7 11 14 16 18 19 13 11 22 24 24 23
13 9 8 7 5 1 1 1 1 2 3 2 2 2 3 3 4 4 4 3 3 3 4 2 4 3 3 1 1 4 5 5 6 8 8 6 6 7 4 3 6 8 11 12 15 12 15 14 14 20 22 23 20 20
11 11 8 5 2 2 2 1 1 2 1 1 1 2 2 3 3 4 5 3 2 1 3 3 2 2 3 4 5 7 6 6 7 7 8 3 4 4 3 4 4 10 13 14 14 18 18 18 17 20 20 22 23 20
10 7 5 5 2 2 1 2 1 1 1 2 1 2 3 2 2 2 2 3 3 3 3 1 1 3 4 6 9 9 8 7 7 5 5 6 4 4 4 3 8 10 9 8 8 11 16 15 19 20 23 20 20 21
6 9 4 3 3 1 1 2 1 2 1 1 1 1 2 2 2 1 2 2 3 2 1 0 2 4 7 8 8 14 16 16 14 10 12 8 4 3 4 7 7 5 7 10 14 12 16 21 24 24 23 24 24 25
12 6 3 2 2 1 2 2 2 1 2 1 1 2 2 2 2 3 2 3 2 2 1 1 2 6 9 15 14 14 11 12 7 5 8 7 5 7 8 10 11 8 6 10 16 18 20 24 25 27 28 26 27 25
8 3 3 3 1 3 2 1 1 2 1 1 2 3 2 2 2 1 4 2 2 2 2 1 3 6 5 5 5 7 11 13 13 12 10 7 3 4 8 11 12 12 14 17 20 22 24 23 27 27 28 28 25 24
4 3 3 2 1 3 2 2 0 2 2 3 3 3 1 2 2 2 3 3 2 2 2 2 2 3 4 7 7 10 13 12 7 8 13 12 6 3 5 6 8 14 22 23 21 24 24 25 25 28 28 27 27 25
5 4 6 6 3 4 5 4 5 5 2 3 4 1 1 1 2 5 3 3 3 3 3 2 3 6 6 7 8 7 12 13 16 8 14 13 12 7 6 6 6 8 20 22 28 27 28 26 26 29 27 29 30 29
5 5 3 1 3 4 2 2 2 2 4 5 3 3 2 2 5 4 2 3 3 5 5 7 7 8 8 11 16 18 18 18 17 17 22 24 18 17 15 12 10 15 22 24 27 30 31 30 29 28 29 26 27 29
2 5 7 5 2 1 4 3 5 6 4 4 5 4 6 7 5 3 3 3 8 6 10 14 18 20 19 20 21 19 18 18 19 20 16 13 11 15 19 20 17 21 26 28 31 32 32 35 32 29 29 29 27 29
4 3 4 3 2 3 5 6 5 3 3 5 5 4 4 3 2 2 3 5 5 8 10 9 14 16 19 21 20 21 20 14 8 10 10 5 2 3 12 19 23 25 29 31 31 36 36 38 38 38 36 34 33 31
4 3 4 4 6 6 3 3 2 1 1 1 1 2 2 3 5 6 8 8 6 7 12 15 18 14 11 9 11 15 17 16 16 12 5 4 4 6 14 20 25 25 29 33 34 35 35 37 35 37 38 34 32 30
4 3 3 2 3 1 1 2 3 0 2 1 1 2 3 4 6 6 6 6 7 10 11 9 13 14 11 10 7 6 7 10 13 18 18 14 12 18 19 23 28 31 33 36 37 37 37 34 35 35 32 31 29 28
2 3 4 3 2 1 2 1 1 1 2 1 2 1 3 2 3 2 2 3 4 3 6 11 9 10 15 15 14 13 13 16 14 10 15 18 20 23 25 26 30 32 35 36 36 38 40 37 33 31 31 31 28 27
3 2 2 2 2 1 1 2 3 3 1 2 2 1 2 2 5 2 2 3 3 5 9 11 11 12 11 9 7 5 3 2 6 12 16 23 29 31 30 31 34 34 35 36 36 39 38 36 33 33 34 32 30 26

GFSWCAN_925_spd_009.txt.gz
Wind_Speed
16 16 17 16 18 15 16 16 17 15 15 16 18 20 19 18 20 18 10 8 5 3 7 5 9 4 2 5 3 4 3 1 2 1 1 2 2 1 3 2 5 8 6 4 4 4 6 2 2 4 6 7 5 3
17 17 17 16 18 15 16 16 16 17 15 15 16 18 20 17 16 15 6 10 6 2 4 9 17 12 7 6 1 3 3 2 1 2 3 1 2 3 4 3 4 5 7 2 6 3 5 7 8 9 6 8 6 4
16 16 17 17 18 17 16 18 16 17 17 16 17 18 18 18 15 14 11 10 5 3 4 3 6 6 5 3 1 3 2 1 3 2 1 1 5 1 3 6 4 6 5 4 4 3 6 9 5 2 5 5 3 1
17 17 17 17 18 17 18 18 17 17 18 17 18 20 19 18 17 15 13 10 8 2 3 0 1 2 2 4 3 1 4 5 3 1 2 2 3 4 3 4 5 3 4 4 9 14 9 4 5 3 3 3 5 6
18 17 17 17 18 17 18 19 18 18 18 18 20 21 21 19 18 19 17 15 15 4 2 3 5 1 1 2 6 4 5 4 2 2 3 3 2 4 6 4 9 8 8 6 6 5 5 5 4 2 5 6 6 9
19 18 18 18 17 18 18 20 19 19 20 20 22 24 22 19 17 12 3 2 8 13 2 2 2 2 2 3 3 3 3 2 2 2 2 2 4 2 3 5 11 11 14 12 9 3 3 2 3 3 7 8 9 11
19 17 18 18 18 19 18 19 21 21 22 23 26 28 26 21 15 7 1 4 4 7 2 2 1 2 3 3 2 1 3 1 1 2 3 2 2 2 3 9 6 4 5 7 4 3 3 6 2 6 9 11 13 13
18 18 18 17 18 20 18 19 20 22 24 27 30 24 14 5 4 8 13 12 7 4 2 2 1 3 5 2 3 3 2 2 3 2 2 3 2 2 5 12 13 14 13 5 6 5 2 8 9 10 10 12 14 13
19 18 18 17 17 19 19 20 20 23 24 28 20 2 2 1 3 2 5 1 6 3 2 1 3 2 3 2 1 2 2 3 2 2 3 1 3 6 10 7 7 6 6 5 5 5 6 9 10 12 12 12 14 13
20 18 18 18 16 18 18 19 20 22 25 17 6 3 1 3 10 1 3 3 4 3 3 2 2 2 4 2 3 2 2 2 2 1 2 3 5 14 15 13 8 5 4 8 6 3 2 3 9 12 13 11 12 13
19 19 18 15 15 17 16 18 18 22 11 5 4 2 5 8 1 2 2 3 3 2 3 2 3 1 2 2 2 1 1 0 2 0 2 2 4 3 4 6 5 5 9 11 7 3 11 10 13 13 12 11 11 14
19 18 17 14 15 15 14 15 16 12 5 6 9 6 3 2 2 3 2 1 3 1 1 1 2 1 2 1 1 1 1 1 3 2 2 3 4 3 5 8 8 7 7 9 7 5 8 9 12 12 12 12 14 17
19 18 17 14 15 14 13 12 15 8 6 2 2 2 2 2 1 1 1 1 1 4 4 3 0 1 2 1 1 1 2 2 1 2 3 4 4 5 5 5 6 4 2 5 4 4 6 8 14 15 14 18 21 20
19 19 17 15 14 13 10 12 10 2 2 1 2 2 2 1 1 1 1 1 1 1 4 3 1 0 1 1 0 1 1 2 2 3 4 3 7 9 8 5 5 2 2 3 5 7 9 10 10 14 17 22 23 20
19 18 16 16 14 9 12 13 2 1 2 2 2 2 2 1 1 0 1 1 0 2 2 1 1 1 1 1 1 1 1 4 4 3 3 7 11 9 10 8 7 2 2 4 4 6 8 10 11 13 16 18 20 23
17 13 16 14 8 8 12 5 3 2 1 2 2 2 1 2 1 0 1 2 1 4 1 1 1 1 3 2 3 6 3 5 0 3 6 9 11 12 11 10 8 5 1 3 4 7 10 10 11 15 18 18 19 21
11 5 4 7 5 9 6 2 2 2 2 3 3 2 2 1 2 1 3 2 4 3 0 0 3 3 1 3 3 4 4 2 5 6 6 7 9 11 10 8 6 5 2 3 7 9 10 14 19 19 13 16 19 20
10 7 8 7 6 6 1 1 2 3 4 4 2 3 2 1 2 2 1 2 3 2 2 1 1 3 4 3 2 2 3 5 5 5 8 9 10 9 7 8 5 5 3 2 5 9 14 15 11 9 19 22 23 22
14 12 12 8 3 1 1 1 1 2 3 1 1 1 2 1 2 3 3 3 3 2 3 2 4 3 2 3 2 3 5 5 7 8 10 9 7 7 8 8 5 3 2 2 6 8 10 12 13 19 20 21 18 19
15 13 12 9 4 2 1 1 1 2 1 0 2 2 2 0 2 2 2 2 2 2 3 3 3 1 1 1 1 4 5 6 8 9 8 6 9 9 5 4 4 2 2 4 5 9 11 11 12 17 19 21 22 19
14 11 12 7 2 2 1 2 1 1 0 1 0 2 1 1 1 0 1 1 2 2 3 4 2 2 1 3 6 7 6 7 7 7 9 8 9 12 10 6 2 4 4 6 5 7 10 10 15 16 20 19 21 22
6 14 5 3 2 1 1 1 1 2 1 1 1 1 2 2 2 2 1 3 3 3 2 2 1 1 3 3 5 9 12 13 14 14 16 15 8 6 5 6 5 3 4 6 8 8 9 14 17 19 19 21 22 25
12 7 4 3 2 3 2 0 3 2 2 2 1 2 2 2 1 1 2 4 3 1 3 2 2 2 4 9 8 11 10 11 6 8 12 12 14 14 11 10 11 7 5 7 10 11 13 18 20 20 22 23 25 24
9 3 3 4 4 3 3 2 1 2 1 2 2 2 2 1 1 2 3 2 2 3 4 4 2 3 4 6 5 6 9 9 12 13 13 12 8 8 12 11 13 13 13 15 14 14 17 18 22 23 23 23 23 24
5 4 4 4 1 3 4 4 3 3 3 3 3 2 2 1 2 3 4 2 3 4 6 5 4 5 4 6 6 8 6 9 8 8 13 13 14 15 12 10 12 12 17 19 17 18 18 20 20 23 24 24 24 24
5 5 7 7 4 4 5 5 5 5 3 3 4 1 1 2 2 5 3 3 4 4 6 6 6 5 6 7 7 7 10 8 11 9 16 16 14 10 7 7 5 7 17 20 23 22 22 22 23 24 23 25 27 27
6 6 3 2 2 3 2 2 2 2 4 5 4 5 3 3 5 3 1 3 3 5 7 7 7 7 7 10 14 16 15 14 15 18 20 21 22 21 19 14 8 11 18 21 23 27 27 26 26 26 25 24 25 27
2 5 7 6 3 0 4 3 5 6 4 4 6 5 6 7 4 2 2 3 5 6 7 10 13 15 15 17 17 16 17 18 19 20 21 22 24 23 21 21 21 20 18 25 24 26 28 30 30 30 29 27 23 23
4 4 5 4 2 3 5 7 4 3 2 4 5 4 4 3 1 1 3 5 6 6 6 8 8 9 13 17 18 19 18 14 9 11 12 8 6 8 11 14 17 18 22 24 25 29 33 33 34 34 33 31 29 30
5 5 3 4 6 6 2 1 0 1 1 1 2 2 2 3 4 7 8 7 5 7 7 8 11 9 9 9 10 15 15 16 18 15 8 8 7 7 11 11 15 22 25 25 26 30 31 33 33 33 33 30 31 31
5 3 3 3 3 1 2 2 2 0 1 1 1 2 3 4 6 6 7 7 7 6 6 7 8 8 10 10 9 7 9 12 12 16 19 19 18 15 13 12 19 24 27 27 29 30 34 30 30 32 29 29 29 31
3 4 4 4 2 1 0 0 0 1 1 1 1 0 2 2 4 2 4 5 2 3 4 7 7 10 16 17 19 19 19 22 22 22 20 18 16 14 14 19 24 26 28 30 32 34 36 33 30 30 32 32 32 30
3 2 2 3 2 2 1 1 0 2 1 2 2 1 1 2 5 2 3 6 4 4 5 8 11 13 13 13 13 14 12 13 12 10 7 9 12 17 22 25 29 32 32 30 30 34 36 36 34 33 33 32 29 29

GFSWCAN_925_spd_012.txt.gz
Wind_Speed
14 15 17 18 18 19 17 17 18 18 17 17 17 17 17 17 16 16 10 8 5 3 7 6 8 5 2 2 3 3 3 1 2 1 1 1 2 3 3 3 5 7 6 3 3 4 7 1 1 2 3 3 4 4
15 15 17 18 17 18 17 17 18 18 17 17 17 18 17 15 15 13 6 12 13 3 5 8 20 22 11 5 1 3 1 3 2 2 2 1 2 3 5 3 0 3 5 4 6 6 6 4 7 1 3 2 5 2
14 16 17 18 18 18 18 18 19 18 17 18 18 18 17 15 13 11 9 10 10 2 5 4 4 10 9 8 2 2 1 3 3 2 2 1 3 2 2 4 4 4 5 2 2 4 5 4 5 5 4 3 2 2
16 16 17 18 18 19 20 17 19 20 18 18 18 19 19 17 13 11 12 11 9 3 3 3 3 2 4 5 2 2 5 5 4 2 2 2 2 3 3 4 3 2 2 4 5 9 3 5 5 4 4 3 5 5
18 17 17 18 18 19 20 20 18 21 20 19 20 21 20 19 15 13 18 17 16 4 3 4 11 4 3 3 6 5 5 4 2 2 2 3 2 2 3 4 7 4 5 4 4 2 2 2 4 2 5 5 6 8
17 18 17 18 18 18 20 23 19 21 21 22 23 23 23 21 14 6 3 1 16 18 3 3 2 3 3 2 4 4 3 1 2 2 2 2 3 3 3 4 6 10 9 8 4 4 3 5 5 5 6 6 7 7
17 17 18 17 18 18 19 22 21 23 22 23 25 25 22 14 9 5 1 3 5 17 3 3 2 3 6 4 2 2 2 1 2 1 2 2 3 5 3 7 9 12 8 8 0 5 2 4 3 7 8 8 11 9
16 16 18 18 18 19 20 22 22 24 24 25 26 21 9 3 4 6 16 12 5 4 3 2 1 3 4 3 3 3 3 2 3 2 1 2 2 3 5 10 8 11 13 8 4 4 3 7 8 7 7 8 8 8
16 16 17 18 19 19 19 21 22 24 26 28 19 1 2 2 1 2 5 5 5 4 3 2 3 2 2 2 2 1 1 2 3 3 2 2 2 4 6 7 7 5 3 2 5 6 6 6 8 8 8 8 10 8
17 17 17 17 19 20 18 20 21 23 29 12 5 1 2 3 8 2 3 2 2 2 3 3 2 2 2 2 2 3 2 0 0 0 1 2 3 10 10 9 7 7 2 7 3 2 1 2 8 9 8 7 9 10
17 17 16 16 17 18 18 18 19 22 10 6 3 1 4 7 1 1 2 2 2 2 3 3 2 3 1 1 1 2 1 1 1 1 1 2 2 3 7 7 7 7 7 6 6 5 8 8 9 9 8 10 10 12
18 18 15 15 16 15 17 16 15 13 8 8 10 6 2 1 1 2 3 1 3 1 2 1 1 2 2 2 1 1 2 1 2 2 1 2 1 7 10 11 10 8 8 7 6 4 6 7 7 8 7 10 13 18
20 18 16 15 14 14 15 17 13 13 8 3 3 2 1 2 3 3 3 1 1 3 3 3 1 1 1 0 2 1 2 3 1 1 2 3 4 10 11 10 10 8 7 5 5 3 3 7 13 11 11 16 19 19
20 18 17 16 13 13 10 12 14 5 3 1 2 3 3 3 2 1 2 2 2 2 3 2 0 1 1 2 1 2 1 1 2 2 4 2 7 10 9 9 9 9 8 6 5 5 4 7 9 15 17 20 22 19
19 18 16 17 14 12 8 10 8 1 2 2 2 3 4 2 0 1 1 1 1 2 2 1 1 0 1 2 1 2 1 3 4 3 2 5 7 8 9 10 10 9 6 5 3 3 5 7 9 10 18 21 20 22
17 13 16 14 11 9 7 7 2 2 2 2 3 3 1 1 3 1 1 1 2 1 1 1 1 2 2 2 2 5 3 5 2 1 2 4 8 9 9 8 8 7 6 4 3 2 5 7 9 11 17 18 20 22
16 6 7 4 6 4 5 2 2 2 3 3 3 3 1 1 1 1 1 1 1 1 0 1 3 3 1 3 3 4 4 2 3 3 2 5 6 9 7 7 6 7 5 5 3 1 4 9 15 15 10 14 21 21
10 11 11 8 6 3 2 3 2 2 4 4 2 3 4 1 2 2 1 3 1 1 1 1 2 2 3 3 3 2 3 2 2 1 3 6 6 6 8 7 10 10 7 4 2 5 9 10 7 6 14 20 21 22
18 17 10 10 6 3 2 2 0 2 3 2 1 2 3 1 2 2 2 2 2 0 0 1 3 3 1 2 2 1 1 3 4 5 5 8 4 5 8 12 13 7 4 1 2 4 7 9 9 15 18 17 15 18
19 13 10 12 8 3 1 1 1 2 2 1 2 2 2 0 2 2 2 1 1 1 2 3 4 2 2 2 1 1 2 3 4 6 5 2 10 13 10 11 8 10 7 2 3 5 9 11 14 18 17 16 19 18
16 10 15 14 2 2 1 1 2 1 1 1 1 2 2 1 1 1 2 2 3 3 3 3 2 2 3 2 3 5 4 3 2 2 6 8 10 13 13 14 10 8 5 4 3 5 9 9 15 18 18 17 17 17
8 20 5 4 2 1 1 1 1 1 1 1 0 1 1 1 2 2 1 3 4 3 3 2 2 3 3 3 2 4 7 10 11 11 12 12 7 7 8 12 10 3 8 10 11 8 11 14 17 18 18 19 22 23
18 8 4 3 2 2 1 2 3 3 3 2 1 1 2 1 1 2 2 3 3 3 2 2 3 4 3 4 3 6 7 9 3 7 9 10 13 14 14 14 13 9 4 12 15 14 15 18 19 19 21 21 23 23
10 3 4 4 3 3 3 3 2 2 0 2 2 2 2 3 2 2 3 3 3 2 2 4 4 1 2 2 2 3 4 6 10 13 12 12 5 10 14 16 17 18 17 16 15 17 19 18 21 21 21 22 22 22
5 3 4 4 0 3 4 4 3 3 3 3 3 2 2 1 1 3 3 3 2 3 3 3 2 3 3 2 2 7 8 8 7 6 12 11 15 15 14 16 19 19 15 12 14 17 18 20 20 23 22 22 23 24
5 6 9 8 4 5 6 5 5 6 3 3 4 1 1 2 0 6 3 3 3 4 5 7 7 4 4 7 4 2 8 8 10 8 18 17 17 12 8 7 8 11 12 17 15 15 17 19 20 23 23 24 26 26
6 5 4 1 3 3 2 1 2 2 5 5 3 3 3 2 6 4 2 2 3 4 8 14 16 8 3 4 11 16 18 18 18 20 22 21 22 23 22 16 13 20 17 17 20 20 21 21 22 24 25 26 27 28
3 4 7 6 2 1 4 3 5 6 4 3 5 4 7 8 5 3 3 3 5 5 7 8 9 11 14 18 19 19 21 21 21 22 24 26 27 26 27 29 29 26 25 24 22 23 25 24 25 26 27 28 26 27
3 4 5 4 3 3 5 7 5 3 2 4 5 4 4 3 2 2 3 5 7 6 5 7 11 11 12 15 20 20 21 19 7 10 12 8 6 13 18 21 19 20 22 23 21 24 28 29 28 27 28 28 29 31
4 4 3 4 6 6 3 2 1 1 0 1 1 2 2 3 4 7 9 10 8 8 9 9 8 9 10 11 11 15 18 19 21 17 10 9 8 14 13 14 16 17 18 21 19 21 23 25 27 28 31 30 30 30
4 2 3 3 3 1 1 2 2 0 2 1 1 2 3 3 7 7 11 11 10 8 6 5 7 9 13 14 10 7 9 12 12 17 20 23 23 23 23 22 21 17 18 21 25 24 25 25 26 26 28 28 29 29
3 3 4 4 1 1 1 1 1 0 0 1 2 1 3 2 3 3 5 9 8 5 6 6 8 9 11 14 16 19 20 25 26 24 22 22 23 24 23 19 16 16 20 21 22 29 32 28 26 27 31 31 31 31
2 2 2 3 2 1 1 2 1 2 1 2 2 1 2 2 6 3 3 9 8 5 6 6 6 8 9 11 14 15 15 17 17 16 17 17 18 15 13 13 16 22 26 28 28 30 30 30 29 30 33 35 32 33

GFSWCAN_925_spd_015.txt.gz
Wind_Speed
7 8 11 14 12 14 15 17 15 17 16 15 15 15 15 14 12 14 12 8 4 2 7 6 5 4 5 3 4 3 2 2 1 2 2 1 2 2 1 4 6 6 6 3 4 4 7 5 4 3 5 3 2 1
9 11 13 14 13 13 15 17 13 16 16 15 15 15 15 15 13 10 5 13 9 4 5 13 24 28 16 12 2 1 2 3 3 3 1 1 2 1 2 3 3 2 6 4 7 6 6 4 6 2 1 3 3 2
15 10 12 13 13 14 15 16 17 13 16 16 15 15 15 15 15 12 13 12 11 3 5 3 7 14 16 21 11 3 2 2 1 2 2 1 3 1 2 4 2 3 5 3 2 6 8 6 1 2 2 3 3 4
13 11 9 13 14 15 16 17 19 15 16 17 16 16 16 15 15 15 14 13 9 4 3 5 7 8 8 12 10 6 4 4 3 2 2 2 1 2 3 3 2 4 5 2 5 8 2 1 0 1 0 1 3 5
13 13 11 13 14 15 16 16 17 19 17 19 18 17 18 19 19 18 18 21 20 7 3 5 18 8 7 9 9 7 8 4 2 1 2 3 1 2 3 2 4 4 6 4 5 5 3 3 1 1 3 2 4 7
15 12 12 10 12 13 16 15 17 17 20 21 19 19 20 20 17 7 3 5 12 20 2 4 4 4 7 8 8 5 3 1 2 2 2 2 2 3 2 3 5 6 4 7 6 3 2 3 4 3 4 4 4 7
17 15 12 12 14 15 16 16 18 18 20 20 21 21 20 15 7 4 3 1 7 16 2 3 2 3 11 6 2 2 3 1 2 2 2 2 2 4 2 6 5 8 14 12 3 4 2 4 4 4 6 6 9 9
18 14 13 12 13 14 16 17 18 19 21 23 24 19 6 1 3 4 13 13 4 1 3 3 2 3 6 3 3 2 3 2 2 2 1 2 1 2 3 4 8 9 11 6 7 5 4 6 7 6 5 8 8 8
18 15 14 14 14 15 16 16 18 19 22 24 11 2 2 1 0 1 1 6 3 4 3 3 0 3 2 2 3 2 2 3 2 3 2 3 2 3 3 7 10 11 7 6 3 4 5 5 7 7 8 7 8 7
18 16 15 13 12 14 16 14 16 19 22 7 5 1 0 2 7 2 3 2 2 2 3 3 3 2 2 2 2 3 2 2 2 2 2 2 3 0 8 9 8 9 7 6 4 2 1 2 7 7 8 8 8 8
18 17 15 12 11 13 13 15 14 18 7 4 3 1 5 7 3 2 2 2 2 3 3 3 1 3 3 2 2 1 2 1 1 2 2 2 1 5 10 11 12 11 9 8 7 7 5 5 8 9 8 8 9 12
20 18 14 13 12 11 10 14 13 12 8 4 6 6 4 1 1 2 2 2 3 2 1 2 2 1 1 1 2 0 2 1 3 1 1 2 1 6 10 12 13 13 12 11 7 7 4 5 7 9 9 11 15 17
17 16 14 11 11 10 9 11 11 12 6 1 1 1 2 2 3 3 3 2 1 3 3 3 1 1 2 2 2 1 2 3 1 1 2 2 3 7 10 10 12 12 11 11 9 7 2 4 11 12 9 15 20 19
19 17 14 11 11 10 8 6 10 6 1 1 1 3 3 3 4 2 1 0 1 2 3 2 1 1 1 2 1 2 1 2 1 2 3 2 6 9 9 9 10 12 11 8 8 7 4 5 6 12 14 21 22 19
21 17 12 12 10 9 5 5 9 2 1 1 2 4 4 2 1 1 0 1 1 2 2 1 1 1 2 1 1 2 1 3 4 4 1 3 5 7 9 10 10 9 9 7 5 5 4 5 7 9 12 15 18 21
19 11 15 13 8 7 4 5 2 2 1 1 3 3 2 1 1 3 2 2 1 1 1 1 1 1 2 2 2 4 3 5 2 1 2 3 5 6 7 9 9 9 8 6 7 5 1 4 6 9 15 14 15 19
17 6 11 8 6 6 3 1 2 1 2 3 3 3 2 2 1 2 1 1 2 1 1 0 3 3 0 2 2 2 1 2 1 1 2 3 5 6 6 7 8 11 9 10 9 7 2 4 10 13 7 10 17 18
9 14 13 9 10 5 3 3 2 1 4 3 2 2 2 1 2 2 1 2 2 1 0 1 1 2 3 3 3 2 2 1 1 2 2 4 5 6 8 6 12 13 11 11 10 6 2 8 6 4 14 19 21 21
19 19 17 12 10 4 2 2 2 2 4 2 2 1 1 1 2 1 0 3 2 0 1 1 3 3 3 1 3 3 2 2 2 2 3 7 4 8 11 13 15 12 13 13 10 7 5 6 8 13 16 17 14 15
16 19 14 14 10 4 2 1 2 1 2 2 1 0 1 1 1 1 1 1 0 1 0 3 5 3 3 3 1 2 2 2 1 2 3 2 5 9 10 11 11 15 14 12 10 6 4 2 7 14 18 18 16 16
18 16 20 18 3 2 2 2 1 2 1 1 1 1 2 1 1 0 1 2 1 3 3 4 3 2 3 4 6 5 3 4 3 3 3 3 6 9 13 13 13 12 9 9 4 8 7 9 10 13 16 16 17 17
9 21 6 4 3 1 1 0 2 1 2 1 0 1 1 1 2 2 1 3 4 4 4 3 3 3 3 3 3 6 4 4 5 6 7 8 3 2 3 11 9 7 10 11 13 11 14 13 12 15 17 17 19 21
19 8 5 3 3 3 3 1 1 2 2 1 1 1 2 2 2 2 2 3 4 4 4 2 4 3 4 4 4 6 7 8 4 6 7 9 12 13 13 14 11 11 7 13 15 19 19 15 13 17 19 19 20 20
10 4 4 5 3 4 2 1 1 1 1 1 2 3 2 3 1 1 4 3 3 2 2 4 4 2 2 1 2 3 12 12 12 12 12 11 4 11 13 16 16 17 19 22 19 21 18 15 16 17 19 19 20 21
5 4 4 4 1 4 3 3 3 3 3 3 3 3 2 1 1 3 3 3 2 2 3 3 2 2 3 2 2 8 8 9 8 5 10 10 15 17 14 16 19 20 16 17 14 15 17 16 18 20 21 20 20 21
5 7 8 8 3 5 6 5 6 6 3 4 5 1 0 2 1 6 3 3 3 4 4 6 6 4 4 8 4 2 6 8 10 8 16 15 15 11 5 6 7 11 11 14 16 15 15 15 16 19 19 21 23 22
7 6 3 2 4 4 2 1 2 2 5 6 3 4 3 3 6 4 2 2 3 5 9 15 16 8 5 4 9 10 10 13 15 18 22 23 22 21 21 15 12 20 18 19 20 18 17 18 18 20 20 20 23 24
4 5 8 5 2 1 4 3 5 6 4 3 5 5 7 7 4 3 4 2 5 5 6 7 9 11 10 9 12 15 17 15 18 20 23 27 28 28 27 29 30 27 24 24 23 24 20 21 22 22 23 22 22 23
3 5 5 4 3 3 5 6 5 3 2 4 5 4 4 3 2 2 3 5 6 6 5 6 8 8 11 12 12 14 15 15 7 8 11 9 7 12 16 18 20 21 20 20 19 21 24 24 26 26 25 25 26 27
5 3 4 4 6 7 4 3 2 0 0 1 1 2 2 3 4 6 8 8 9 10 10 8 7 7 7 7 10 15 15 15 17 14 8 9 9 17 17 19 23 23 20 20 21 21 17 21 21 22 25 26 26 27
4 3 3 3 3 1 1 1 1 1 2 1 1 2 3 3 7 9 16 16 13 10 9 8 10 10 11 12 10 4 7 11 10 16 21 26 28 26 25 26 25 23 21 20 19 18 17 19 21 23 25 24 26 27
2 3 4 4 1 1 1 1 1 1 2 2 2 1 3 2 3 3 4 9 10 8 12 10 9 7 4 7 10 14 18 23 24 25 25 26 26 25 24 23 22 21 19 17 16 16 25 26 23 23 23 25 27 28
2 2 3 3 2 1 0 3 3 3 1 2 2 2 2 3 6 3 3 11 9 7 9 7 5 5 5 7 11 16 19 20 19 18 19 19 20 22 22 19 12 11 13 17 20 26 27 27 25 26 27 29 30 32

GFSWCAN_925_spd_018.txt.gz
Wind_Speed
12 9 10 11 12 10 12 12 14 9 11 12 12 12 12 10 10 10 9 5 3 2 8 5 5 3 2 1 3 3 3 1 2 3 3 3 1 2 1 3 5 6 6 3 4 4 7 5 3 3 5 3 2 3
13 13 13 11 9 9 12 12 13 13 9 10 12 11 11 10 10 10 5 10 7 3 5 11 20 26 14 4 2 1 2 3 4 3 2 2 2 2 2 3 3 4 6 4 7 5 5 4 5 6 2 3 3 2
15 16 14 10 10 9 12 13 14 14 11 10 12 13 12 12 10 10 13 11 6 3 5 3 10 24 29 33 22 2 2 3 2 3 3 2 1 2 2 5 2 4 4 3 0 5 10 8 6 3 2 3 5 3
18 17 12 12 10 9 12 13 14 15 18 10 15 14 13 13 14 13 14 12 6 3 4 5 8 10 17 18 25 21 5 3 4 2 2 2 2 2 2 3 2 4 3 4 5 9 7 5 4 3 3 3 1 3
17 16 14 13 12 9 12 12 14 14 18 13 14 15 15 14 14 15 15 17 17 7 3 7 22 21 16 17 21 18 8 4 2 2 2 3 2 2 2 1 3 3 5 4 5 7 4 5 2 2 3 3 3 5
17 16 14 12 10 11 13 13 15 15 18 16 16 16 16 15 13 6 2 5 8 21 2 4 7 7 11 16 12 7 4 2 2 3 2 2 1 3 2 3 5 5 4 5 5 4 5 5 3 2 3 3 3 4
19 18 15 15 13 13 13 14 15 15 17 17 18 19 18 11 6 3 3 1 5 16 2 3 3 6 13 8 3 2 3 1 2 2 2 2 2 4 2 3 2 5 9 13 9 5 5 5 5 6 4 4 6 5
17 16 15 14 12 12 14 15 16 16 17 19 19 10 1 4 3 4 7 8 3 2 2 3 4 4 8 3 3 2 2 2 2 2 1 2 1 3 3 4 7 8 11 6 11 5 3 3 5 4 4 5 6 5
18 17 16 14 12 13 14 15 14 17 20 16 5 5 2 0 0 1 4 4 8 3 3 3 3 4 2 3 2 1 2 2 1 2 2 3 2 3 2 6 7 8 6 12 13 6 2 3 5 5 5 6 6 5
18 16 15 14 12 13 12 13 14 15 18 4 1 2 1 1 6 1 5 2 2 2 2 3 4 2 1 2 2 3 2 2 3 3 3 2 2 5 5 7 5 8 8 7 6 5 2 3 6 7 7 5 6 7
15 18 15 14 13 12 10 9 12 16 5 2 2 1 4 5 3 2 2 2 2 3 3 3 2 1 3 3 2 2 2 1 2 2 2 2 2 2 7 8 8 8 9 9 8 11 9 7 6 7 6 7 8 11
16 18 16 15 11 11 9 10 8 10 6 4 4 4 3 1 1 2 2 2 4 3 2 3 2 2 1 1 3 1 2 1 1 1 2 2 1 4 8 10 11 10 10 10 8 9 7 7 7 7 7 8 12 14
21 19 17 15 10 10 8 9 6 9 6 2 1 1 1 1 3 3 3 2 2 3 3 3 2 2 2 3 2 2 2 2 2 2 3 1 2 5 8 8 11 11 11 10 9 12 12 2 5 9 6 11 16 15
20 19 15 13 11 10 6 5 7 5 1 1 1 2 3 3 4 1 1 1 2 2 3 2 2 2 2 3 1 2 1 2 2 3 4 0 3 6 7 8 9 12 11 11 9 8 6 6 4 8 14 17 15 15
22 18 16 15 11 9 4 6 5 2 2 1 2 4 4 2 2 1 1 1 1 2 2 1 1 1 2 1 1 2 2 3 4 4 2 1 3 4 6 7 9 9 10 10 9 8 7 6 4 4 9 14 13 15
23 17 18 14 11 6 5 5 2 3 1 1 3 2 3 0 2 0 2 2 1 2 2 1 1 1 2 2 1 4 2 4 2 2 1 2 4 4 4 5 7 8 9 9 12 11 10 7 1 5 9 12 14 16
25 7 11 13 10 8 7 3 3 1 3 3 3 3 2 2 3 2 1 1 1 0 1 1 3 4 1 3 3 3 3 2 4 2 2 2 3 5 5 6 7 9 9 11 12 12 12 7 2 5 5 10 14 16
10 19 17 16 14 11 4 3 2 2 4 3 2 2 2 2 1 0 1 2 1 1 1 1 1 2 3 3 3 3 2 2 1 1 2 2 3 3 6 5 10 13 12 12 13 13 12 8 2 2 4 10 13 15
25 21 23 18 13 6 3 2 2 3 4 2 2 1 1 1 0 1 1 2 2 0 1 0 2 3 4 3 3 2 2 2 2 2 2 4 3 5 9 12 12 11 13 16 13 10 10 9 8 7 7 12 9 13
18 24 23 18 13 4 2 1 2 1 2 2 1 1 1 0 1 1 1 1 1 2 1 4 5 3 3 3 3 3 2 3 3 1 2 3 4 6 10 11 11 16 15 13 15 13 12 10 7 6 9 14 13 13
17 17 22 21 4 1 2 2 1 3 2 1 1 1 1 1 1 0 2 2 2 3 3 4 3 2 1 3 6 6 4 5 4 4 3 2 4 8 11 11 15 14 10 9 9 11 13 10 13 10 10 13 14 16
8 21 7 5 3 2 2 1 2 1 1 1 1 0 2 1 2 2 1 1 3 4 4 3 3 4 4 4 4 10 8 9 6 4 5 6 3 2 4 12 13 5 11 11 12 11 14 20 18 12 11 13 13 16
20 7 5 3 3 2 3 1 1 1 2 2 1 2 2 1 2 1 2 3 4 4 4 3 3 4 5 6 8 8 10 10 4 6 6 7 9 12 13 12 11 12 8 14 15 18 18 19 17 12 11 12 16 16
8 5 5 5 3 4 2 1 1 1 2 1 1 3 2 2 1 2 4 3 3 1 3 5 3 3 3 2 2 3 14 13 12 9 8 7 4 9 12 15 18 18 17 20 19 19 16 14 15 11 13 18 17 17
5 5 5 4 0 4 3 2 2 2 3 3 3 3 2 1 0 3 3 3 2 2 3 3 2 2 3 2 2 8 12 16 9 5 12 12 14 15 15 17 20 19 17 17 16 13 13 13 15 14 17 17 16 18
5 7 8 7 2 6 6 5 6 6 3 4 4 0 1 1 1 6 3 3 3 4 5 6 6 4 3 6 3 2 7 14 15 7 11 12 13 12 5 5 8 11 9 10 15 18 16 14 16 16 16 19 18 17
6 7 3 1 4 4 2 1 1 3 5 5 3 4 3 3 6 4 2 2 3 6 11 17 17 8 4 4 10 10 8 9 11 13 18 18 18 19 20 14 12 18 15 16 18 18 20 17 16 17 18 18 20 20
3 5 8 5 2 1 5 3 5 7 4 3 5 5 5 7 4 3 3 2 3 4 6 8 11 13 11 9 7 7 8 10 12 16 20 24 20 18 20 25 27 25 23 22 21 21 21 20 20 17 20 20 19 22
3 3 4 4 3 4 5 6 6 4 4 4 5 4 4 3 2 2 3 3 5 6 4 5 6 7 7 8 8 9 9 9 3 4 7 8 3 10 14 13 15 16 15 14 14 17 20 22 22 21 22 22 21 24
5 4 4 5 6 7 4 4 3 2 1 2 1 2 2 3 5 7 9 7 8 10 12 10 8 8 6 3 4 8 8 10 12 11 5 8 7 18 23 23 24 23 21 19 18 20 19 19 19 22 20 18 21 21
7 3 3 3 4 1 0 0 2 2 2 1 1 2 3 3 7 10 17 19 17 13 9 7 8 9 8 9 7 2 5 5 5 12 19 25 28 29 29 28 26 23 21 20 20 20 19 18 17 18 23 21 22 21
2 4 5 4 2 1 1 2 1 1 1 1 2 1 3 2 3 3 4 8 9 7 12 10 8 8 7 6 7 9 11 16 20 24 25 24 25 28 30 26 24 21 19 19 19 18 17 14 20 21 21 21 21 23
2 2 3 4 3 2 1 3 2 2 1 1 2 2 2 2 6 3 2 8 5 4 9 9 6 6 6 7 8 11 12 16 19 20 20 21 22 26 23 19 20 19 15 13 15 14 16 21 20 21 21 24 24 25

GFSWCAN_925_spd_021.txt.gz
Wind_Speed
14 12 9 12 13 13 11 13 13 13 14 11 11 12 10 10 8 8 8 4 2 3 6 3 3 2 4 2 3 3 3 1 2 3 3 3 3 3 2 3 5 6 5 3 4 2 7 5 3 4 4 2 3 4
15 14 11 13 15 11 13 12 13 15 15 16 10 10 13 12 11 8 7 8 7 3 5 12 22 23 14 7 3 2 2 4 4 3 1 2 2 3 3 2 1 4 6 4 7 6 5 5 4 5 2 3 3 4
17 15 14 17 13 12 14 13 12 15 15 16 16 11 14 13 12 10 14 13 8 3 6 4 8 18 18 32 27 3 2 2 3 3 3 2 2 3 3 4 2 3 4 3 0 4 6 8 8 5 4 4 4 5
19 17 16 15 11 13 12 12 13 12 16 17 16 14 14 15 14 13 15 13 6 3 4 6 8 11 9 14 21 28 11 3 4 2 2 2 2 2 2 3 3 3 3 3 4 7 8 4 4 3 2 2 3 0
18 18 20 15 13 14 12 13 13 13 13 17 19 16 15 15 13 14 15 16 16 6 3 6 16 36 24 22 22 24 18 8 2 2 2 3 1 2 1 0 3 4 5 3 4 5 5 8 5 3 4 3 4 5
20 17 15 16 15 14 14 14 14 14 14 18 18 18 17 16 12 8 2 3 4 13 3 3 5 5 5 18 17 12 11 6 2 3 2 2 2 3 2 2 5 3 3 3 4 7 7 8 8 4 4 3 2 5
20 21 18 16 14 15 14 14 15 14 17 19 19 21 19 12 8 3 3 4 4 11 2 4 4 4 9 8 5 3 7 3 2 2 2 3 2 4 2 3 3 3 5 8 5 7 5 5 6 3 3 2 3 3
23 14 17 15 13 13 13 14 15 14 17 19 21 12 4 2 4 3 7 8 4 3 2 3 4 3 5 4 4 3 3 3 2 2 1 2 2 2 3 2 3 6 10 9 5 6 9 9 3 3 3 4 3 4
14 13 14 14 15 13 12 13 14 14 17 20 9 2 2 2 2 2 5 5 11 5 3 2 2 2 4 2 3 2 2 2 1 2 2 3 3 4 2 2 4 5 4 12 14 12 11 6 6 3 4 5 5 5
12 12 13 14 13 11 11 12 11 15 19 9 2 2 2 1 4 3 2 2 3 2 2 3 2 4 1 2 2 2 2 3 3 3 3 3 3 6 4 2 4 6 6 7 8 7 5 5 4 4 6 5 6 6
10 11 14 14 12 11 12 11 9 13 9 4 3 2 5 5 2 2 1 2 2 3 3 3 4 3 5 3 2 1 2 1 3 2 3 2 3 2 5 6 5 6 6 8 8 10 11 12 8 7 6 7 7 10
11 13 12 12 11 11 10 9 9 6 6 6 6 6 4 2 2 2 2 2 4 3 2 3 3 3 2 2 3 1 2 1 2 1 1 3 2 2 4 5 7 7 8 10 11 9 9 8 8 7 5 6 10 13
21 16 12 13 12 10 9 7 7 7 9 2 2 1 2 2 4 3 3 2 2 2 3 3 2 2 0 3 1 1 2 2 2 2 3 1 1 3 5 5 7 7 10 9 9 12 13 12 6 2 3 9 14 13
15 21 12 14 13 10 9 5 4 6 2 1 2 3 3 3 4 3 1 2 2 2 4 3 2 2 2 2 1 2 1 2 2 2 4 1 1 2 4 4 5 8 8 8 9 11 10 11 7 5 5 11 13 12
10 17 13 11 12 11 9 3 2 3 1 1 1 4 4 3 3 2 1 1 1 2 2 3 2 1 1 1 1 2 2 3 4 4 2 2 2 2 4 4 6 7 8 8 9 7 8 9 6 4 2 5 9 14
9 15 16 14 13 10 8 5 1 1 2 1 3 2 3 1 3 2 0 2 1 2 2 1 2 1 1 1 2 4 2 4 3 2 2 1 0 2 3 5 5 7 9 10 12 11 10 10 8 4 1 3 7 12
16 6 17 14 12 10 9 4 2 1 3 3 3 3 2 2 3 2 0 1 3 1 2 1 3 2 0 2 2 3 4 2 3 2 2 3 1 2 4 4 6 8 9 11 13 13 13 15 8 3 1 2 5 9
13 16 16 17 19 13 4 4 1 1 5 3 2 2 2 2 2 1 1 0 1 1 2 1 1 3 3 3 3 3 1 0 2 3 3 2 1 1 3 4 9 11 11 12 14 16 16 15 10 6 5 3 6 8
16 16 21 24 19 6 4 3 2 3 5 2 2 1 2 2 1 1 1 1 1 1 1 2 2 3 4 3 3 2 2 2 3 3 2 1 3 2 2 6 8 11 14 15 12 10 13 13 11 12 9 5 6 9
11 13 27 21 14 4 2 1 2 1 3 2 1 2 2 1 1 1 1 1 0 1 1 3 5 3 3 3 3 3 3 3 3 3 1 1 2 1 3 5 7 12 12 11 10 11 11 13 15 16 11 7 8 10
11 21 18 18 3 1 2 2 2 3 2 1 1 1 2 1 2 1 2 1 2 3 3 4 4 3 1 1 4 5 4 5 4 3 3 1 2 4 6 7 8 10 5 8 6 10 10 10 18 19 14 11 10 11
7 25 6 6 2 2 1 2 3 1 1 2 2 1 2 2 2 2 1 1 3 4 4 3 3 3 4 4 4 9 8 11 8 5 4 3 1 1 2 7 9 5 10 10 12 11 14 19 19 16 15 14 10 11
18 11 4 3 2 3 2 1 1 1 1 2 2 2 2 2 2 0 3 3 4 4 5 3 3 3 4 6 8 8 11 15 5 7 8 8 7 8 10 11 9 10 7 12 13 15 18 17 16 14 16 12 10 11
10 7 6 5 5 4 3 1 1 1 2 1 2 4 3 2 1 1 4 3 4 2 3 4 3 3 2 3 2 3 15 16 11 9 10 9 4 9 8 9 11 13 15 18 18 17 16 12 12 12 15 14 12 13
4 5 4 4 1 4 3 3 1 2 4 4 3 3 2 1 1 3 4 4 2 2 2 4 3 2 3 2 1 8 14 17 10 5 14 16 15 13 13 15 18 17 13 15 18 15 12 12 12 13 14 14 14 15
5 6 8 7 2 6 6 6 6 7 3 3 5 1 1 1 1 6 3 3 3 3 4 7 7 4 2 4 3 2 11 18 16 8 12 13 15 12 5 3 6 11 7 9 12 13 14 16 15 15 16 16 15 15
4 6 2 1 3 4 1 1 1 3 5 6 3 3 2 2 5 4 3 2 2 3 8 16 16 8 3 4 13 13 8 10 13 10 8 9 12 14 16 13 10 14 11 11 13 16 20 19 17 18 17 15 18 18
5 5 8 5 2 1 5 3 5 7 5 4 5 5 5 6 4 3 3 2 4 2 3 9 13 14 10 8 6 6 10 11 13 15 18 21 20 17 14 16 16 16 17 17 17 18 20 21 21 20 19 17 19 19
4 3 4 4 1 3 6 6 6 4 4 5 5 5 5 4 3 2 2 3 4 5 3 4 5 8 8 8 8 9 9 9 5 2 5 5 2 9 6 8 12 15 15 17 17 15 16 20 23 23 22 22 22 20
4 4 4 5 7 7 5 5 3 2 0 2 1 2 2 3 5 8 10 9 9 10 14 12 10 13 9 8 5 7 10 12 13 13 4 5 6 11 18 22 22 20 19 19 20 21 19 18 19 20 20 19 18 17
5 3 3 3 5 3 2 2 2 2 2 2 2 2 3 4 7 11 18 21 19 13 9 7 9 11 10 9 8 2 4 7 8 8 11 17 22 24 25 23 21 22 22 20 19 19 20 19 19 18 17 16 21 19
2 5 6 4 3 3 2 1 1 1 2 1 2 1 3 3 3 3 3 5 7 9 15 14 12 11 11 11 9 8 8 8 9 12 16 18 21 24 23 23 23 26 23 20 19 18 18 19 19 18 18 20 22 21
2 2 2 3 2 1 2 3 2 2 1 2 3 2 2 3 6 3 4 7 6 4 6 8 7 7 5 4 5 6 8 10 11 13 15 16 18 20 20 22 25 22 19 18 18 17 16 17 19 17 16 17 20 20

GFSWCAN_925_spd_027.txt.gz
Wind_Speed
9 10 10 10 10 11 14 14 14 16 16 15 13 13 15 5 7 7 5 2 2 1 5 3 2 2 3 3 2 2 1 1 2 3 3 3 3 5 4 5 6 8 7 4 5 3 7 5 4 5 3 2 3 3
10 10 11 12 14 13 15 11 14 15 16 15 13 13 17 5 7 7 3 2 6 3 5 14 21 21 17 13 3 3 3 2 4 3 1 2 2 2 5 3 2 4 6 5 7 5 4 3 2 4 4 4 4 2
9 11 13 13 16 16 14 13 14 14 16 14 15 12 17 16 6 6 11 8 3 2 7 6 7 11 17 27 26 4 3 2 2 1 3 2 3 3 4 5 4 3 4 3 2 3 6 7 5 3 1 3 3 4
10 11 12 15 16 16 14 15 14 15 16 15 14 14 12 18 10 9 11 6 4 3 3 4 5 8 8 12 23 30 13 1 5 4 2 2 3 3 3 2 3 4 6 5 4 5 3 1 4 2 2 3 5 5
13 13 14 14 15 15 15 14 14 14 16 17 15 10 18 16 15 13 11 12 13 4 3 6 15 15 20 17 17 25 19 8 2 4 2 3 3 3 0 1 3 4 6 4 4 4 2 5 4 3 6 7 7 5
12 14 15 14 15 18 16 12 11 15 16 14 17 18 19 19 10 4 1 2 5 7 2 4 5 4 4 12 19 19 13 3 3 4 3 3 3 3 3 4 4 4 3 3 3 1 4 7 7 2 2 6 5 5
14 13 14 15 15 21 10 9 11 13 15 16 17 19 17 9 4 2 1 2 3 2 1 4 5 4 3 4 4 3 11 4 3 3 3 3 3 4 3 3 4 6 5 2 1 1 4 3 3 7 6 7 5 1
15 16 14 12 12 8 9 9 10 13 14 17 21 19 10 3 2 4 1 2 3 1 1 3 4 4 7 3 4 3 5 4 5 3 2 2 2 2 3 4 4 3 2 0 4 3 5 7 7 7 5 2 3 4
8 7 8 7 10 3 6 9 8 12 14 19 18 8 3 1 1 1 3 4 9 2 1 2 3 3 2 2 1 2 2 4 3 3 3 3 2 4 4 4 5 3 2 2 6 6 6 4 6 6 5 4 5 4
8 4 6 5 4 5 7 6 9 12 15 13 5 2 1 1 7 8 3 1 2 2 2 3 2 3 3 1 0 4 4 2 2 3 3 2 3 1 3 3 3 1 0 1 3 4 4 3 5 6 6 6 6 5
6 5 4 1 4 3 4 5 9 10 9 5 4 1 5 6 2 1 1 2 2 3 3 3 4 3 3 3 2 1 1 2 1 1 1 2 3 3 2 2 1 2 2 4 5 6 6 8 8 8 9 7 8 9
2 9 7 3 4 5 3 4 7 8 8 7 8 6 4 2 1 1 2 2 3 2 2 4 4 3 4 2 2 2 2 1 1 1 1 2 1 1 2 3 3 4 4 4 3 4 6 6 8 6 6 6 8 10
5 7 9 5 5 4 3 3 7 8 13 2 0 2 1 1 2 0 2 2 2 3 3 3 5 3 3 2 1 0 2 2 1 2 3 2 3 2 2 1 2 5 6 5 5 7 8 10 10 8 8 9 3 4
9 8 7 10 7 6 6 3 5 8 3 2 2 5 1 2 2 1 2 2 3 3 7 6 3 2 2 2 1 1 1 1 0 2 4 3 5 5 3 2 3 4 5 5 5 6 7 8 9 10 10 8 6 2
4 7 6 9 9 7 6 3 2 6 2 1 3 2 3 2 3 3 2 3 3 3 5 5 4 3 2 2 1 1 1 3 3 3 2 3 5 4 3 2 3 4 4 4 5 6 8 10 9 8 11 9 7 4
3 5 7 8 10 9 7 6 1 0 3 2 2 2 2 1 3 2 1 3 1 3 2 2 3 3 3 1 2 4 2 4 3 3 2 5 5 5 3 2 1 1 3 4 5 7 7 9 9 8 8 10 8 4
7 3 3 11 12 11 10 2 1 3 3 1 3 2 2 3 4 3 2 2 3 2 2 2 3 2 2 1 2 2 4 3 2 2 2 5 6 6 5 3 2 3 4 6 6 8 10 10 10 12 8 14 10 6
5 4 8 16 17 15 5 2 3 1 4 3 3 3 3 3 3 3 2 1 1 1 1 2 3 2 3 2 3 3 2 0 1 2 2 3 4 6 6 5 4 2 3 4 4 4 6 9 7 7 11 12 9 7
5 8 9 16 16 6 3 1 2 3 6 2 2 2 2 3 3 1 1 2 2 2 2 2 4 3 3 3 3 2 2 2 3 3 3 3 6 6 6 5 4 2 2 1 3 3 3 4 4 9 11 11 9 9
7 7 17 20 15 4 2 0 1 1 3 3 1 1 2 3 2 1 1 2 2 2 2 3 5 3 3 3 3 2 2 4 4 3 2 3 7 8 7 6 4 0 1 1 4 4 6 7 6 12 11 9 10 10
10 15 18 15 3 2 2 2 2 3 2 2 2 0 3 2 2 1 2 2 3 3 4 6 5 4 3 3 4 3 3 5 5 4 4 3 7 10 7 6 4 1 1 2 3 6 6 6 10 11 11 10 10 12
7 18 4 5 2 2 1 3 2 1 1 2 2 2 2 2 2 2 1 1 3 5 5 3 3 4 4 5 5 11 7 12 7 5 6 13 4 2 3 9 6 3 5 7 8 9 9 10 10 11 10 9 8 12
13 9 4 3 2 2 4 3 1 1 2 2 2 3 3 2 3 1 3 4 4 4 4 2 3 3 2 4 5 6 11 16 5 7 9 8 8 9 10 12 8 7 5 9 7 9 11 11 12 10 8 9 11 13
8 7 4 3 5 3 2 1 0 1 1 1 1 4 3 3 2 1 4 3 3 2 2 3 3 1 1 1 2 3 13 16 10 9 10 11 3 8 10 10 9 10 10 12 14 13 11 10 9 9 9 11 13 13
3 5 4 5 1 3 3 1 1 2 4 3 2 4 3 1 1 2 3 3 2 2 2 2 3 4 3 1 1 5 11 16 9 5 14 16 10 5 7 10 12 14 12 14 14 11 7 6 6 8 8 10 13 16
6 6 9 6 3 6 6 5 6 6 3 3 6 2 2 2 1 6 3 3 3 2 2 2 3 2 3 4 2 2 9 17 15 7 10 16 19 13 5 3 3 9 10 9 9 9 9 9 12 13 15 16 16 17
5 7 3 1 3 4 1 1 1 2 4 5 3 3 2 2 6 4 3 2 3 4 4 5 8 5 2 3 12 9 4 13 15 10 7 8 12 16 17 10 7 9 6 7 8 11 13 15 16 17 19 20 18 17
5 4 7 5 3 1 4 3 5 5 4 3 4 4 6 8 5 3 4 3 7 6 5 5 6 10 11 9 6 7 11 12 14 9 7 9 11 13 14 15 16 14 13 13 12 12 13 14 16 18 19 21 23 20
3 4 4 3 1 2 5 7 5 4 3 5 5 4 5 4 3 2 3 5 7 7 6 7 9 11 11 12 11 12 11 13 11 5 4 4 2 8 8 9 9 7 8 13 14 14 16 17 19 20 22 22 22 21
4 4 3 3 6 7 5 7 3 2 2 3 2 3 3 3 8 12 13 13 11 12 19 15 12 14 11 12 8 13 17 17 18 13 4 4 5 4 5 6 11 12 13 14 17 17 15 14 17 18 19 20 19 18
5 3 2 3 5 4 3 2 3 2 2 1 1 3 4 4 9 21 26 31 31 25 17 12 13 15 16 14 11 3 5 14 18 19 19 18 15 13 11 11 12 12 15 17 16 16 16 17 18 19 20 21 22 18
3 8 6 4 4 3 2 1 1 2 2 1 3 0 3 3 5 4 8 12 11 10 17 15 13 12 17 19 13 13 10 7 5 6 7 9 11 11 11 13 13 16 17 19 18 18 18 18 19 19 19 20 20 19
2 2 2 2 2 2 2 3 2 4 2 3 4 4 3 3 7 4 5 9 10 5 6 7 8 8 6 7 10 10 8 7 5 6 8 9 11 14 17 17 16 16 19 20 16 17 17 16 17 18 19 19 19 18

GFSWCAN_925_spd_030.txt.gz
Wind_Speed
7 5 6 7 7 6 8 12 10 12 12 13 16 14 14 7 8 8 8 4 2 2 6 4 2 4 3 3 3 3 2 2 1 5 3 3 4 5 4 4 6 9 7 5 6 4 8 6 5 4 4 1 1 3
7 7 7 6 7 9 11 9 11 12 11 12 13 17 12 13 10 6 4 4 5 4 5 7 14 16 15 8 1 2 3 3 2 4 2 2 3 4 5 4 5 7 6 4 8 5 1 6 1 2 2 4 3 2
6 7 8 8 9 11 11 10 12 11 11 12 11 13 17 11 10 8 10 8 4 3 6 6 5 8 12 24 18 4 3 4 1 4 2 1 5 4 6 6 7 8 7 3 4 8 11 6 7 3 2 2 1 3
6 6 7 8 9 11 10 10 11 11 11 13 14 13 11 12 19 8 9 9 5 2 4 4 4 6 5 13 15 24 15 1 4 3 3 4 4 5 3 0 6 3 9 9 7 6 3 6 7 4 1 4 6 5
8 7 7 7 9 10 11 13 9 9 12 13 13 16 12 18 18 13 10 9 12 4 3 6 17 9 10 13 15 16 19 12 3 3 3 4 3 3 1 1 4 7 6 7 4 4 6 3 6 1 4 5 6 7
8 7 6 7 10 11 13 14 6 8 9 12 12 15 16 17 11 4 1 1 4 7 2 4 4 3 3 6 11 12 10 5 3 3 3 5 2 5 5 4 4 10 6 4 3 5 3 3 4 3 2 6 8 7
9 7 7 8 9 10 11 3 5 8 11 12 13 18 18 11 5 2 2 1 5 7 2 4 5 2 1 3 2 3 6 3 4 3 3 5 4 6 2 4 3 8 8 6 3 2 4 2 1 3 9 11 11 8
7 5 5 7 6 8 6 3 6 6 10 14 15 16 8 3 3 3 4 4 7 2 2 2 4 3 7 2 3 4 3 5 6 4 3 4 2 2 4 5 3 6 6 4 4 1 2 5 7 7 7 7 7 6
7 5 4 3 4 2 1 4 5 8 11 16 15 6 1 0 0 1 5 6 10 2 1 2 3 3 4 3 2 5 5 5 4 4 5 4 3 5 5 6 9 7 3 4 1 4 6 4 6 7 7 8 7 6
7 6 4 3 1 1 4 3 5 9 13 15 3 2 0 2 7 9 1 1 2 2 2 3 2 3 3 2 5 3 4 3 3 5 3 4 3 2 2 4 6 5 4 3 1 2 2 4 5 8 8 8 9 9
6 7 7 4 4 2 1 3 6 9 7 5 4 1 5 6 3 2 2 2 2 3 3 3 4 4 3 4 3 4 2 2 3 3 3 4 3 3 4 5 4 3 1 1 3 5 6 8 9 9 10 10 11 11
6 6 7 3 3 4 1 4 7 8 6 4 5 4 3 2 1 1 2 1 3 2 2 3 4 3 4 4 2 1 1 1 0 2 1 2 2 3 4 3 3 2 1 2 4 4 4 5 6 7 8 8 9 8
4 8 8 6 4 4 3 3 7 10 10 1 2 1 1 1 2 3 5 2 4 4 3 4 6 3 3 2 1 2 2 1 2 0 2 1 3 3 3 3 3 3 2 0 0 2 3 4 6 6 7 8 7 5
9 8 7 8 8 5 4 2 4 9 2 1 2 3 1 1 2 3 2 2 2 3 7 7 4 3 2 2 2 1 0 1 1 2 3 2 6 6 4 3 3 3 2 3 3 4 5 6 6 7 7 7 6 5
8 9 8 7 10 8 4 3 3 6 1 1 1 1 3 2 3 2 2 3 3 4 4 4 4 3 3 3 1 1 2 3 3 3 1 3 7 6 5 4 3 2 2 3 4 5 6 7 6 6 8 8 6 5
8 7 9 8 10 10 5 2 3 2 3 0 1 1 3 1 2 1 2 3 1 3 3 2 3 3 3 2 2 3 2 4 2 2 1 7 8 6 5 4 4 3 1 3 3 5 5 7 7 7 7 9 8 7
9 4 6 9 13 11 7 2 1 3 1 2 3 3 2 3 4 2 2 2 1 2 2 3 3 2 4 3 2 2 3 1 1 1 3 6 8 7 6 4 3 2 2 3 2 4 5 6 6 8 8 12 11 8
4 6 10 16 18 13 5 3 2 1 4 3 2 2 3 3 2 3 3 2 1 1 1 2 3 3 3 3 2 1 2 1 1 1 3 3 5 6 6 4 3 2 1 2 2 2 3 5 6 7 9 11 9 9
4 8 14 14 14 4 2 1 1 3 5 2 3 2 3 4 4 4 2 3 2 0 2 2 4 4 4 3 2 1 1 2 2 2 3 4 6 7 7 6 4 3 2 1 1 2 2 3 2 6 7 8 8 8
7 7 18 16 13 4 1 1 1 2 3 1 1 2 3 3 3 3 2 4 3 2 4 4 6 4 3 2 2 1 1 2 3 3 3 3 5 7 7 7 5 4 3 2 1 1 2 3 3 6 6 6 6 8
10 14 19 15 4 4 1 3 3 3 2 2 0 1 3 2 2 1 2 2 4 3 4 6 7 7 4 4 4 3 3 4 6 4 2 4 8 8 7 7 6 4 3 2 2 2 2 2 4 6 6 6 6 6
7 16 3 7 2 1 1 3 1 1 1 1 1 1 3 3 2 1 2 4 4 4 5 3 4 5 6 7 6 12 10 8 9 5 3 9 5 4 6 10 8 5 6 4 3 3 3 5 6 6 6 6 6 8
11 10 4 3 2 3 2 1 2 1 2 1 1 3 2 2 2 2 3 4 4 4 5 3 5 8 6 10 9 10 10 12 4 7 8 8 6 10 10 12 13 9 5 5 5 5 6 6 6 6 5 5 6 8
9 8 4 4 5 2 2 2 1 1 1 1 2 4 3 2 1 1 4 3 4 2 3 4 3 4 4 4 4 5 10 12 8 9 12 10 3 7 12 14 14 13 12 7 7 8 9 8 5 6 6 6 6 7
4 6 5 5 2 3 5 2 2 2 4 4 4 4 2 1 1 3 3 3 2 2 3 2 2 4 5 3 2 6 7 14 8 5 14 17 9 6 8 12 14 17 13 13 13 10 9 8 7 6 7 7 8 10
5 7 9 8 4 5 5 5 6 7 4 4 6 1 0 1 0 6 3 3 3 2 2 2 2 2 3 5 3 2 4 12 12 6 9 19 20 12 6 4 4 11 14 18 17 12 11 9 8 8 9 10 10 11
6 7 3 2 3 4 2 0 1 2 4 5 2 3 2 3 6 4 3 3 2 3 4 4 5 5 4 4 6 11 7 8 12 8 7 12 19 21 20 11 7 13 9 10 12 12 11 11 11 11 12 11 11 12
4 4 7 5 2 2 4 3 4 5 4 3 4 5 6 7 4 3 4 3 5 7 9 9 9 12 14 13 10 8 9 9 12 8 7 9 11 13 14 15 16 14 12 11 11 12 13 13 13 13 13 15 16 14
4 4 4 3 1 3 6 8 6 4 4 5 5 4 5 4 3 3 5 5 8 10 12 14 16 14 14 14 13 13 13 14 11 6 8 6 2 11 13 15 16 15 13 11 10 10 13 15 16 17 17 18 19 18
3 4 3 4 5 7 5 7 4 2 2 2 2 3 3 3 13 19 17 17 14 14 23 24 21 14 12 10 9 15 20 21 23 15 6 6 5 4 6 8 8 8 9 11 12 12 12 13 14 15 15 16 18 17
5 3 1 4 5 4 2 1 2 1 1 2 1 3 6 4 11 24 29 33 34 28 22 17 18 21 17 14 11 4 7 15 23 24 23 18 14 10 9 10 9 10 11 11 12 13 14 14 14 16 17 19 19 15
4 6 4 5 4 1 2 1 1 2 2 1 3 1 3 3 5 4 12 18 17 12 20 17 13 12 15 17 17 13 12 8 5 7 10 12 11 9 9 8 8 10 12 14 14 14 16 15 16 17 18 19 18 18
2 1 1 2 2 2 2 2 2 3 2 3 4 2 3 3 6 4 6 11 11 8 7 8 9 9 8 6 6 9 7 5 4 3 4 5 6 7 10 11 12 13 13 14 15 17 16 14 15 16 16 17 17 18

GFSWCAN_925_spd_033.txt.gz
Wind_Speed
11 8 7 5 6 5 6 7 9 11 12 12 12 14 10 11 8 6 6 4 3 2 8 5 4 6 6 5 4 5 3 4 2 5 4 3 5 6 4 5 6 9 6 6 7 6 7 8 6 4 6 5 4 2
10 9 8 7 7 7 6 9 8 11 12 11 11 10 15 13 11 2 3 3 4 5 4 10 16 17 16 12 5 3 4 4 4 4 6 3 5 3 8 4 9 6 7 3 7 4 4 6 5 4 2 1 1 1
9 10 10 10 10 9 6 7 6 9 10 12 12 13 15 10 7 13 4 5 4 3 7 5 1 5 9 15 19 3 2 6 4 5 4 3 6 4 6 9 7 8 8 4 4 8 9 6 7 1 3 4 3 1
9 10 9 9 10 10 7 6 7 8 8 11 12 13 14 10 13 13 8 7 4 3 3 3 2 5 5 6 13 21 14 5 6 3 3 4 4 5 8 6 8 5 10 10 9 9 1 8 9 7 6 1 2 3
9 11 9 9 11 9 8 8 9 8 7 10 11 11 14 13 15 9 5 3 5 2 3 6 20 6 1 9 10 11 13 9 5 2 3 3 6 4 3 3 8 7 8 9 5 8 9 2 10 7 4 3 2 5
8 11 8 9 11 9 8 11 11 5 7 11 11 12 15 16 11 3 1 4 2 3 2 4 5 3 1 2 8 9 9 5 5 4 4 4 4 6 6 11 13 10 14 12 9 3 1 7 4 1 3 1 5 8
9 9 9 10 11 10 6 7 4 4 8 11 13 13 17 9 3 2 2 1 2 2 1 4 3 0 1 3 1 3 7 3 3 3 6 6 4 6 5 10 5 9 9 7 4 5 4 4 2 2 3 6 9 11
7 8 8 8 8 8 4 1 4 6 9 11 14 17 8 3 1 0 2 2 1 1 1 3 4 3 6 3 3 3 4 4 5 4 5 8 2 2 5 12 5 5 6 7 6 2 4 2 2 4 5 7 8 9
10 10 8 8 6 5 2 1 3 8 11 15 15 4 1 1 1 1 4 4 5 1 2 2 3 3 4 2 1 4 4 4 4 6 6 5 5 5 6 7 7 9 8 7 6 2 0 3 3 5 6 7 9 8
11 11 9 8 6 4 1 1 4 9 14 12 4 1 1 1 8 9 2 1 1 1 2 3 2 3 2 3 3 2 4 3 4 7 5 5 3 8 2 5 2 5 5 6 4 2 1 1 2 5 7 8 9 10
11 12 8 9 9 6 2 1 5 10 6 5 5 2 4 7 2 1 1 2 2 2 3 3 3 4 2 3 2 4 2 2 3 3 3 3 3 4 7 6 1 2 3 2 2 2 1 3 5 7 8 8 10 11
12 10 10 8 8 6 1 2 6 7 4 5 4 4 3 2 1 2 1 2 2 2 2 3 6 6 3 3 4 3 3 2 2 1 2 2 2 4 5 4 2 2 2 2 2 0 1 3 5 6 6 8 11 12
12 13 12 10 6 7 3 2 4 7 6 3 2 2 2 0 1 1 3 0 3 3 1 5 6 4 3 2 3 2 3 2 2 2 2 1 4 3 4 4 3 2 2 3 3 1 2 3 3 4 6 6 8 9
11 13 13 10 8 6 5 2 4 8 1 2 2 2 2 1 2 2 2 2 2 3 6 7 5 3 3 3 2 3 1 3 2 2 2 2 5 6 4 3 3 4 4 4 4 3 3 4 4 5 6 7 7 7
14 16 13 11 9 8 6 2 3 4 1 1 2 1 2 3 3 3 1 3 2 3 4 5 4 3 3 4 2 2 2 3 3 2 3 1 5 5 5 4 4 3 3 4 3 3 4 5 6 4 8 9 8 8
14 12 14 12 10 10 8 4 2 1 2 1 2 2 3 1 2 2 3 3 1 3 3 2 3 3 4 3 3 3 2 2 2 2 2 3 6 5 5 4 3 3 3 3 2 4 4 5 6 6 5 8 8 8
15 5 8 11 10 13 7 2 0 3 1 2 2 3 4 2 4 2 3 3 1 3 2 2 4 2 5 3 3 2 2 3 4 4 2 1 4 4 4 4 3 2 2 2 1 2 3 4 4 5 6 9 10 9
4 8 10 14 14 11 3 1 2 1 4 3 3 2 2 4 4 3 2 2 2 2 2 2 3 3 4 4 2 1 1 1 1 3 1 2 4 4 4 4 4 2 2 1 0 1 2 4 4 5 7 10 9 8
10 9 14 15 13 3 2 0 1 3 4 2 3 3 3 3 5 7 4 3 2 1 4 3 5 4 4 4 3 2 2 1 2 1 1 2 4 6 5 4 3 2 2 1 1 1 2 2 2 4 6 6 6 7
7 10 14 15 11 3 2 1 0 2 3 2 2 2 2 3 2 2 3 3 3 2 4 5 6 4 4 5 1 2 2 3 1 1 2 4 6 7 7 7 6 4 3 3 3 3 3 3 2 3 4 5 6 6
12 14 16 13 7 3 1 3 3 2 2 2 2 3 3 2 3 2 2 3 5 4 5 7 9 8 8 10 8 6 5 4 5 4 5 2 7 9 7 8 7 6 5 4 3 3 3 4 3 3 4 5 4 5
8 18 5 8 2 2 2 2 0 2 2 1 2 1 3 3 2 2 0 4 5 5 5 6 7 6 6 7 8 10 11 10 10 8 6 4 3 4 5 10 9 6 6 6 5 4 3 3 4 4 5 5 5 6
13 9 4 3 2 4 1 2 2 2 3 1 1 3 3 3 2 0 3 4 5 5 7 7 8 9 8 14 14 15 14 11 6 8 9 9 8 8 7 10 12 9 6 8 8 5 4 4 5 6 5 5 5 6
7 7 5 6 6 2 2 3 1 2 1 2 3 4 3 2 1 3 5 4 4 2 3 6 7 5 5 6 5 5 7 8 9 7 9 8 4 7 10 9 10 14 12 7 8 7 6 5 4 5 5 5 6 6
4 6 4 5 3 4 5 4 3 3 4 6 4 4 1 0 2 4 4 4 2 3 2 2 3 4 4 4 4 7 6 6 7 5 8 14 7 4 6 8 10 14 14 12 12 12 10 8 7 7 6 6 7 9
6 7 7 9 4 5 6 5 6 6 3 4 6 0 1 1 3 6 3 2 2 1 1 2 3 3 3 4 3 3 4 6 6 5 5 13 16 10 5 4 4 9 18 20 17 13 12 12 11 10 10 10 10 11
6 7 3 1 3 3 2 1 1 2 4 5 2 4 3 4 6 4 2 3 3 5 4 4 5 6 5 8 11 10 10 9 8 7 8 8 14 19 17 9 7 12 11 11 14 15 14 12 11 11 11 11 11 11
4 6 8 6 3 2 3 4 5 6 4 4 4 6 4 6 4 2 4 5 8 8 10 12 14 15 16 18 16 14 12 10 10 12 14 16 15 15 18 19 18 16 13 11 11 12 12 12 13 12 12 13 13 13
4 4 5 4 2 4 6 7 5 4 3 5 6 5 5 4 3 3 6 10 11 12 13 13 16 19 19 20 19 19 16 14 7 6 8 7 2 11 15 17 15 15 14 13 11 10 11 11 12 14 15 16 16 14
5 5 4 5 6 7 6 7 4 2 2 2 2 3 3 3 15 23 22 22 15 17 27 25 23 16 14 11 12 15 21 22 23 16 8 8 5 7 8 9 10 12 12 12 11 11 12 12 14 15 15 14 15 14
6 5 3 5 5 3 0 2 1 1 1 2 2 4 7 5 11 24 28 35 34 28 20 18 17 17 14 12 11 6 8 13 19 23 25 21 14 10 9 8 8 9 11 11 12 12 12 12 13 15 15 16 18 16
4 6 4 5 4 1 1 2 1 3 2 2 3 3 3 2 4 3 7 13 12 10 16 15 13 12 12 14 14 14 13 12 9 8 9 14 15 13 12 12 11 10 10 11 12 13 14 15 15 15 16 17 19 19
2 1 1 3 2 3 3 3 2 3 2 3 4 3 3 3 6 4 8 9 11 13 13 12 11 10 9 8 7 5 6 5 4 3 3 3 4 4 5 6 7 10 12 13 13 14 14 15 17 17 16 17 18 18

GFSWCAN_925_spd_036.txt.gz
Wind_Speed
13 10 6 2 2 4 6 8 8 10 12 11 11 11 15 18 12 10 6 7 4 3 6 4 3 4 4 2 3 5 3 2 2 2 2 3 3 4 2 4 6 6 5 3 4 3 6 6 4 1 3 5 5 5
14 11 6 4 3 5 7 10 10 9 10 11 11 11 14 16 10 11 2 5 4 4 4 12 13 16 11 7 3 4 4 3 4 3 3 3 2 2 3 3 6 4 5 4 7 5 3 5 3 4 3 4 3 5
13 10 6 5 5 6 8 10 11 10 10 10 11 11 12 12 10 12 6 8 6 2 5 3 1 5 2 6 10 2 1 4 3 2 3 3 4 2 3 5 5 4 3 3 2 4 4 7 5 5 4 5 5 6
13 9 6 4 4 6 8 12 12 12 11 10 10 10 12 13 12 12 7 9 4 3 2 1 1 2 8 6 5 13 9 6 4 2 2 3 3 3 3 4 2 4 7 5 4 6 1 4 7 8 7 6 4 4
12 9 7 3 4 4 7 11 12 14 10 9 11 10 12 14 15 7 4 3 2 1 3 5 16 0 6 6 6 7 9 4 1 1 3 3 3 4 4 3 4 4 5 4 4 7 6 3 7 7 7 6 5 2
12 10 6 3 3 4 7 10 13 10 6 10 11 11 12 16 9 3 2 5 6 1 2 3 4 2 1 1 4 5 4 3 2 2 3 3 5 0 4 7 10 8 6 8 5 4 7 7 8 5 4 5 3 1
13 10 6 2 2 5 7 8 8 6 9 10 12 12 15 8 3 3 2 3 4 4 1 3 3 1 1 2 1 1 4 1 2 2 3 3 3 1 3 5 7 12 9 7 6 7 4 4 4 6 4 3 3 5
12 10 6 3 1 2 5 7 6 8 9 12 13 13 4 3 4 4 5 4 5 2 1 2 3 2 2 1 2 3 2 2 3 3 3 3 3 5 5 7 8 16 5 8 8 7 5 6 5 4 2 2 4 5
11 9 9 5 2 3 2 5 9 10 12 15 7 2 2 2 2 2 6 6 4 3 2 1 3 3 1 2 1 1 3 3 3 3 3 3 4 5 8 12 3 16 2 5 8 6 3 4 5 3 2 4 4 5
14 12 9 5 4 4 2 5 7 10 12 7 2 2 1 1 8 2 3 0 0 1 0 1 1 3 1 2 2 2 3 3 3 5 3 4 5 11 6 4 6 3 6 5 4 2 2 1 2 4 4 4 4 5
14 14 10 8 8 8 1 4 7 13 8 3 3 1 3 5 1 1 1 1 1 1 2 2 3 4 1 3 3 3 2 2 2 2 2 3 2 1 4 5 4 6 5 4 4 4 5 5 3 3 4 5 6 8
17 16 11 9 7 8 4 3 8 10 9 7 2 2 2 1 1 2 1 1 1 2 1 2 3 4 3 2 3 3 3 2 3 2 3 2 1 1 2 4 4 3 1 2 2 4 5 5 4 2 3 5 6 8
20 16 13 9 8 10 5 1 7 9 8 2 0 1 1 2 4 3 3 3 3 2 1 3 5 3 3 3 4 3 3 3 1 2 2 1 1 1 3 3 3 2 2 5 5 3 5 5 5 6 5 7 9 7
20 17 14 10 7 7 5 1 5 8 3 1 2 4 2 0 2 2 2 2 1 1 4 5 3 2 2 3 2 3 2 2 2 2 2 3 2 2 3 2 3 4 4 4 4 5 6 6 5 7 8 8 9 8
19 18 14 11 8 6 5 2 4 6 3 2 2 3 3 1 0 1 2 0 2 1 2 4 3 2 3 4 3 3 3 2 1 2 2 3 1 1 2 2 4 4 4 4 4 4 5 7 6 5 7 8 8 8
21 16 14 12 9 7 6 4 3 1 2 1 1 1 1 2 1 1 1 2 2 1 1 1 2 3 3 4 3 4 3 1 2 2 3 3 1 3 1 3 4 4 4 4 5 5 5 5 5 5 4 8 8 8
18 4 13 15 11 10 8 1 1 3 2 3 3 2 1 1 3 1 1 1 1 1 1 1 3 3 4 3 3 2 2 3 4 3 1 4 1 2 1 2 3 3 3 4 4 4 4 4 4 4 5 9 8 8
4 10 15 18 16 14 4 2 3 0 3 3 2 0 1 3 1 3 2 3 2 2 2 2 1 3 4 4 4 1 2 2 2 2 2 1 4 0 2 3 3 2 2 2 1 1 2 4 3 4 6 9 7 8
11 14 15 17 16 5 3 2 2 3 3 2 3 1 2 3 3 3 2 1 2 2 1 2 4 4 4 4 4 3 2 1 2 3 3 2 2 7 7 5 4 3 3 3 2 2 2 2 2 3 5 7 8 8
11 13 15 17 11 4 2 2 3 1 3 2 2 2 2 2 1 1 1 2 3 2 4 5 6 4 4 4 2 2 2 2 2 3 4 4 9 10 11 11 9 9 7 6 5 4 4 4 4 3 4 5 5 6
14 14 14 16 3 2 1 3 2 3 2 2 0 1 3 1 2 3 3 3 3 3 4 6 7 7 10 12 12 10 7 6 6 6 6 3 5 12 11 13 11 9 8 7 6 6 6 6 4 4 4 5 5 6
8 18 5 6 2 2 2 4 1 2 2 1 1 0 3 2 2 2 2 3 5 4 5 3 4 2 4 6 6 10 15 15 15 14 16 13 3 2 4 12 13 8 13 13 11 9 7 6 5 5 5 6 6 7
14 8 4 3 2 5 1 3 3 4 2 2 1 2 3 3 3 3 2 4 4 6 8 6 6 8 8 20 20 21 19 17 9 10 12 13 16 16 13 14 18 13 8 16 15 12 10 6 5 6 6 6 6 7
8 5 4 4 5 3 3 3 1 2 1 2 3 4 4 2 1 1 4 4 4 2 4 4 7 3 4 5 2 5 16 11 13 15 16 12 3 10 14 15 15 18 19 12 16 15 12 9 7 6 7 8 8 8
4 5 4 5 4 4 5 4 3 3 4 5 3 4 2 1 1 3 5 6 3 3 3 4 3 3 3 3 3 12 10 9 7 4 12 14 16 7 8 11 12 14 15 17 15 15 14 11 11 10 10 10 9 9
5 7 8 6 2 5 5 5 6 7 3 3 5 2 1 1 1 6 3 3 3 2 3 4 4 2 3 8 4 2 7 7 5 5 11 11 14 12 5 3 2 9 18 20 19 17 16 15 14 13 13 12 10 10
5 6 3 1 3 3 2 2 1 2 4 6 3 3 3 3 6 5 3 2 2 6 9 11 10 9 7 13 17 20 16 13 14 13 13 13 11 14 18 10 7 16 10 13 16 18 19 18 17 15 14 12 12 12
4 4 7 5 2 1 4 3 5 6 4 3 4 5 7 8 5 3 4 3 10 12 14 17 20 23 24 26 28 26 23 19 16 15 17 20 22 21 19 20 23 20 16 13 12 13 15 15 13 13 13 14 13 12
3 2 4 4 2 3 5 7 6 4 4 4 5 4 5 4 3 3 12 13 13 14 17 20 24 24 26 28 27 28 26 21 8 6 10 7 3 12 13 17 19 18 17 13 12 12 12 12 12 12 11 12 13 13
4 3 3 4 6 7 6 7 4 2 2 3 1 3 3 3 15 23 23 23 20 18 26 24 24 20 16 15 14 17 20 21 23 17 8 8 6 9 9 10 13 15 15 14 13 12 10 9 10 11 12 13 13 15
5 3 2 4 5 3 1 2 2 1 1 2 2 3 7 4 11 21 26 29 33 27 21 18 18 18 16 17 13 6 8 12 14 18 20 21 18 11 6 5 6 8 9 10 10 10 10 10 11 12 12 14 15 14
3 6 5 4 4 1 1 2 1 2 2 1 3 2 3 2 4 4 13 21 25 16 18 14 14 12 10 11 13 15 15 15 14 12 11 10 15 14 13 11 9 8 9 9 8 9 10 11 13 14 15 16 17 17
2 2 2 2 3 3 2 3 1 3 2 3 4 5 5 4 7 4 8 18 21 17 15 14 13 12 12 10 8 7 6 4 2 1 1 1 1 2 2 3 3 4 6 8 9 10 12 13 14 15 16 17 18 18

GFSWCAN_925_spd_039.txt.gz
Wind_Speed
22 18 15 11 8 5 1 2 4 6 9 12 12 13 15 16 12 11 5 8 4 1 4 2 4 3 4 3 1 4 2 3 3 1 2 3 2 3 1 4 6 6 5 4 4 3 6 3 3 3 2 3 3 4
22 19 15 11 8 4 1 3 5 5 7 10 11 12 13 14 12 11 2 10 4 3 5 13 14 13 12 1 2 3 2 2 2 2 3 3 3 2 3 2 1 3 6 4 7 5 5 6 3 3 4 3 1 4
23 19 15 11 7 3 1 3 4 6 7 8 10 12 11 13 13 12 8 8 5 2 4 3 2 4 3 2 7 2 1 3 3 1 2 2 4 1 2 5 4 3 5 3 1 2 4 6 4 4 3 4 3 4
23 19 14 10 7 4 2 3 4 6 8 6 10 11 11 13 16 9 5 7 3 1 1 4 1 4 7 5 5 8 3 3 2 1 1 2 3 3 3 4 2 5 4 6 4 5 4 3 6 7 6 6 6 5
23 19 14 10 7 4 2 2 2 6 6 5 9 11 12 13 15 4 5 5 3 2 1 4 12 3 6 3 2 2 3 2 1 1 1 3 3 3 3 3 7 3 5 4 5 7 5 5 7 8 8 7 6 5
23 20 16 12 7 4 1 0 3 5 6 6 9 12 13 15 7 1 1 6 8 6 0 2 3 2 2 0 3 3 3 2 2 2 2 3 3 1 4 4 5 12 7 3 5 5 5 3 5 5 6 7 5 4
23 20 16 12 8 5 3 3 3 2 2 4 8 12 13 5 4 4 2 4 8 5 2 3 4 2 1 2 1 1 3 2 2 2 2 2 2 2 3 9 10 13 9 14 9 7 3 4 4 5 8 5 4 1
23 20 16 12 8 7 5 4 2 3 6 8 10 7 5 6 5 3 6 6 7 3 2 2 3 3 4 2 2 2 2 1 2 2 2 3 1 3 5 6 13 19 11 13 5 4 5 7 7 6 5 3 3 2
22 19 16 12 10 7 7 4 3 5 9 9 7 8 4 3 3 3 8 4 4 4 2 1 2 3 1 2 1 0 1 1 2 3 3 2 2 4 8 9 10 5 4 13 5 6 7 6 6 5 4 4 2 2
22 19 16 14 12 11 7 4 4 6 5 7 5 3 2 3 7 1 0 1 2 2 1 1 1 3 2 1 2 1 2 2 2 4 2 2 4 13 9 7 3 6 7 5 8 3 2 3 4 3 2 1 1 2
21 18 17 15 12 10 8 6 7 5 7 4 3 2 4 5 1 1 2 2 2 2 1 2 2 4 2 2 2 2 2 2 3 3 4 3 2 4 11 5 5 3 6 4 2 3 4 5 4 2 2 2 3 4
21 20 18 16 14 12 9 6 6 7 4 3 5 4 3 2 2 4 2 2 1 2 2 2 3 3 3 2 2 3 3 2 4 4 3 2 2 4 4 5 5 5 4 4 3 3 5 6 5 3 3 4 6 7
24 22 19 16 16 12 9 5 4 6 11 6 4 3 3 2 5 4 2 4 3 2 2 3 3 1 3 2 3 3 3 3 0 2 2 2 5 4 2 2 2 2 2 1 2 4 5 5 6 3 3 5 6 6
25 22 19 16 16 12 9 5 3 2 3 3 3 3 3 3 3 4 4 4 4 1 2 2 3 0 2 2 3 4 3 2 2 2 3 3 7 6 4 3 0 1 2 2 2 4 4 4 4 5 7 7 7 7
24 23 19 16 14 12 8 3 4 3 3 3 3 2 2 3 2 3 0 2 2 1 1 3 3 1 2 3 3 4 3 3 1 5 3 6 7 5 5 4 3 4 3 3 3 4 5 5 4 5 6 7 7 7
25 20 16 16 14 11 7 3 4 3 3 3 3 2 1 3 4 3 0 2 2 1 1 1 3 2 3 2 3 4 4 3 4 5 4 4 6 3 3 5 4 3 3 3 5 6 4 5 4 3 4 8 7 7
24 7 22 20 16 12 8 2 2 4 2 2 2 2 2 2 4 3 2 2 1 2 1 1 2 5 3 3 3 3 2 2 3 4 2 4 5 4 3 3 4 3 2 3 3 4 3 4 2 4 5 8 7 8
4 17 25 23 20 13 4 4 4 2 1 1 0 2 1 2 2 2 2 2 3 2 1 3 2 2 4 4 4 3 2 2 2 2 2 4 3 5 5 6 7 5 1 1 4 6 4 3 3 2 4 6 5 6
20 25 21 20 17 5 3 3 2 2 3 1 2 2 2 3 3 3 2 1 4 3 1 1 3 4 4 4 4 3 3 3 3 3 3 7 10 9 10 11 10 7 5 8 9 7 5 4 4 3 3 4 4 4
18 20 20 18 13 4 3 2 1 2 3 3 1 1 2 3 2 0 0 3 2 2 3 4 6 4 4 5 3 3 3 4 3 5 7 4 12 12 13 13 12 15 15 14 12 8 7 6 6 6 4 3 4 4
20 16 16 14 2 4 2 3 2 3 2 2 2 2 3 2 2 1 2 2 2 3 4 6 7 8 11 14 16 15 13 7 5 5 8 9 10 13 14 16 17 15 12 11 8 10 11 11 7 5 5 5 4 4
8 17 5 4 3 2 1 2 2 2 2 2 1 1 1 2 3 2 1 4 4 5 4 4 4 6 5 6 8 13 20 20 18 15 18 17 8 4 6 14 12 9 12 14 16 13 12 10 8 7 6 5 4 5
14 8 3 3 2 3 2 3 3 3 2 2 2 2 3 2 3 1 2 4 5 6 11 8 9 14 12 20 20 19 13 12 8 10 11 12 15 18 18 19 17 14 8 15 21 18 16 11 10 8 7 6 6 6
8 3 4 3 4 2 3 2 1 1 1 1 2 4 4 3 1 1 4 4 4 4 5 8 11 2 5 6 2 7 10 9 13 18 17 13 6 12 16 19 18 20 21 19 12 19 17 15 12 10 9 9 9 9
5 4 3 5 2 3 3 2 2 3 4 4 3 4 3 2 0 3 5 4 3 3 4 4 4 4 3 3 4 9 10 11 11 5 20 15 15 16 15 15 16 18 16 16 17 17 20 18 17 15 14 13 13 12
4 5 7 6 2 5 6 5 6 6 3 2 6 2 2 2 1 6 3 3 2 2 2 2 2 2 4 11 4 4 17 14 11 8 21 19 15 10 5 4 4 12 15 20 21 21 20 19 19 18 18 16 13 13
4 6 4 2 3 3 2 2 1 3 4 6 3 2 3 2 6 5 3 3 3 8 8 15 16 12 11 16 22 25 25 23 21 21 25 24 22 19 18 11 8 15 10 13 19 22 23 22 21 20 20 17 16 15
4 5 8 5 1 0 4 3 5 7 5 3 4 4 7 8 6 3 4 4 12 12 15 19 21 24 29 32 35 33 33 30 25 22 23 27 29 28 28 27 27 23 19 14 14 16 18 19 18 17 17 17 13 11
4 2 4 4 2 2 6 7 6 5 4 5 6 5 5 4 4 4 17 25 23 20 20 21 29 27 25 25 25 25 26 25 11 10 12 9 7 13 15 16 17 19 20 19 17 17 16 15 14 13 12 10 9 8
3 3 3 4 6 8 6 7 4 2 2 4 2 3 4 4 17 23 24 25 23 20 26 25 26 21 18 16 17 21 22 18 19 16 8 8 6 9 9 9 11 12 14 14 14 13 7 9 8 8 8 9 10 11
4 3 2 4 5 4 3 2 3 2 2 1 1 3 9 5 14 25 28 30 33 32 22 19 20 18 16 17 14 7 7 9 5 10 14 19 21 21 17 12 7 5 8 11 12 12 13 12 12 12 12 12 12 11
2 6 5 4 4 3 2 1 1 2 2 1 3 0 3 3 4 4 11 19 25 16 23 19 19 16 16 15 16 16 16 18 17 15 15 15 14 10 9 10 9 8 7 7 7 8 9 9 9 10 11 13 13 13
2 2 2 1 3 4 2 2 3 4 2 3 4 4 4 4 7 4 7 15 22 24 22 19 16 14 14 13 11 8 6 5 1 1 3 4 4 2 0 1 3 3 4 5 5 6 7 8 10 11 11 12 13 15

GFSWCAN_925_spd_042.txt.gz
Wind_Speed
32 27 23 21 17 13 9 5 2 1 5 8 10 9 12 13 12 11 5 11 5 1 4 3 4 3 4 3 2 5 2 1 3 1 1 2 1 3 1 4 6 6 5 4 3 3 7 3 2 4 4 3 3 1
32 28 24 22 17 14 11 7 3 2 2 6 8 8 10 12 12 10 4 6 4 4 3 8 7 6 7 4 1 3 2 3 3 2 2 2 2 1 1 3 1 2 6 4 7 5 5 5 5 4 3 2 2 2
33 30 26 22 18 15 11 7 5 3 2 4 6 7 8 11 14 10 4 6 3 2 3 4 3 6 4 2 3 2 1 3 2 2 1 2 4 3 2 4 3 3 3 3 2 4 7 6 5 4 4 4 1 2
33 29 26 22 17 14 11 7 5 4 4 4 5 6 8 10 12 6 4 5 2 4 2 3 6 4 6 3 4 6 1 3 2 2 1 2 2 2 3 3 2 4 1 3 5 5 6 7 7 6 3 3 3 3
34 30 25 21 18 15 11 7 6 5 4 4 3 6 9 10 6 7 11 10 7 3 2 2 7 3 4 2 0 2 3 2 1 2 1 2 2 3 3 2 8 4 6 4 5 6 5 7 6 5 7 7 6 6
35 29 25 22 19 15 11 8 7 7 5 2 3 6 9 7 2 3 1 5 8 3 2 2 2 3 2 1 2 2 2 2 1 1 2 3 3 1 2 3 6 6 9 4 4 9 8 9 3 5 7 6 5 5
35 30 26 22 19 15 11 10 10 7 3 1 4 6 5 7 5 5 1 4 8 0 2 2 2 2 1 1 0 1 2 1 2 2 2 2 2 2 2 3 6 10 16 14 8 12 6 5 5 6 8 7 7 4
34 30 26 22 19 16 13 12 10 6 2 2 4 10 10 8 8 3 10 8 7 2 2 2 3 2 2 1 0 2 1 1 1 2 2 2 2 1 4 10 10 9 10 14 5 11 14 5 6 5 6 5 4 2
33 30 26 22 20 17 14 12 9 5 3 6 12 11 4 2 3 1 5 5 7 3 2 2 1 3 2 1 1 2 1 2 1 2 2 2 2 3 7 9 11 9 10 2 6 10 13 5 6 4 5 5 4 1
33 29 25 23 19 17 14 11 7 5 8 10 4 2 2 2 3 3 1 2 1 2 2 2 1 3 2 1 2 1 2 2 2 3 2 2 3 8 8 10 10 11 5 3 4 8 6 8 2 1 3 3 3 0
33 29 26 23 20 17 14 10 8 11 11 3 3 1 1 2 0 3 3 3 3 4 0 1 2 4 3 2 2 1 1 2 2 2 2 2 2 4 7 7 8 7 7 3 3 2 5 7 4 2 3 3 3 3
32 29 27 24 21 17 14 11 7 8 5 7 10 6 2 2 3 5 2 3 2 2 3 3 3 2 3 1 2 2 2 2 4 4 2 1 4 10 10 9 7 9 8 8 6 2 3 2 3 3 3 3 2 2
31 30 28 25 22 17 13 10 7 13 17 7 5 4 3 3 6 5 2 4 3 3 3 3 4 2 3 2 3 3 3 3 4 3 2 2 10 10 9 9 6 7 8 6 4 3 4 3 4 4 3 4 3 5
32 30 28 25 23 18 13 9 10 10 4 3 3 4 3 3 1 3 4 4 4 1 2 2 3 1 2 2 2 3 3 3 2 5 3 5 11 11 8 8 7 6 5 5 5 5 5 4 4 4 4 5 4 6
33 30 26 24 22 18 13 8 7 5 4 3 3 1 1 3 1 1 2 2 2 2 2 3 3 0 2 3 2 3 3 2 5 1 3 5 9 8 7 5 7 6 5 4 4 4 5 5 4 3 5 5 5 6
33 27 23 25 20 16 11 6 2 2 4 3 4 3 2 2 3 2 0 2 2 1 1 1 1 3 3 3 3 4 3 3 3 3 4 5 7 7 5 4 4 8 6 4 4 3 3 3 4 4 3 5 5 6
26 7 27 24 20 16 10 3 2 4 3 3 0 0 2 1 3 3 3 3 3 2 1 2 2 6 3 3 3 3 3 3 3 3 3 4 5 7 6 5 5 6 6 5 6 5 5 6 7 6 3 5 3 4
5 24 31 26 23 15 4 3 4 3 2 1 2 2 2 2 2 3 2 2 2 2 2 3 2 2 4 4 4 3 3 3 4 4 3 6 6 12 12 8 10 11 8 9 10 9 8 9 9 8 5 4 4 4
25 33 30 25 15 5 4 3 3 3 3 2 1 2 1 3 4 2 1 3 3 4 3 1 4 4 4 4 4 4 3 3 4 7 6 13 16 15 16 16 15 14 13 13 11 11 12 12 11 8 6 4 4 4
27 27 26 21 7 4 3 2 2 2 2 2 2 0 2 2 2 1 2 3 3 2 2 4 6 4 4 4 4 3 3 3 3 8 9 5 12 15 15 14 12 15 14 13 15 14 13 13 12 10 8 6 6 5
27 22 21 13 4 5 3 2 1 1 2 1 1 1 3 2 2 1 2 2 2 3 4 6 5 6 11 14 15 13 11 9 5 4 7 8 14 15 16 18 21 15 11 9 7 11 14 13 15 9 9 9 8 7
11 16 6 4 3 3 2 3 4 2 2 1 1 1 1 2 3 2 2 2 4 5 5 4 5 7 6 5 10 11 16 17 17 15 16 15 4 6 7 13 12 8 11 12 12 12 15 18 13 12 11 9 7 7
17 8 4 3 3 2 2 2 2 2 1 2 2 2 2 2 3 2 3 3 4 7 9 8 12 18 15 19 17 20 14 12 8 11 15 15 17 19 16 18 17 13 9 16 18 19 20 18 15 14 11 9 8 8
11 3 4 4 3 3 2 1 1 1 1 0 2 4 4 3 1 2 4 4 4 3 4 8 10 4 4 7 3 9 14 11 14 17 20 15 8 14 16 19 21 18 19 20 16 15 15 17 16 15 14 13 11 11
5 2 5 1 1 4 2 2 2 3 3 2 3 4 3 1 1 1 4 4 2 3 2 5 2 1 3 3 5 15 23 13 12 7 20 18 19 18 17 17 17 19 15 15 18 19 17 14 19 19 18 16 15 15
3 4 6 6 3 5 6 5 5 6 3 4 6 1 2 2 0 7 4 3 3 3 3 3 3 2 3 10 5 8 20 20 15 11 23 21 22 15 6 4 7 14 12 15 18 17 17 16 19 20 21 20 16 15
5 5 3 3 3 4 2 2 2 3 4 6 3 3 3 3 6 5 3 4 3 8 7 9 10 11 9 15 20 27 31 29 27 25 29 29 27 26 23 14 11 18 13 11 12 16 19 18 19 21 23 21 20 19
4 5 7 5 3 1 5 3 5 7 5 3 4 4 7 8 6 3 5 5 11 17 19 22 23 25 27 31 33 30 31 29 26 25 27 28 27 24 26 27 28 27 25 23 19 17 18 19 20 19 20 21 20 16
4 2 4 5 2 2 5 7 6 4 4 5 5 4 5 4 4 4 13 17 17 19 21 23 30 25 25 23 23 24 23 22 12 8 11 10 4 9 11 13 16 17 15 17 17 16 15 15 15 16 15 14 12 10
4 3 3 3 6 7 5 7 4 3 3 4 2 3 4 4 15 21 22 24 24 21 29 25 24 21 19 16 18 22 21 16 16 14 7 7 6 11 16 21 23 20 14 9 12 13 9 8 8 9 9 10 10 9
4 3 2 3 5 4 3 3 4 2 1 2 1 3 9 6 13 24 28 32 33 27 22 20 20 22 18 18 13 8 9 9 3 6 11 16 17 18 18 16 12 10 8 6 7 10 13 11 11 11 10 10 10 9
2 6 5 3 4 3 3 1 1 2 2 1 3 1 3 3 4 4 8 12 19 18 26 23 19 20 18 15 15 15 17 19 17 14 11 11 12 12 9 7 8 8 7 6 6 7 8 9 9 9 9 10 10 11
2 2 2 1 3 4 2 2 3 4 2 2 4 4 4 4 7 4 6 12 19 25 27 23 19 19 16 13 12 9 7 6 4 4 4 7 7 7 4 3 1 1 2 2 3 4 4 6 7 8 9 10 11 11

GFSWCAN_925_spd_045.txt.gz
Wind_Speed
43 39 33 32 27 23 18 14 10 7 6 7 8 8 10 12 13 8 6 10 5 2 3 4 4 2 3 2 2 4 1 3 4 3 1 1 1 2 1 2 4 6 4 3 3 3 7 3 1 4 5 5 4 5
45 39 35 32 28 24 20 15 11 10 6 6 6 6 7 10 13 5 4 7 5 5 2 2 3 5 3 2 2 3 1 1 2 2 3 2 2 2 0 2 1 2 5 4 7 5 5 4 6 5 3 4 5 5
44 39 37 32 29 25 21 16 13 12 9 8 6 6 6 9 11 6 5 8 4 3 3 4 3 5 4 0 1 2 1 1 2 1 0 1 2 1 2 4 3 3 1 3 1 4 7 7 6 6 3 4 4 3
46 41 38 33 30 26 22 18 15 12 10 9 7 5 5 9 8 6 8 9 5 4 3 3 5 2 4 2 1 2 3 3 2 2 2 1 2 3 2 4 2 3 3 2 6 7 8 7 6 7 7 4 2 1
46 42 38 35 30 26 22 18 16 13 13 10 6 5 5 7 9 13 15 14 12 3 3 2 6 2 3 2 2 2 3 2 0 2 1 2 2 3 2 3 3 2 3 2 7 4 4 8 11 13 8 6 6 6
46 42 38 34 30 26 22 19 16 15 13 9 5 4 5 8 9 5 2 10 14 6 2 1 3 2 1 1 1 1 3 2 1 1 1 1 2 0 1 2 5 3 3 1 4 11 9 13 16 6 7 6 5 5
47 42 38 33 29 26 22 19 18 16 12 7 5 10 12 9 6 6 4 3 10 4 2 3 3 2 2 2 2 1 2 1 1 0 0 0 2 1 1 3 5 7 9 12 10 9 7 3 6 20 11 4 6 6
47 42 37 33 30 26 23 21 18 15 11 7 14 17 17 12 9 7 11 10 5 4 4 2 3 3 4 2 0 1 1 1 0 0 0 1 1 1 3 7 12 13 14 15 6 4 5 8 12 12 4 3 4 3
45 41 36 33 29 26 24 21 18 14 13 18 18 15 8 4 3 3 3 6 8 6 2 3 2 3 5 2 1 1 1 0 1 1 2 2 1 1 6 12 13 13 9 15 12 9 8 8 11 8 5 1 2 3
44 40 37 33 29 27 25 22 18 16 22 20 8 3 2 2 5 4 2 2 3 2 3 2 1 3 3 3 3 1 2 1 1 2 2 1 2 5 5 11 11 10 10 12 11 10 6 7 8 6 2 2 2 0
43 40 36 33 31 28 25 22 20 23 19 5 3 2 5 5 3 3 2 3 2 3 1 1 2 3 2 3 3 1 2 2 1 2 2 1 1 6 9 11 11 8 10 11 12 10 7 7 8 5 4 5 2 1
42 38 35 33 30 26 23 20 25 14 9 8 13 9 4 3 3 5 1 3 3 2 2 1 2 2 3 2 3 2 2 1 3 4 2 2 4 6 7 10 11 11 10 10 13 8 8 7 8 5 1 2 3 3
41 39 36 32 30 26 22 18 18 12 23 9 4 4 3 3 6 5 0 4 1 1 1 3 3 2 3 2 3 3 3 2 3 2 2 4 3 7 7 6 9 11 10 10 10 12 11 8 7 9 7 8 7 6
40 38 34 32 29 24 20 16 23 19 3 3 4 4 3 3 1 3 3 4 3 2 1 1 2 1 1 2 2 3 3 1 2 2 3 2 6 8 8 4 6 8 7 7 7 10 10 10 7 7 9 9 9 8
40 37 34 30 26 22 19 19 13 4 3 3 3 3 2 3 1 1 1 2 2 2 3 2 1 0 1 2 2 3 3 3 3 4 3 3 5 6 6 6 5 6 6 5 7 5 7 9 9 9 9 9 8 7
40 35 23 30 25 21 18 15 6 3 4 3 4 4 1 3 3 1 2 2 2 2 2 2 1 1 2 2 3 4 3 4 4 3 3 4 6 6 6 6 6 8 8 7 5 5 4 7 8 11 11 8 7 7
32 8 32 30 25 21 14 4 3 4 4 3 1 1 3 2 3 3 3 3 6 2 2 3 2 6 1 2 3 4 4 3 3 4 3 4 6 10 8 10 12 11 9 9 9 8 8 6 6 7 6 9 9 7
10 33 38 33 27 16 5 6 4 3 4 2 3 3 2 2 3 2 3 2 3 2 3 3 3 2 4 5 4 4 4 3 4 5 4 7 9 15 15 13 16 14 12 12 13 13 12 9 6 8 11 12 11 8
37 39 33 30 15 6 4 4 4 3 2 2 0 1 1 1 1 3 3 5 3 3 4 1 2 4 4 4 4 4 3 3 3 5 5 14 19 17 18 20 21 16 15 14 13 13 14 15 13 13 13 10 11 9
37 34 31 16 4 5 4 2 2 3 2 2 2 0 1 1 1 1 2 2 2 3 2 4 5 4 5 5 4 3 3 3 2 5 9 7 12 13 16 17 15 17 17 15 15 15 13 14 17 17 15 15 12 11
30 25 20 10 5 8 4 2 2 1 2 1 1 1 2 2 2 1 1 1 1 3 4 5 5 7 11 14 15 12 11 10 5 5 6 7 14 15 17 21 20 16 11 12 10 11 14 13 16 14 13 15 14 12
19 19 11 7 5 4 4 5 4 2 2 0 1 2 2 1 2 2 2 3 4 4 5 3 3 5 7 6 9 10 14 13 17 16 17 17 5 5 9 14 12 9 12 14 14 13 14 18 14 12 15 15 11 10
20 14 4 4 4 4 1 1 3 1 2 1 2 3 2 1 2 3 3 3 4 6 9 6 11 14 12 17 17 19 18 17 12 14 17 16 16 19 21 21 19 14 11 18 16 19 20 19 15 16 15 14 12 11
13 4 4 3 3 3 1 1 2 3 2 0 1 4 3 2 0 1 4 4 4 3 3 6 9 4 6 5 2 9 7 4 11 20 25 18 12 16 19 23 25 24 22 25 23 20 20 19 15 15 17 18 16 14
6 2 5 4 2 5 3 2 2 2 3 2 3 4 2 1 0 3 4 4 2 3 3 3 3 3 3 3 6 15 17 13 12 10 20 18 22 23 18 21 25 27 20 21 22 19 20 19 16 16 19 19 18 17
4 2 4 5 2 5 5 5 5 6 3 3 5 2 2 2 0 6 3 3 3 3 3 4 4 3 3 11 4 7 19 23 17 12 23 18 19 16 8 8 9 20 16 14 15 17 17 16 15 16 19 20 17 16
4 4 2 1 3 4 3 3 2 3 4 6 3 3 2 1 5 4 3 4 3 8 12 18 19 14 11 18 26 31 30 27 24 25 30 31 30 29 25 17 13 21 21 19 18 18 17 17 16 17 19 19 20 20
3 4 7 6 3 1 5 3 5 6 4 3 4 4 7 8 5 3 5 5 11 15 19 23 27 29 30 33 33 32 32 29 26 26 28 28 23 15 16 18 18 19 19 20 21 22 22 20 18 17 17 19 19 16
2 2 4 4 3 1 4 5 6 4 4 5 6 5 5 4 4 5 11 17 21 21 21 21 25 23 25 27 26 26 25 23 13 8 11 8 4 9 6 8 14 19 20 18 15 14 18 18 17 16 15 14 13 12
3 2 4 4 6 6 5 6 4 3 3 4 2 3 3 4 14 19 23 28 26 22 28 25 25 22 20 17 17 21 22 16 15 15 5 7 7 14 21 21 18 19 17 15 13 8 7 9 8 8 7 9 8 7
3 3 3 2 5 4 3 2 3 2 1 1 1 3 7 5 15 25 30 33 33 29 22 21 22 24 20 20 15 8 8 10 8 8 13 18 19 19 19 19 15 11 10 8 5 5 7 10 8 8 7 6 6 5
2 4 5 4 4 3 2 2 1 0 2 1 3 1 3 3 4 4 9 15 19 19 26 23 20 22 20 15 15 15 16 17 14 9 4 5 8 11 11 9 8 8 7 7 5 4 5 6 7 6 7 7 7 7
2 2 2 1 3 4 2 2 4 5 2 2 4 3 3 4 7 4 8 16 22 24 26 24 18 16 17 15 13 12 11 8 6 5 5 6 7 8 9 10 9 7 6 4 3 2 2 2 2 3 4 5 6 7

GFSWCAN_925_spd_048.txt.gz
Wind_Speed
49 45 43 39 35 30 26 22 17 13 10 8 6 8 10 11 8 8 10 13 4 3 2 5 4 4 3 3 2 5 2 3 4 3 2 1 1 1 2 2 4 6 4 4 1 2 6 3 1 2 5 4 4 5
50 48 45 40 37 31 26 23 18 14 11 7 6 6 8 9 8 8 6 10 10 7 3 2 6 7 0 0 2 1 3 2 1 1 2 1 2 2 1 2 1 2 4 1 6 5 3 3 5 6 3 5 6 5
53 51 45 41 37 32 26 23 19 15 12 10 8 6 7 8 10 15 13 9 6 4 3 4 4 8 6 5 5 3 2 1 2 2 2 0 1 1 1 3 3 2 2 2 3 3 5 8 5 4 8 11 14 7
56 51 45 42 38 32 28 23 20 17 14 11 9 7 6 8 11 15 19 10 7 5 4 2 5 4 7 6 4 2 1 3 3 2 1 1 1 2 1 2 2 3 5 4 5 5 12 3 8 9 18 13 14 9
56 50 47 43 39 33 29 24 21 18 16 12 10 9 7 12 17 20 23 17 9 3 3 2 1 4 5 5 6 3 2 2 2 2 2 0 0 2 1 1 2 2 2 3 4 4 4 9 12 19 16 9 12 11
59 52 47 44 40 34 29 24 21 19 18 13 10 9 12 17 13 0 3 10 9 4 3 2 2 2 4 4 4 5 4 2 2 2 1 1 1 1 2 1 3 2 4 3 6 9 14 18 16 13 10 16 14 10
59 53 49 44 39 34 29 26 23 21 17 13 10 14 14 12 4 3 4 3 6 5 3 2 3 4 5 3 3 3 4 1 1 2 2 2 2 2 1 2 4 9 10 15 14 9 7 4 7 13 12 19 20 11
60 53 48 44 39 34 30 27 24 22 18 15 16 19 20 19 11 9 13 9 6 8 5 3 3 2 6 2 2 2 1 1 2 1 1 1 1 1 2 6 10 14 14 12 8 10 13 14 12 12 17 14 8 5
57 53 49 44 39 35 31 29 26 22 20 24 22 16 5 4 3 5 7 9 12 5 3 3 1 3 5 2 1 2 0 1 0 1 0 1 2 2 6 12 10 11 9 12 14 12 12 13 14 13 14 10 7 2
56 53 48 43 40 35 32 30 27 24 27 25 11 2 2 3 9 6 2 3 4 3 3 2 2 2 1 2 2 1 1 1 1 1 2 1 3 5 8 10 9 10 12 12 12 12 13 13 12 12 13 8 3 3
54 52 47 43 39 36 34 31 28 31 24 5 3 2 7 7 3 4 3 4 2 3 1 2 3 1 1 2 2 1 1 1 2 2 1 2 2 2 4 8 9 8 12 12 10 10 10 9 9 9 11 5 5 4
55 50 46 42 39 37 34 31 36 18 11 9 12 10 5 3 3 5 1 3 2 3 1 2 1 2 2 1 2 1 1 0 2 3 1 2 3 3 7 9 12 10 10 9 14 10 11 11 10 9 7 7 9 8
53 48 45 41 38 36 33 33 32 12 23 11 4 4 3 3 6 4 2 3 1 2 1 1 1 1 1 0 2 1 3 2 3 2 3 3 2 5 5 6 9 13 12 12 11 12 11 10 11 9 9 11 11 8
50 46 42 39 37 34 31 32 22 24 3 2 4 4 3 3 2 4 4 4 3 3 3 2 0 1 0 2 2 2 3 1 2 1 4 2 4 5 5 5 7 11 8 8 10 10 10 9 8 10 9 10 12 10
47 43 40 37 34 31 30 27 24 7 2 3 3 3 2 2 3 1 2 1 2 3 2 2 2 1 1 1 2 2 2 3 5 4 3 4 5 5 5 6 7 8 8 7 12 9 9 10 8 7 9 13 11 11
46 41 27 36 31 30 34 27 10 3 3 3 4 5 1 3 3 1 1 2 2 2 2 2 1 1 2 2 3 5 3 6 4 3 3 3 6 7 7 9 9 13 13 14 14 13 11 11 11 11 10 11 10 9
35 14 39 35 34 32 26 7 3 4 3 4 1 2 3 2 4 3 4 2 8 3 2 2 2 7 1 2 4 4 5 3 3 3 2 4 6 7 8 11 12 13 14 15 16 15 15 14 13 12 8 9 11 12
18 43 43 40 36 22 5 4 4 3 4 1 3 3 2 2 4 2 3 3 3 3 3 4 3 3 4 4 3 3 4 3 4 3 4 7 8 14 12 10 13 14 16 18 18 17 15 14 11 11 12 12 12 14
47 47 40 35 16 6 3 4 4 3 2 2 2 1 2 2 1 3 3 5 3 3 4 2 1 3 4 4 4 4 3 2 3 3 4 14 15 15 17 17 19 18 17 17 17 15 16 17 17 15 17 15 13 14
44 41 33 15 4 5 4 2 2 4 3 2 2 2 2 2 1 2 2 1 2 2 1 3 5 3 4 4 3 3 3 3 2 4 7 5 9 11 13 16 15 18 18 19 18 17 16 15 15 18 19 17 15 15
35 28 19 8 6 9 3 1 3 2 3 3 1 1 1 2 3 2 0 1 2 3 4 4 4 5 8 12 16 15 14 8 5 5 5 7 12 15 16 20 20 15 11 12 10 15 16 15 17 18 17 14 17 19
23 23 8 7 6 4 3 5 4 2 3 2 2 1 2 1 0 1 1 2 3 4 4 4 3 2 3 6 8 10 18 17 15 15 15 16 5 3 8 13 13 11 14 15 15 15 18 18 18 17 16 16 13 15
26 14 6 4 5 5 2 1 4 3 3 1 2 3 2 1 2 3 2 3 4 6 8 6 8 9 10 18 16 16 12 15 11 12 13 14 16 19 19 20 18 15 12 20 20 22 21 20 17 14 16 15 13 15
12 5 4 3 4 3 0 2 2 3 2 2 2 1 2 2 1 1 3 3 3 3 3 6 6 3 4 6 3 8 12 11 15 15 17 16 8 13 16 22 24 26 23 25 27 24 22 23 18 16 14 16 17 17
6 4 5 4 2 4 3 2 2 2 3 3 2 3 2 1 1 2 3 3 2 3 3 3 4 3 3 3 7 15 14 13 13 7 19 19 21 22 20 20 23 26 21 20 22 21 22 18 16 16 16 17 18 20
5 1 4 4 1 4 4 4 5 4 3 2 5 1 1 2 1 5 3 3 3 3 3 3 4 3 4 13 6 6 18 20 17 14 25 22 19 16 8 9 11 20 16 14 17 22 21 21 17 14 15 16 16 18
5 3 1 1 3 4 4 4 3 3 4 6 3 4 3 3 6 4 3 5 3 10 9 10 14 15 13 17 22 26 28 30 26 25 30 30 30 29 24 19 15 17 17 20 20 22 25 22 20 18 16 16 16 18
3 3 7 4 3 2 5 3 5 7 4 3 5 4 7 7 5 3 5 5 13 15 20 22 22 25 27 30 32 31 33 31 29 28 29 25 18 12 15 20 19 16 16 17 19 20 21 22 21 21 18 17 17 13
2 2 4 4 2 2 4 5 5 4 4 5 6 5 5 4 4 4 6 10 15 22 23 21 25 20 23 25 25 25 24 22 12 7 9 8 6 13 8 10 18 23 22 21 22 19 19 18 18 17 16 14 12 10
2 1 4 3 5 5 4 5 3 2 2 3 2 2 3 3 11 18 18 20 24 23 27 24 25 20 19 16 18 23 22 18 15 15 5 7 7 17 26 23 22 21 18 16 17 17 10 8 8 8 6 6 7 7
3 3 3 2 4 3 2 2 3 1 2 1 1 3 4 4 14 23 26 32 34 29 22 20 21 23 20 19 16 10 10 12 10 11 13 17 19 13 14 15 14 13 12 12 12 11 9 5 5 6 5 4 3 3
2 3 4 3 3 2 2 2 1 0 3 2 3 2 4 3 4 3 9 17 16 15 23 20 20 22 21 18 16 16 17 20 17 16 13 8 6 9 10 11 14 12 11 9 7 6 6 4 4 3 3 3 3 4
2 2 2 1 3 5 3 3 4 5 2 2 3 2 3 3 6 4 6 9 12 17 20 22 22 22 23 21 17 14 13 12 10 7 8 9 10 11 12 12 11 10 9 8 7 6 5 4 3 2 2 3 4 6

GFSWCAN_925_spd_051.txt.gz
Wind_Speed
60 59 52 48 43 38 31 27 22 19 16 13 11 7 6 6 7 6 11 8 5 3 1 4 3 3 2 3 1 3 1 3 4 3 2 1 1 1 2 1 3 5 4 3 1 3 4 5 2 3 4 6 7 10
63 58 54 48 44 39 35 29 24 20 16 13 10 7 6 7 6 8 7 14 15 8 4 4 10 8 4 1 2 2 3 3 1 1 2 2 2 3 1 1 3 0 2 1 6 4 1 5 4 4 2 4 6 9
63 58 53 50 47 41 36 31 26 21 16 14 12 8 6 8 5 14 17 19 17 4 4 4 3 6 7 2 3 3 2 1 3 1 2 1 1 2 1 2 3 2 4 1 5 3 8 5 2 4 3 8 13 9
62 59 56 51 48 43 37 31 26 22 18 15 12 9 9 11 9 18 10 9 8 6 4 2 4 4 6 5 5 5 7 3 4 2 2 2 2 2 1 1 2 2 5 5 5 5 14 2 16 13 18 14 9 14
65 60 57 54 48 43 37 32 27 23 19 16 13 10 11 15 18 20 17 8 6 3 4 3 2 4 4 6 8 6 6 3 3 2 2 1 0 2 1 1 1 2 2 1 4 7 9 14 14 19 15 13 13 13
67 64 59 54 50 44 38 33 29 24 20 17 14 11 15 16 6 3 3 8 5 5 4 3 1 2 4 5 8 8 5 3 2 2 1 1 1 2 1 0 2 2 2 6 5 11 15 17 16 16 9 15 14 14
66 64 59 57 51 44 38 34 29 24 21 17 13 14 16 11 1 4 2 3 5 4 3 3 2 3 4 2 2 3 4 2 2 1 3 2 3 2 1 1 2 6 9 12 10 8 11 6 10 17 16 19 22 25
64 64 61 57 51 44 39 34 29 25 21 16 18 18 13 15 9 5 9 5 6 6 4 3 2 3 7 2 2 3 2 2 4 2 1 1 1 1 2 4 6 11 9 10 7 11 14 18 18 13 17 15 16 15
64 59 60 56 50 44 40 35 30 26 22 23 23 24 7 2 3 4 7 8 8 2 3 3 3 2 5 2 1 1 1 3 1 1 3 2 2 3 4 4 9 9 5 10 11 11 11 14 15 14 12 13 13 10
63 57 59 57 50 45 40 36 32 29 31 31 15 3 2 3 9 4 1 3 4 3 3 3 2 1 2 2 2 0 0 1 1 1 1 1 2 4 4 5 5 5 7 8 11 10 13 13 13 15 12 12 12 6
65 56 56 55 49 45 41 39 35 36 30 7 3 2 7 7 1 4 3 4 3 4 2 2 3 1 1 2 1 1 1 1 2 3 3 2 3 3 5 5 4 4 7 7 7 9 11 11 10 11 11 11 12 13
65 60 57 52 49 45 43 41 43 20 13 10 14 10 5 3 3 6 1 3 3 3 0 3 2 2 1 1 1 2 2 2 4 3 2 2 3 5 4 4 6 7 7 7 10 9 11 13 13 10 10 10 12 14
64 61 57 51 48 46 43 43 33 16 22 12 5 4 3 3 6 5 2 3 1 2 2 1 1 1 1 1 1 1 2 3 4 3 4 3 1 2 5 5 6 10 11 10 11 11 12 11 11 10 10 9 10 13
59 58 56 51 47 45 43 40 22 26 3 3 4 4 2 2 1 3 4 4 2 3 5 3 1 1 1 2 1 2 4 2 3 2 4 2 4 4 5 4 4 8 7 7 10 15 13 13 12 11 12 9 7 10
58 54 50 48 45 43 41 32 28 5 3 3 3 3 2 3 3 2 2 2 2 4 3 3 2 2 1 1 2 2 3 4 4 3 3 4 4 5 6 5 6 7 6 6 13 12 15 16 13 12 14 12 8 6
55 49 42 45 43 42 40 25 13 2 4 3 4 5 2 3 1 1 2 1 3 3 2 2 2 3 1 1 3 5 3 4 4 3 3 3 4 6 6 7 9 12 12 13 15 16 17 16 14 14 14 15 15 8
42 18 48 45 43 34 31 11 3 5 3 3 1 2 3 3 4 3 3 3 8 3 2 3 3 6 2 2 3 4 4 3 3 3 2 4 5 7 8 12 13 13 14 17 18 18 19 20 19 14 10 14 12 9
34 52 51 47 43 31 7 3 4 3 5 2 3 2 2 3 4 3 3 2 3 3 3 4 3 3 4 5 4 3 3 3 3 4 4 7 10 15 14 11 15 15 17 19 20 22 22 16 14 13 16 17 10 9
51 52 46 46 29 8 3 2 3 4 2 2 2 1 3 3 3 4 4 6 4 5 5 2 2 3 4 3 4 3 3 3 3 4 4 15 16 15 18 18 17 18 16 17 20 15 18 20 17 16 16 14 12 13
52 50 48 25 7 5 4 3 3 4 3 2 2 3 2 2 1 2 3 2 2 2 2 2 5 3 4 3 3 3 3 3 3 5 7 5 10 13 17 16 15 19 19 22 19 14 17 17 18 16 16 15 12 14
41 34 21 6 5 9 4 2 3 2 3 3 2 2 1 2 3 2 0 1 1 3 3 4 4 4 4 8 10 12 12 7 4 4 7 9 12 17 19 22 20 17 12 13 12 16 14 14 19 20 17 16 18 19
26 21 6 5 6 5 4 6 4 3 3 2 2 2 3 2 1 1 2 2 4 4 4 3 3 2 2 5 10 12 16 15 15 16 17 18 6 5 9 18 14 11 13 16 17 17 19 19 20 19 18 18 14 15
22 8 7 6 5 5 2 0 4 3 3 2 2 3 2 1 2 3 2 3 4 5 7 6 5 6 10 14 13 13 12 13 11 13 17 18 20 23 22 23 23 15 12 18 21 21 21 21 20 17 18 16 15 13
9 6 4 3 4 3 2 2 2 3 3 3 2 2 1 1 2 1 3 3 3 3 2 4 6 3 5 5 3 12 17 11 17 19 20 20 13 17 20 23 26 24 22 25 26 23 22 21 17 18 16 16 15 13
6 5 5 6 3 4 4 3 3 3 3 2 4 2 1 0 2 1 3 3 2 2 2 3 6 4 4 3 7 18 22 19 16 7 17 18 22 22 18 19 21 20 16 20 21 19 18 19 19 19 18 15 14 15
6 3 3 3 2 4 4 5 4 4 3 3 2 1 1 3 2 5 3 3 3 3 3 4 4 3 4 13 4 8 20 19 13 14 22 16 15 16 10 9 10 16 11 9 12 18 18 19 19 20 18 17 14 14
5 1 1 1 3 5 4 4 3 3 4 5 4 4 3 3 6 4 3 5 3 10 14 15 14 12 10 16 22 27 28 25 24 24 27 27 27 24 20 16 12 14 16 22 18 16 17 17 17 17 17 18 18 15
3 3 6 3 3 2 5 3 5 6 5 3 5 4 8 8 5 3 5 3 13 11 14 21 23 22 24 27 28 27 28 24 22 23 20 14 11 12 11 14 13 13 18 23 23 21 21 21 21 19 17 18 19 16
3 2 4 4 3 2 3 5 5 3 4 5 5 4 4 4 3 4 4 9 11 17 22 20 17 18 21 22 22 22 21 18 11 6 6 6 4 9 8 13 23 19 17 19 18 15 17 20 22 21 20 16 16 14
2 1 4 3 4 4 3 3 3 2 1 3 1 2 2 3 8 12 14 20 24 23 21 19 22 19 19 17 18 23 18 16 15 14 4 6 7 14 21 17 16 17 17 17 18 18 15 13 10 5 4 7 8 8
2 3 3 2 3 2 1 2 3 1 3 1 1 3 4 3 10 20 26 34 26 21 20 21 22 17 14 15 13 11 10 12 10 12 16 19 19 19 12 12 13 17 17 17 16 15 15 13 10 8 6 6 5 4
2 2 3 2 2 2 3 3 1 1 3 2 3 1 3 3 3 3 4 9 11 12 15 12 14 17 14 15 16 17 18 22 21 20 19 17 12 9 11 14 14 14 14 14 13 12 11 10 9 7 6 5 5 5
2 2 2 2 2 2 2 3 4 4 2 2 3 1 2 2 5 4 4 6 9 10 11 10 12 14 15 16 16 15 14 14 13 11 9 10 11 13 14 14 13 11 10 11 11 12 11 10 8 7 6 6 6 6

GFSWCAN_925_spd_054.txt.gz
Wind_Speed
30 30 57 56 52 48 43 36 32 30 25 21 16 12 12 12 4 8 8 7 5 4 4 2 2 3 2 1 2 2 2 1 1 2 2 3 3 2 1 1 1 3 2 2 2 4 4 12 2 5 6 8 12 14
32 24 59 55 52 49 44 38 35 31 26 22 17 13 13 14 11 13 8 17 16 8 6 7 9 7 4 2 1 2 2 2 2 1 1 1 1 1 1 3 1 2 3 2 2 2 4 7 2 5 9 12 13 16
40 48 61 56 54 50 46 41 36 32 28 23 18 14 14 11 12 19 22 25 19 5 5 2 4 6 7 2 2 0 1 0 1 3 2 2 1 2 1 2 1 2 6 1 5 3 6 13 6 9 12 12 13 13
19 54 58 57 53 50 46 42 38 32 28 23 19 17 16 15 23 28 18 7 6 7 4 3 3 4 6 4 3 4 5 3 3 1 1 1 2 2 1 1 2 3 3 5 5 5 14 5 12 16 19 15 13 15
36 46 61 57 53 50 47 42 37 33 30 24 20 19 16 20 27 13 12 7 6 2 4 4 2 6 6 5 6 6 4 2 2 1 2 1 1 3 2 2 3 1 2 1 4 10 9 16 18 21 18 15 17 17
30 60 60 56 53 49 47 41 37 34 31 25 22 22 23 24 21 9 2 5 7 7 5 4 1 4 6 6 7 9 6 3 2 1 2 1 1 1 2 1 4 4 5 5 5 9 13 15 17 18 15 18 17 16
56 59 61 57 55 51 46 42 38 35 31 26 22 22 21 7 4 4 2 6 7 6 3 4 3 2 3 2 2 3 4 2 1 2 1 1 1 2 1 3 7 4 5 8 7 5 8 7 9 16 18 19 19 21
58 65 62 59 55 50 46 42 39 35 31 26 25 21 14 13 12 6 9 8 6 8 4 4 2 2 3 1 1 2 1 1 2 2 1 1 0 1 3 2 2 6 8 8 5 9 11 15 15 12 15 16 13 13
61 65 61 58 55 52 47 43 40 36 32 31 28 24 11 4 3 6 11 10 9 3 3 3 3 3 2 1 1 2 1 1 1 1 1 1 2 3 1 2 5 4 5 10 11 11 12 11 12 12 13 10 9 10
64 65 61 57 55 52 48 45 42 38 38 36 21 4 3 3 15 9 2 2 3 3 3 3 1 3 0 1 2 2 1 1 1 2 2 2 3 4 5 2 4 7 7 8 10 9 9 12 13 14 14 11 10 9
66 65 60 59 56 53 49 47 45 44 36 8 3 2 8 10 3 3 3 3 2 3 3 2 1 3 1 2 2 1 2 1 0 2 2 1 3 3 3 2 3 5 8 11 11 14 14 13 13 14 14 15 15 14
70 66 62 60 57 54 51 49 50 22 15 13 16 12 6 2 2 5 2 1 2 3 2 3 2 2 2 1 1 2 1 2 2 4 2 2 2 1 1 3 7 9 11 12 14 14 16 16 16 15 16 17 17 16
72 67 63 61 57 54 52 51 35 23 26 12 4 4 2 2 4 4 3 1 2 4 4 3 3 2 2 1 2 1 2 2 5 3 3 2 1 1 2 4 7 8 11 13 15 14 16 18 17 17 17 17 18 17
68 66 63 60 57 54 53 43 32 32 3 2 4 6 2 1 2 2 2 3 2 4 5 3 3 2 2 2 2 2 2 3 3 4 3 2 2 3 5 5 5 10 13 11 12 13 14 15 17 18 18 18 16 17
69 64 60 58 57 53 48 34 34 7 3 2 3 4 3 3 3 2 3 4 3 5 4 4 4 2 2 2 2 1 2 4 4 2 2 2 4 5 7 7 9 9 9 10 12 12 14 16 16 19 19 18 17 17
68 58 50 55 53 46 40 33 10 2 3 3 4 6 3 3 2 3 2 3 4 4 3 3 3 3 2 1 4 5 3 5 2 2 2 2 4 6 6 8 12 13 13 14 14 15 16 17 17 19 22 21 20 19
57 25 58 54 46 41 31 9 3 3 4 4 3 3 3 3 4 4 3 3 7 2 2 2 3 2 3 2 3 3 4 1 1 2 2 5 6 7 9 14 15 14 13 14 15 15 17 19 20 17 15 18 18 19
45 61 57 52 47 33 7 3 3 3 7 3 3 3 2 3 5 4 3 5 3 2 3 2 4 3 4 4 3 3 4 2 3 4 5 7 12 13 14 14 15 13 14 16 19 21 20 18 15 13 17 17 17 17
60 61 56 48 27 10 3 3 3 4 4 2 3 2 3 4 4 6 5 5 4 5 5 2 2 3 3 4 3 2 2 3 3 4 5 14 13 13 14 15 17 17 16 16 16 17 20 19 19 19 18 15 15 16
62 58 47 28 9 5 5 3 4 5 3 2 2 3 3 4 2 3 3 2 2 2 2 2 4 3 4 2 3 2 2 3 3 5 6 5 8 11 14 14 14 16 16 19 18 17 17 18 16 15 16 16 16 17
51 41 24 9 5 10 4 2 4 3 4 3 2 2 3 2 3 1 2 0 1 2 3 4 4 3 4 5 6 6 8 7 4 4 4 5 9 9 14 17 17 13 13 15 14 16 18 16 19 18 17 17 17 18
33 21 7 5 5 5 5 8 4 3 3 2 2 2 3 2 2 2 1 2 3 3 4 3 2 2 2 4 7 8 10 9 11 13 14 14 6 6 9 14 15 16 17 17 17 18 19 19 18 17 17 19 18 18
17 7 6 4 6 5 3 2 4 3 4 3 1 3 2 1 1 2 3 3 3 5 6 4 5 8 8 10 10 12 11 14 10 12 14 13 15 17 19 18 16 17 16 19 19 18 19 19 19 17 15 15 15 15
9 6 5 4 5 5 3 3 2 3 3 2 3 4 2 1 1 1 3 3 3 1 1 4 7 3 3 5 3 9 17 15 17 17 20 17 14 18 17 18 20 21 21 26 21 20 18 16 16 15 16 15 14 13
7 6 5 6 3 4 4 3 2 3 3 2 4 2 2 1 1 2 3 3 2 2 2 5 6 5 3 2 5 13 14 14 12 8 14 15 19 20 18 16 19 21 20 21 16 13 13 15 17 16 15 14 15 14
7 3 3 3 3 4 4 4 4 4 3 3 3 2 1 2 1 5 3 3 3 3 3 5 5 3 4 12 5 7 17 16 15 12 19 18 18 14 12 9 10 13 9 8 15 17 17 15 15 15 16 16 16 15
5 1 2 2 4 5 4 3 3 3 3 5 4 4 3 3 5 4 3 5 3 10 11 14 17 13 10 15 17 21 24 21 18 19 24 26 25 26 23 17 13 12 17 21 20 19 20 20 19 17 17 18 16 14
3 2 6 3 3 1 5 3 4 4 4 4 5 4 8 8 5 3 5 4 14 11 8 10 13 15 19 25 27 24 23 19 19 20 23 23 19 18 17 16 14 14 20 19 19 19 18 18 19 19 18 18 17 17
3 2 3 4 3 2 2 4 4 2 4 5 4 4 4 3 3 4 4 7 8 9 13 19 21 17 19 19 19 19 16 15 9 6 8 7 4 10 7 9 18 15 14 16 17 16 17 18 20 20 21 21 17 15
2 1 3 2 3 1 0 1 2 1 1 2 0 1 2 3 9 13 17 18 18 18 20 19 20 16 16 16 17 16 12 12 14 14 5 7 7 12 19 19 14 11 14 16 18 19 17 15 14 11 10 10 9 10
2 2 4 3 3 1 1 2 3 2 3 1 1 2 3 3 9 15 21 21 19 19 18 19 18 12 11 11 9 10 10 10 6 11 18 22 23 19 17 11 11 13 14 14 15 14 15 14 14 13 11 9 7 6
2 2 3 4 2 0 1 2 1 2 3 2 1 1 3 2 3 3 4 7 7 5 4 5 8 7 10 14 15 16 19 23 22 19 16 14 12 11 11 13 14 14 13 12 12 13 14 13 12 10 9 8 7 7
1 2 3 3 2 2 3 3 4 3 2 2 2 1 1 1 5 3 5 5 5 5 5 7 10 13 15 17 16 15 14 14 13 11 9 10 11 12 13 14 15 12 9 8 10 13 13 12 11 10 9 8 8 8

GFSWCAN_925_spd_057.txt.gz
Wind_Speed
26 25 31 33 27 50 49 43 40 36 31 29 25 21 19 17 17 9 9 9 4 4 5 3 2 4 2 1 3 3 3 2 2 3 0 1 1 2 2 2 2 5 4 4 4 4 6 5 4 3 3 5 10 11
24 27 29 31 30 47 48 42 38 36 31 28 25 21 22 13 17 16 7 12 14 7 6 8 11 10 7 6 2 3 2 2 2 2 2 1 2 2 1 4 2 3 2 2 2 2 5 2 3 3 4 8 10 12
26 27 30 29 34 47 47 42 37 36 32 28 24 23 21 18 18 16 18 21 17 6 6 4 5 9 9 7 4 0 2 1 1 3 1 1 1 3 3 1 0 2 3 3 4 5 2 8 1 3 10 12 14 12
25 29 33 36 35 50 47 43 38 36 31 27 24 24 21 19 25 29 16 12 7 6 4 4 2 5 6 5 5 6 6 3 3 1 1 1 1 1 1 2 3 4 3 3 7 6 10 2 3 13 16 15 15 12
25 30 33 31 55 51 48 43 39 36 31 27 26 25 25 29 28 21 17 10 7 2 4 5 5 6 6 6 6 7 7 1 1 2 1 2 1 2 0 1 4 3 3 2 2 10 8 12 13 18 16 15 16 16
24 22 11 45 51 51 49 44 41 37 33 30 28 29 32 30 22 8 3 4 8 7 5 4 2 4 5 7 9 10 7 3 2 1 2 2 1 2 2 2 2 2 1 4 4 10 12 14 14 14 14 16 17 15
22 23 29 22 52 50 47 45 41 39 36 33 32 32 32 21 10 5 3 5 8 6 4 5 3 2 1 1 2 4 6 3 2 1 1 1 2 2 2 3 7 3 3 5 6 9 9 5 10 17 17 20 21 21
20 27 27 54 54 52 47 45 42 40 37 34 35 29 24 18 13 7 10 9 7 6 3 4 3 3 2 2 2 2 2 1 2 1 2 2 2 2 4 4 5 1 3 5 3 5 10 14 15 14 17 16 15 14
18 16 60 58 54 52 50 46 43 41 39 37 32 27 18 6 3 4 11 11 10 5 3 2 4 3 2 2 2 1 1 2 1 2 2 2 3 4 4 5 1 3 3 5 8 11 12 11 13 13 13 14 14 13
31 36 66 57 55 53 51 47 45 44 42 40 24 6 3 3 19 10 2 1 3 2 3 3 1 3 1 2 2 2 0 1 2 2 2 3 4 3 4 3 2 3 3 4 7 8 10 10 13 15 14 12 13 13
17 62 64 59 57 55 52 50 48 48 38 9 3 3 8 13 3 1 2 2 1 3 2 3 2 4 1 2 3 1 1 1 2 2 2 2 2 4 7 5 2 1 4 6 8 11 13 13 13 14 15 18 19 18
38 67 63 61 58 56 54 52 53 19 12 11 21 15 7 2 1 4 1 1 1 3 3 3 3 3 3 1 2 2 1 2 2 2 2 2 2 4 4 2 3 5 7 8 10 12 14 15 16 16 17 18 19 20
68 67 64 62 59 57 55 55 23 28 40 11 6 4 3 1 3 5 6 2 3 5 5 4 4 2 3 2 3 2 4 2 3 2 2 1 5 2 2 3 5 5 6 9 13 13 13 15 15 14 16 19 21 21
70 66 65 62 59 56 54 36 33 36 5 3 4 5 2 3 2 2 3 4 4 5 7 5 4 2 1 2 2 3 2 3 2 3 2 4 3 1 4 4 6 9 10 8 10 13 13 14 15 19 18 18 19 20
69 67 64 60 57 53 44 38 30 7 4 3 2 4 2 4 5 4 6 5 4 6 6 5 4 2 2 2 1 0 3 3 3 2 2 3 2 4 6 6 8 9 9 10 14 12 13 14 14 18 18 19 20 21
68 62 55 58 54 46 37 29 9 4 4 3 4 5 4 5 3 3 3 5 4 5 3 2 3 3 2 2 2 4 2 5 1 0 2 1 5 5 6 7 10 13 14 15 15 15 15 15 15 18 24 24 23 19
61 23 61 56 47 41 29 12 4 5 3 3 2 3 2 6 5 4 3 4 8 4 2 2 3 2 3 2 3 4 4 1 2 1 3 6 6 7 7 12 13 12 13 15 15 15 17 20 20 19 17 24 21 21
35 66 61 53 47 29 8 6 4 3 5 3 2 2 4 5 7 5 4 6 3 2 2 2 4 3 4 4 3 3 3 2 2 3 4 5 9 12 11 12 13 13 15 17 18 19 18 18 16 17 20 23 21 20
63 63 58 51 33 8 3 3 3 4 3 2 3 3 5 5 6 7 6 5 4 4 5 2 2 3 3 3 2 2 2 2 3 4 5 9 7 7 10 12 15 16 15 16 17 17 19 20 21 21 20 19 17 19
63 59 49 40 14 5 4 3 3 4 3 2 2 5 4 4 2 5 5 3 2 1 1 2 4 2 2 2 2 2 2 3 4 4 3 2 4 6 10 11 12 15 17 18 18 19 19 19 18 18 18 19 20 20
54 43 31 11 6 8 4 3 4 3 3 4 3 3 4 2 3 3 2 2 1 2 3 3 3 1 3 3 4 4 5 6 5 4 3 3 6 8 12 15 16 14 15 16 15 18 18 17 20 19 19 19 20 21
31 29 7 6 4 4 5 9 3 3 4 3 3 2 3 3 2 2 1 1 3 3 3 3 2 1 2 3 5 9 7 6 8 8 10 10 5 6 9 14 15 14 13 14 16 17 19 20 19 19 19 21 21 21
25 7 6 5 6 5 3 2 4 4 4 3 2 3 2 2 1 2 2 3 3 3 3 3 2 3 3 4 5 9 9 9 8 10 10 12 14 15 17 17 14 14 15 17 17 18 18 20 20 19 19 21 21 21
9 7 5 4 5 4 2 3 3 3 3 2 2 4 2 2 0 1 3 3 2 1 3 3 4 2 3 5 3 4 5 6 10 11 16 12 13 17 15 16 17 17 17 20 20 18 16 16 18 18 19 19 19 18
6 7 5 5 1 4 5 3 3 3 3 2 3 2 2 2 2 2 3 3 2 2 3 5 5 5 4 1 2 8 10 9 8 7 14 15 18 19 17 14 14 15 16 16 14 13 15 18 18 17 18 18 18 19
7 2 2 2 2 3 4 5 4 4 4 3 2 2 1 2 2 5 3 2 3 3 4 6 5 4 4 9 3 5 10 9 10 11 19 15 17 13 11 8 7 15 11 10 12 15 18 19 19 19 20 20 20 19
4 1 2 2 3 5 5 4 3 3 4 5 5 5 3 3 5 3 2 3 3 8 11 12 12 9 6 7 12 17 20 22 20 18 20 22 25 24 20 16 15 12 12 16 18 17 17 19 19 17 18 18 17 18
3 2 5 3 4 2 5 3 3 4 4 4 6 5 8 7 4 2 3 2 10 5 5 4 5 7 10 15 20 22 24 17 17 19 21 21 16 14 15 17 18 16 15 19 17 18 17 19 20 21 20 20 21 20
3 3 3 4 3 3 2 3 3 2 4 5 3 3 3 2 2 2 1 3 3 3 5 9 10 13 15 16 15 15 13 12 8 5 8 8 6 6 9 9 17 22 20 16 16 15 16 19 20 20 21 20 18 15
2 1 3 2 3 3 2 3 2 2 2 3 2 1 1 3 5 6 9 10 10 11 13 13 13 10 10 9 11 15 13 11 10 8 5 8 8 17 27 27 22 18 14 14 17 19 18 17 18 18 17 15 12 12
1 1 3 3 3 2 2 3 2 2 2 2 3 1 2 4 8 6 6 6 7 8 8 7 6 3 5 5 5 8 7 8 7 10 18 24 24 21 18 16 14 14 15 15 15 15 16 18 18 17 15 15 13 11
2 3 3 4 2 0 1 1 1 2 2 1 1 2 2 2 3 2 1 4 3 2 1 1 3 4 7 9 11 13 15 20 20 18 15 14 14 14 15 16 16 15 15 14 13 13 14 16 17 15 15 14 14 12
2 2 3 4 3 2 2 2 2 1 1 1 1 1 1 2 4 3 4 2 1 0 1 3 6 9 12 15 16 17 16 15 14 12 11 11 12 13 14 15 15 14 11 9 9 12 14 13 12 12 11 12 13 13

GFSWCAN_925_spd_060.txt.gz
Wind_Speed
31 29 30 29 25 31 32 18 36 35 32 28 25 24 22 25 28 16 10 6 4 4 4 7 5 3 3 2 2 2 2 1 1 1 1 1 2 1 2 2 1 4 3 3 3 3 3 5 0 1 2 5 7 6
30 29 29 27 25 29 28 32 38 35 32 28 26 25 23 27 25 19 8 13 16 7 5 15 17 13 8 8 2 1 2 4 2 2 1 1 1 1 2 2 2 1 2 1 4 2 3 4 4 6 8 6 8 9
28 27 27 25 25 32 39 41 37 34 31 28 25 25 25 25 23 13 19 21 15 4 4 3 5 10 13 10 7 2 1 1 2 1 2 2 2 2 1 1 2 3 3 0 4 4 5 5 9 12 10 8 9 10
26 26 25 22 26 26 34 38 36 33 29 26 25 24 22 24 20 24 17 11 7 4 4 3 2 5 8 8 8 6 5 2 3 1 2 1 2 1 2 1 1 1 3 3 3 7 5 9 11 11 10 10 12 12
26 23 22 22 23 20 18 36 36 32 28 25 26 24 23 25 25 27 20 12 8 5 4 4 10 10 8 8 9 8 5 1 0 2 2 1 2 1 1 1 2 3 2 2 2 4 1 3 7 8 8 10 10 11
24 22 20 22 26 31 25 42 36 34 29 27 27 26 28 30 32 15 3 7 14 11 4 3 1 4 7 9 11 10 6 3 2 2 2 2 1 0 1 2 3 5 4 4 2 4 3 6 6 7 7 7 10 10
21 18 20 20 21 42 48 44 39 35 31 29 29 31 31 23 7 5 4 12 12 10 3 4 2 2 2 2 3 2 5 2 2 1 2 2 1 1 1 2 8 7 5 5 5 3 1 2 4 7 7 9 12 12
21 19 18 19 43 50 46 43 40 36 32 32 33 30 22 14 15 11 16 13 10 9 4 4 2 2 0 2 2 3 1 1 4 1 1 1 1 1 2 3 6 5 5 6 4 2 3 6 7 6 11 9 6 7
22 20 20 27 31 47 46 44 42 38 36 38 35 27 12 5 4 6 16 14 14 7 3 2 4 3 1 2 2 1 2 1 1 0 2 2 2 3 5 6 6 6 4 3 2 2 5 5 6 7 6 7 6 7
24 19 25 19 55 52 49 47 44 41 42 40 28 5 3 3 19 8 2 3 4 3 3 3 0 3 1 2 2 2 2 2 1 1 2 1 3 3 6 6 6 5 4 3 4 5 5 4 6 7 6 7 7 8
28 28 28 60 56 53 51 49 46 46 37 9 3 3 7 9 3 3 3 3 0 3 2 2 3 3 0 3 3 2 2 1 2 1 2 2 2 1 7 6 4 4 3 2 2 5 7 7 7 6 8 13 16 18
28 18 61 60 57 54 53 49 49 24 13 10 19 13 5 2 3 5 1 1 1 3 2 3 2 3 2 1 3 2 2 2 2 2 1 2 1 4 6 4 4 4 4 4 6 7 10 11 11 10 11 13 16 19
22 48 63 60 58 54 52 49 40 18 35 12 5 4 3 1 3 5 6 1 2 3 4 3 3 3 2 2 3 2 3 2 3 2 3 1 4 3 3 2 2 3 5 6 9 12 13 13 14 14 14 18 21 20
22 64 63 60 57 54 49 52 26 30 2 3 4 5 3 2 3 2 2 4 2 5 7 4 3 3 2 2 2 3 2 3 2 2 4 3 5 3 2 1 2 6 7 7 10 12 14 15 16 19 19 21 20 19
61 66 62 58 57 51 53 37 34 2 2 3 2 4 2 3 3 3 3 3 3 4 4 3 3 3 2 3 0 2 3 2 4 4 2 2 4 3 1 2 5 6 6 6 11 11 16 18 17 21 24 21 22 24
66 64 47 58 56 52 38 30 10 2 3 3 4 5 3 4 3 2 5 5 0 3 2 3 3 4 1 3 3 3 4 5 3 2 2 3 2 1 2 4 7 11 12 12 14 16 17 17 17 21 28 24 27 23
59 20 61 58 54 44 33 9 2 4 3 4 2 4 3 5 4 3 4 3 5 2 3 3 4 3 2 3 0 2 4 3 3 2 2 2 2 3 4 8 11 12 13 15 17 19 21 22 25 23 17 26 26 26
31 64 63 57 50 32 8 4 4 4 6 2 3 3 2 3 4 3 4 3 2 2 2 3 4 3 4 5 3 3 2 2 2 2 2 2 3 6 6 8 11 12 14 18 20 23 24 22 17 16 20 24 25 21
62 63 60 56 35 11 4 4 5 4 3 1 3 2 3 3 5 7 4 4 5 4 5 2 4 3 3 3 3 2 2 3 3 2 2 5 8 9 10 11 12 14 15 18 20 16 19 23 23 23 22 21 17 19
63 60 56 45 17 5 5 3 3 4 3 2 2 3 2 3 1 3 4 3 2 2 3 2 4 3 4 3 3 3 3 3 3 2 4 5 11 11 13 12 13 16 19 21 20 18 21 19 17 18 19 21 22 22
53 47 38 19 6 11 4 2 4 2 3 3 1 1 3 2 3 3 2 2 3 2 2 3 3 2 4 4 7 6 5 7 4 4 4 2 7 9 14 17 18 18 15 14 13 17 18 16 20 23 22 20 21 23
35 39 11 5 5 4 4 7 4 3 3 3 2 2 3 3 2 2 2 2 2 3 3 2 2 2 3 3 5 9 7 7 8 10 11 10 4 5 10 17 13 12 15 16 17 18 19 20 20 21 21 22 23 24
37 15 6 4 5 5 3 2 3 3 4 2 1 3 3 2 1 2 0 2 3 3 2 2 2 2 4 2 3 6 8 9 9 10 12 16 21 23 21 23 20 19 14 16 15 19 20 19 18 19 21 22 22 22
17 7 5 4 4 4 2 4 3 3 3 2 3 3 1 1 1 2 2 3 2 2 1 3 5 2 1 1 2 6 9 10 11 13 14 14 13 16 16 19 18 18 20 26 24 23 20 17 18 20 20 20 21 21
7 5 2 6 3 4 4 3 3 2 4 2 3 2 1 1 2 1 3 3 1 2 3 7 6 2 2 2 3 10 9 11 11 5 19 13 20 23 19 18 19 18 17 20 22 17 17 20 22 21 20 20 21 22
7 4 4 2 1 4 2 4 3 4 4 3 2 2 1 2 2 4 3 3 2 3 3 4 4 2 3 10 3 5 13 10 8 11 20 16 15 17 11 5 7 15 9 11 11 17 20 21 21 22 20 21 22 23
5 2 2 2 3 5 5 4 3 4 4 6 5 5 3 3 5 4 2 2 2 3 6 10 14 12 7 5 8 12 15 15 16 20 22 22 22 22 21 17 13 14 13 19 20 17 19 19 18 18 19 21 21 22
3 2 5 2 3 2 5 4 4 4 4 3 5 4 9 8 5 3 3 0 5 2 5 5 6 8 7 8 12 16 18 16 18 19 17 14 10 9 11 9 12 13 17 22 20 17 15 17 19 21 21 21 23 22
4 3 3 4 3 2 3 3 3 2 2 3 3 3 3 2 2 1 1 2 3 4 2 3 4 6 9 10 8 6 7 10 10 5 5 5 5 7 8 16 26 22 18 16 13 12 14 17 18 18 21 21 21 19
2 1 3 2 4 4 3 3 2 1 2 3 1 1 2 2 2 2 4 5 4 5 5 6 8 6 4 6 9 9 8 7 6 5 3 5 10 25 27 21 18 17 16 16 18 20 18 15 18 20 20 19 18 17
1 2 4 5 3 2 2 2 2 2 2 2 3 3 1 3 4 1 1 0 1 0 2 3 4 3 2 2 3 6 6 5 7 14 17 19 16 16 17 18 19 19 19 19 19 18 18 18 19 20 20 19 18 16
3 3 3 4 2 1 1 1 1 2 3 3 3 2 3 3 2 2 3 1 4 5 5 5 4 2 3 5 6 8 9 13 14 13 12 13 15 17 19 18 17 20 19 18 17 14 15 17 19 18 17 18 17 16
3 2 3 4 3 1 0 2 4 2 3 2 2 1 1 1 4 3 3 4 5 6 5 3 2 2 4 5 9 12 13 14 14 10 9 11 13 14 16 17 17 15 13 13 13 15 16 17 16 16 16 16 16 15

GFSWCAN_925_spd_063.txt.gz
Wind_Speed
38 34 29 27 25 24 24 27 27 13 32 31 26 22 20 25 32 14 4 4 5 3 4 6 5 4 3 3 4 3 3 2 2 2 2 1 2 3 3 6 5 5 4 3 1 2 3 4 2 1 3 3 4 4
36 31 28 25 23 22 21 24 27 15 29 25 23 19 20 27 28 16 6 17 18 7 3 17 20 15 8 3 4 2 2 2 2 3 1 2 2 1 4 3 1 2 3 4 3 4 3 5 11 5 5 3 1 3
29 30 24 23 20 21 20 24 19 13 33 26 22 18 22 26 25 13 20 18 17 4 4 6 4 11 13 10 5 3 1 2 2 1 3 2 3 2 3 3 3 1 2 3 4 3 6 9 6 5 4 3 2 4
27 22 20 18 17 17 24 18 17 38 32 27 23 18 21 24 19 19 19 12 11 4 4 2 3 4 8 8 8 4 5 3 4 2 2 2 2 0 2 2 3 4 3 4 3 2 8 6 5 4 4 3 1 3
22 19 18 16 14 10 13 33 38 34 30 27 25 21 21 20 19 20 18 10 8 7 4 3 1 12 10 10 13 14 9 3 3 3 3 1 0 2 1 2 2 4 5 4 4 5 2 2 2 4 2 2 2 3
19 18 18 16 12 6 13 3 30 32 29 28 25 22 23 22 24 20 3 5 15 10 4 3 0 5 10 11 14 13 9 4 3 3 1 1 1 2 2 2 2 3 4 3 4 3 4 2 2 2 2 3 3 3
19 18 18 17 16 13 16 10 36 34 29 26 24 24 24 29 14 3 4 14 15 9 3 4 2 3 3 3 4 3 6 2 3 1 2 2 1 2 2 3 3 5 6 6 5 4 3 2 1 6 3 7 8 9
19 18 16 19 19 22 19 40 37 33 33 28 26 26 24 15 13 7 16 15 10 9 4 4 0 2 3 2 2 3 2 3 4 1 2 2 2 2 2 4 5 6 7 6 5 4 2 3 4 5 8 7 6 6
21 17 17 18 18 40 50 44 39 37 34 33 31 27 8 5 3 5 14 14 11 4 4 3 4 3 1 2 2 3 2 2 1 1 0 2 1 2 4 4 6 5 5 5 3 3 2 2 5 6 6 7 6 7
22 19 14 10 50 53 53 46 42 38 37 38 22 2 2 2 13 10 2 3 4 3 3 3 1 2 2 3 2 2 2 2 1 1 1 0 3 1 3 6 6 6 6 5 2 3 3 3 5 6 6 6 6 8
24 23 17 17 47 49 50 47 46 45 42 14 3 2 8 9 3 2 2 3 1 4 2 2 3 4 1 3 3 1 2 0 2 1 1 2 2 1 3 6 5 5 5 3 1 2 4 6 6 6 7 8 12 15
28 22 25 22 47 51 48 48 52 31 19 12 14 11 4 3 3 5 2 2 3 4 1 4 3 3 1 2 3 2 2 1 2 1 2 2 2 3 5 5 4 2 0 2 3 5 9 11 13 11 10 12 17 20
32 30 21 59 54 51 50 54 38 27 25 17 4 4 3 3 5 6 5 2 2 4 4 3 3 3 2 2 2 3 3 2 3 1 3 3 4 4 5 3 2 1 4 5 7 9 12 13 16 15 14 19 19 22
33 18 57 60 57 51 53 45 27 27 3 3 4 4 4 2 4 3 3 4 3 4 8 5 3 3 2 2 2 4 2 3 2 1 4 3 6 6 4 2 1 3 5 6 9 11 13 14 17 20 19 21 21 20
26 45 61 59 55 52 50 36 26 7 2 3 4 4 3 2 3 1 1 3 2 4 3 4 3 3 2 3 1 3 3 1 5 4 3 3 6 5 4 2 3 4 4 5 8 9 14 18 19 22 26 25 26 27
46 58 48 57 54 52 40 31 8 2 4 3 4 4 3 4 2 3 4 7 0 4 2 3 4 4 1 4 3 4 6 5 4 3 3 4 5 4 3 3 4 6 6 9 11 13 16 18 18 22 28 24 25 23
49 16 58 55 51 43 36 9 2 4 4 4 2 3 2 4 3 3 3 3 4 3 3 3 4 3 2 3 0 3 5 3 3 2 2 5 4 3 4 4 5 6 8 10 12 16 20 23 23 21 15 25 25 27
29 60 59 55 49 32 13 3 4 4 6 3 3 2 2 3 3 4 3 2 2 3 3 3 4 3 4 4 3 3 3 2 2 3 3 3 4 5 6 6 7 9 11 14 16 18 21 21 17 14 19 24 25 23
59 61 60 52 32 12 4 3 4 4 2 2 1 2 3 3 3 4 3 2 3 4 5 2 4 3 3 3 4 3 2 3 3 3 3 5 7 8 10 10 13 15 16 16 18 17 19 19 19 21 22 24 18 20
64 61 54 40 21 5 5 3 3 4 3 2 3 3 2 2 1 3 3 3 2 2 3 2 4 3 4 3 4 3 2 4 3 0 3 4 9 10 14 16 17 18 17 21 21 18 20 19 15 17 20 21 20 21
57 51 34 17 6 11 4 2 4 2 3 4 2 2 3 2 3 3 2 3 3 2 1 3 3 2 2 3 4 5 6 8 4 4 4 3 5 7 14 16 18 19 17 15 13 14 14 16 21 22 21 20 20 21
40 37 10 6 5 4 4 6 4 3 3 3 2 1 3 2 1 1 3 3 2 3 3 2 2 3 2 2 3 5 5 7 6 6 7 8 4 4 10 18 15 13 16 18 19 16 18 21 20 19 19 21 21 21
34 20 6 5 5 5 1 1 4 3 5 3 1 4 3 1 2 2 1 2 3 3 2 2 3 3 5 4 3 3 7 9 8 8 8 11 13 17 19 23 22 18 14 19 18 18 20 19 18 16 19 21 19 19
25 6 4 3 4 4 3 3 2 3 4 2 3 4 1 1 2 3 2 3 3 1 1 2 5 3 3 3 1 6 12 13 13 11 10 9 11 17 20 22 22 19 19 24 24 24 21 16 16 22 21 22 20 17
6 5 3 5 3 5 4 3 2 3 4 3 4 2 1 2 2 1 3 3 2 2 2 5 5 1 3 1 4 8 5 9 10 5 17 12 17 20 20 17 16 14 13 16 18 14 15 21 22 23 22 20 19 18
6 3 2 2 1 5 3 4 3 4 5 3 3 2 2 2 2 5 3 3 3 3 3 4 4 2 1 10 3 2 4 4 8 8 17 14 12 13 11 7 8 12 7 11 16 21 22 21 21 20 19 20 20 20
4 2 1 2 2 4 5 4 4 5 4 5 5 4 3 4 6 4 2 2 2 4 6 10 15 11 4 3 2 3 5 8 9 13 17 18 17 16 14 14 13 15 18 20 21 22 21 19 18 18 19 22 20 18
3 2 6 3 4 3 6 4 3 3 4 4 5 5 8 7 5 3 3 3 6 8 9 8 6 4 1 2 6 9 6 5 8 10 9 6 8 9 5 5 14 22 22 19 17 15 14 15 19 22 19 15 21 24
3 1 3 4 4 5 4 3 2 1 2 4 4 4 4 3 2 1 3 4 7 8 9 10 6 3 1 0 2 3 3 6 8 4 4 5 7 8 15 20 15 14 15 16 15 13 14 16 16 16 18 18 18 18
2 1 3 4 4 3 1 1 2 1 1 2 0 1 2 2 3 3 2 3 3 4 4 4 3 3 4 4 3 2 4 4 3 2 2 4 10 22 18 16 17 17 17 17 17 17 17 14 17 19 20 19 18 17
2 2 4 4 4 1 1 1 2 1 2 2 2 3 1 2 2 1 1 3 4 6 9 9 8 7 5 3 1 2 3 3 8 12 13 14 13 13 14 16 14 18 17 17 16 16 16 17 19 19 18 18 17 16
2 3 4 4 3 2 1 1 1 2 3 2 3 3 3 2 0 2 6 5 8 10 9 10 9 7 4 2 1 2 4 8 10 11 8 9 12 14 15 13 15 15 15 14 14 15 16 16 16 16 17 17 17 17
3 3 4 4 3 1 1 2 3 2 3 2 2 1 0 1 4 3 5 8 7 8 10 8 7 4 4 3 1 3 7 10 10 7 7 8 9 10 11 12 11 13 14 15 14 15 15 15 16 17 17 17 17 17

GFSWCAN_925_spd_066.txt.gz
Wind_Speed
40 37 38 33 26 23 19 19 21 21 30 9 28 31 32 21 21 16 5 4 4 3 3 5 5 3 3 2 5 4 4 2 2 2 2 3 3 3 3 4 5 5 5 3 1 1 6 2 2 5 3 3 2 1
38 39 32 28 24 21 17 15 17 16 18 23 27 28 24 21 27 15 6 18 17 6 3 11 18 16 7 1 4 3 2 2 3 3 1 2 2 1 3 3 1 2 5 4 6 3 2 3 3 2 3 3 2 1
37 32 32 23 23 17 16 17 15 15 10 24 23 26 17 23 31 10 16 15 12 4 3 5 4 10 13 9 4 4 1 3 1 2 3 2 2 2 3 4 2 2 1 3 3 2 3 4 3 3 2 2 2 1
36 31 25 21 16 14 16 20 17 19 14 24 25 20 19 21 24 17 15 10 9 4 4 3 5 4 9 9 7 5 6 4 4 2 3 2 2 1 2 1 2 4 4 4 2 4 5 1 1 4 3 1 1 3
31 29 21 16 11 12 19 30 23 25 31 27 25 19 23 19 20 21 14 7 7 6 4 2 3 11 11 11 16 13 9 4 3 3 3 1 0 2 1 2 2 3 4 4 4 8 3 3 5 4 2 2 3 3
29 21 17 11 7 10 12 13 32 36 32 30 24 22 22 19 22 22 2 2 11 10 4 3 2 5 9 11 16 14 8 4 3 3 2 1 1 2 2 2 2 1 2 2 4 4 4 5 6 3 1 3 4 5
25 17 12 11 10 11 8 8 20 32 30 28 24 23 20 22 21 3 3 9 15 8 3 3 2 3 4 4 4 4 6 2 3 2 2 2 1 3 2 2 1 4 5 5 4 6 3 3 4 2 3 5 6 8
18 14 16 16 14 15 8 2 31 30 28 25 23 23 19 12 8 5 11 17 10 10 4 4 2 2 3 2 2 3 2 2 4 2 1 1 1 1 2 3 4 5 6 5 4 3 3 3 2 3 4 4 4 6
17 19 19 17 20 17 14 31 34 30 28 28 28 26 12 1 3 6 11 9 7 4 4 3 5 4 1 1 2 2 1 3 2 2 0 1 0 2 3 4 6 6 5 7 4 4 3 1 4 5 4 5 4 6
19 21 20 22 22 22 15 40 34 32 30 33 24 5 2 3 14 13 3 3 4 3 3 3 0 3 3 2 2 2 2 1 1 1 1 0 3 1 2 6 6 6 7 7 4 1 2 3 4 4 5 6 7 7
22 21 21 21 28 29 46 45 41 36 34 9 3 2 7 15 4 2 2 3 0 3 2 2 3 5 1 3 3 1 2 1 1 3 2 2 2 3 3 4 4 5 5 3 2 1 3 4 5 6 7 8 11 13
24 21 17 12 39 56 53 48 46 30 16 11 12 10 6 3 3 4 0 2 3 4 2 4 3 3 2 2 3 1 3 1 2 1 2 2 3 5 6 5 5 4 3 1 1 3 7 8 10 9 10 13 16 19
26 22 17 30 54 52 51 50 47 24 19 12 3 4 2 2 3 6 5 2 3 5 4 3 3 3 2 3 3 3 3 2 2 2 3 4 3 5 6 5 4 3 1 3 5 7 8 11 13 13 15 19 19 21
30 28 23 23 52 50 48 48 34 23 4 2 4 4 4 2 4 3 3 4 3 5 7 5 3 3 2 3 2 4 2 3 2 1 5 3 6 6 6 4 3 2 2 4 7 10 11 12 15 18 17 18 19 19
36 32 18 48 49 46 46 35 28 10 0 2 2 4 3 2 2 1 2 3 2 5 4 4 4 3 2 4 1 3 3 2 4 4 3 3 6 6 5 4 3 3 3 4 7 7 11 13 15 20 21 19 20 22
40 23 35 54 52 47 35 28 15 0 3 3 4 4 1 3 1 3 4 6 1 4 2 3 4 4 2 4 3 4 6 5 4 3 3 3 6 6 4 3 4 5 6 7 7 8 12 15 17 20 23 22 19 19
41 6 52 58 53 39 29 15 2 4 3 3 1 2 2 1 3 3 3 3 4 3 3 3 5 4 3 3 1 3 5 3 3 3 2 5 6 6 5 5 6 6 7 8 9 11 15 19 19 20 15 22 24 24
14 47 59 59 47 33 11 2 4 3 4 3 3 1 1 2 4 4 3 2 2 2 2 3 5 3 5 5 3 3 3 2 2 2 2 3 4 5 6 7 8 7 9 13 14 17 17 19 17 14 19 24 25 22
49 61 62 51 44 13 4 2 3 4 2 1 1 2 2 3 3 2 3 3 3 4 5 2 5 3 3 3 4 3 2 2 3 3 2 3 5 7 8 10 10 12 15 17 18 18 21 21 21 21 21 20 17 19
62 63 53 47 28 5 4 2 2 4 3 2 2 2 2 3 1 2 3 3 2 2 3 2 3 3 4 3 3 3 3 4 4 2 2 3 5 7 10 10 13 15 17 21 23 20 19 20 19 17 16 18 17 19
60 53 45 26 4 8 4 2 3 2 3 3 1 2 1 2 3 3 3 3 3 2 1 3 2 1 2 4 4 4 6 9 4 4 3 2 2 4 9 12 13 14 15 14 12 15 15 16 21 18 17 19 20 21
39 42 13 5 4 4 4 5 4 3 3 2 2 2 3 2 2 2 3 3 2 3 3 3 2 2 2 2 3 4 6 8 5 4 3 4 2 3 6 12 10 10 17 16 17 15 18 20 20 16 15 19 20 21
35 22 6 3 5 4 2 2 4 2 5 3 1 3 2 1 1 2 0 2 3 2 1 2 4 3 4 3 3 3 6 8 6 6 7 7 8 11 13 17 18 16 13 18 16 17 19 18 16 14 19 20 17 17
27 6 3 3 4 4 3 3 2 3 3 2 3 4 2 2 1 3 2 3 2 1 1 3 6 3 3 2 1 3 5 7 8 8 8 6 7 13 17 19 18 15 14 17 18 16 15 17 20 21 21 21 20 17
6 3 3 4 2 5 5 3 2 3 4 3 4 2 2 1 2 1 3 3 2 2 2 5 4 2 3 2 3 2 2 5 5 3 8 6 10 15 19 17 14 11 10 10 15 20 21 21 24 21 19 18 17 17
6 2 2 3 1 4 4 5 4 5 4 4 4 2 2 2 3 5 3 3 3 4 4 5 5 3 2 6 2 1 4 3 2 3 10 8 9 9 9 5 5 10 6 15 17 22 20 18 18 17 18 19 17 19
4 1 1 2 3 4 4 3 3 4 5 5 4 4 3 3 4 4 2 2 2 5 9 15 17 9 7 7 6 4 2 3 4 6 10 11 7 5 5 5 8 13 18 18 16 15 16 17 17 19 21 20 18 18
2 3 6 3 3 1 6 3 3 3 4 3 5 4 10 8 5 3 3 3 6 9 12 13 12 6 7 7 3 1 2 1 3 3 3 4 4 7 3 14 14 12 14 15 16 16 16 17 19 18 13 18 23 22
2 1 3 3 4 5 4 2 3 2 2 2 4 3 3 2 1 1 3 9 14 16 19 16 11 10 6 5 6 5 3 4 6 4 3 4 6 4 15 11 11 14 15 17 16 14 14 15 14 16 17 17 17 16
2 1 4 4 4 3 1 2 2 2 2 2 2 2 2 1 1 5 9 12 13 12 13 10 12 9 9 10 6 3 1 2 2 1 3 4 7 14 11 12 13 14 14 16 16 15 13 12 15 15 16 16 16 17
2 2 4 4 4 2 2 2 1 3 2 3 3 2 2 1 1 3 5 8 10 12 13 12 11 11 11 9 4 2 1 2 5 9 11 10 8 9 11 12 12 13 12 12 12 13 14 15 15 16 17 17 17 16
3 3 4 4 3 1 1 2 2 2 2 2 3 2 2 2 1 2 7 10 11 12 10 15 13 11 9 6 4 2 1 4 8 10 8 5 7 10 12 11 12 10 11 11 10 12 13 14 16 17 17 17 17 17
3 2 4 4 3 2 2 2 3 2 2 2 2 1 1 1 3 3 7 11 10 13 15 13 10 9 7 6 4 3 3 8 9 7 6 6 7 9 11 12 9 9 7 8 9 12 13 14 15 16 16 17 17 17

GFSWCAN_925_spd_069.txt.gz
Wind_Speed
33 33 35 33 31 29 21 18 13 16 22 22 13 19 29 32 20 8 4 9 3 3 3 4 4 2 3 2 5 4 3 3 3 3 2 2 2 3 2 3 5 5 4 2 2 0 6 2 2 5 2 3 4 3
32 33 34 31 29 25 21 15 10 13 18 2 17 26 29 24 17 11 4 16 17 6 3 5 13 14 5 1 4 3 3 2 3 4 1 2 1 1 3 2 2 2 5 4 6 4 1 2 1 3 2 4 3 1
33 31 31 30 27 21 18 11 9 11 13 20 23 26 25 18 16 9 8 9 11 4 3 5 4 10 13 8 2 4 1 3 2 1 3 2 2 2 3 4 2 1 2 2 2 1 1 1 2 2 2 3 3 3
31 30 28 28 21 18 12 9 11 12 10 25 24 25 15 20 19 6 7 5 8 3 4 2 6 4 11 7 3 2 8 5 5 3 2 2 2 1 3 1 2 3 3 4 1 1 1 5 3 3 3 3 2 0
29 27 28 26 19 13 13 16 16 17 8 24 20 22 14 21 23 6 4 2 4 4 3 2 3 9 13 11 11 11 11 4 2 3 3 1 1 2 1 1 2 3 5 4 5 4 3 3 6 4 4 2 3 2
27 25 25 20 12 10 13 23 12 18 25 21 26 22 20 17 17 11 3 2 3 6 4 2 3 4 10 10 16 13 7 4 3 3 2 1 1 2 2 2 3 3 2 3 2 4 2 4 5 3 1 3 4 5
26 25 20 12 8 7 11 11 21 32 29 27 23 22 19 17 17 2 3 5 11 5 3 3 2 4 4 4 4 3 6 2 3 2 2 2 1 2 2 3 2 2 3 4 4 6 3 3 3 5 3 4 6 6
23 21 14 8 7 7 8 4 31 28 27 24 23 21 15 11 5 2 5 14 7 11 4 3 1 2 3 2 2 3 2 2 4 2 1 1 1 2 2 4 3 4 4 4 3 2 2 5 4 1 2 3 4 6
21 16 12 13 10 7 5 29 29 29 28 25 24 19 11 1 1 5 10 6 7 6 4 2 4 4 1 2 1 2 1 3 1 2 1 2 1 3 4 5 6 6 5 6 4 4 4 2 2 4 3 5 5 6
19 15 14 16 13 12 8 32 28 31 26 27 21 3 2 4 14 13 3 3 4 3 3 3 1 3 2 1 1 2 2 1 1 1 0 1 3 3 4 4 6 7 5 7 4 1 2 2 3 3 4 6 7 7
18 16 18 20 19 16 14 33 33 31 28 7 2 1 3 14 2 3 2 2 0 2 1 2 3 4 1 3 2 1 2 0 2 3 2 2 3 3 3 4 6 6 7 5 3 3 3 4 4 5 6 9 11 13
18 21 22 22 23 20 15 37 39 21 16 8 9 8 5 2 2 4 1 2 1 5 2 4 4 3 2 2 3 1 3 2 2 1 1 3 3 4 6 5 5 6 7 5 4 3 3 6 7 7 9 11 14 17
20 23 24 24 28 32 24 40 41 24 18 13 1 3 2 2 3 6 6 3 2 5 5 3 3 3 2 2 3 3 4 1 1 2 3 4 2 4 6 5 5 5 5 3 2 2 5 8 8 7 11 15 17 18
23 24 25 23 32 36 50 43 38 24 6 2 4 3 5 3 5 4 4 4 2 4 8 4 3 3 2 3 2 5 2 3 1 1 5 3 5 6 6 3 5 6 5 2 4 6 8 8 12 14 15 17 16 17
27 25 18 16 45 59 53 46 31 14 3 2 3 4 5 2 2 2 1 2 1 7 5 3 3 3 2 4 1 4 3 2 5 4 3 4 5 6 6 5 5 4 3 3 4 5 8 10 11 17 18 17 18 18
32 21 16 31 52 51 44 33 14 2 3 2 2 3 2 2 1 1 0 3 1 4 2 3 4 4 2 4 3 4 6 6 4 3 3 2 4 5 4 5 4 5 5 6 8 8 9 11 13 17 22 21 17 15
36 11 21 41 50 40 38 14 4 3 3 2 1 0 1 1 3 2 3 3 4 2 2 3 5 3 3 3 1 3 5 3 4 3 2 4 5 5 4 4 5 6 7 9 11 10 13 16 18 20 14 23 20 18
22 28 37 53 46 36 13 4 3 3 3 0 1 1 1 0 3 4 2 2 2 2 2 3 5 3 5 5 3 3 4 2 2 2 2 2 3 4 5 6 7 8 10 13 14 16 17 19 16 15 21 25 23 20
32 47 57 55 38 14 4 1 1 3 1 1 1 1 1 2 3 3 3 3 2 2 6 2 5 3 3 3 3 2 2 2 3 2 1 1 2 3 6 7 8 9 11 14 18 17 20 24 20 21 22 20 16 19
46 63 60 46 34 5 4 1 2 4 3 2 2 1 2 2 2 2 3 3 2 2 3 2 3 3 4 3 3 3 3 4 4 2 0 1 2 3 5 7 8 9 13 16 19 18 18 19 18 17 18 16 16 16
53 56 50 32 4 7 4 3 2 2 3 3 2 2 2 2 3 3 3 3 3 2 1 2 1 2 3 5 6 6 7 8 3 3 3 1 2 2 4 5 7 8 9 13 11 14 14 14 19 20 18 16 17 18
34 48 16 7 4 3 3 2 4 4 3 2 2 2 3 2 1 2 2 3 2 3 3 3 2 2 3 3 3 5 8 9 7 6 5 2 0 1 2 5 8 9 16 14 13 12 16 18 16 15 15 19 20 21
33 26 7 4 4 3 3 1 3 2 4 3 1 4 2 1 2 1 1 2 3 2 1 2 3 3 5 6 8 8 8 9 5 4 3 3 4 6 9 10 9 9 12 15 11 12 12 14 18 17 20 21 18 17
27 5 3 3 3 4 3 2 2 3 3 2 3 3 1 2 0 3 2 3 2 1 2 3 6 3 3 3 2 3 7 7 5 4 5 4 5 8 8 10 9 7 7 9 8 14 18 21 20 20 19 19 19 19
6 2 4 3 2 5 4 3 2 4 3 3 4 2 2 2 3 2 3 3 2 2 3 4 3 2 3 1 2 2 6 8 8 3 1 3 5 10 11 8 9 6 7 12 18 20 22 20 19 18 18 18 19 17
6 2 3 4 2 4 5 5 5 6 5 3 2 3 2 3 3 4 3 3 3 4 5 7 6 3 0 4 3 2 6 8 3 3 3 3 4 5 4 2 4 9 9 16 15 16 18 18 18 19 19 19 17 20
4 2 1 1 3 4 4 2 2 3 4 5 5 5 5 4 4 3 1 2 3 6 16 21 20 12 8 11 8 10 7 4 1 1 3 3 2 3 5 4 5 10 13 13 13 14 16 18 18 20 18 18 21 20
3 3 7 4 3 1 5 3 3 3 3 2 4 2 6 9 5 3 3 5 5 13 18 17 12 13 16 15 12 9 8 6 3 5 6 3 1 3 6 11 9 9 10 12 13 13 13 16 19 16 19 22 24 21
3 2 3 3 3 4 4 2 3 2 2 2 4 3 4 2 1 1 3 8 17 24 21 18 12 14 14 11 11 11 9 6 5 3 1 3 4 1 9 7 8 9 13 15 14 12 13 15 15 18 19 18 17 15
2 0 4 3 4 3 2 2 1 2 2 2 2 2 2 2 2 5 10 14 16 16 20 19 21 16 13 15 11 7 5 4 3 1 3 3 5 9 7 8 11 12 12 13 16 17 15 15 15 15 16 16 16 17
2 3 4 4 4 1 1 1 1 3 2 2 1 3 2 1 2 4 7 10 11 15 16 15 13 13 18 14 11 7 2 3 2 5 6 6 3 4 5 9 10 11 11 12 14 14 15 15 15 15 15 16 17 17
2 3 4 4 3 1 1 2 2 2 3 3 3 2 2 2 1 2 9 13 14 15 12 17 20 18 14 11 8 5 2 1 3 6 5 3 2 5 7 9 11 9 9 10 10 12 12 12 12 14 15 16 16 18
3 2 3 4 3 2 1 3 3 2 3 2 2 1 1 1 4 3 11 17 15 20 21 20 15 15 12 9 6 3 2 3 5 5 3 2 3 5 7 10 8 9 9 9 9 10 10 10 11 12 13 14 15 17

GFSWCAN_925_spd_072.txt.gz
Wind_Speed
30 31 33 32 30 29 29 23 21 16 17 21 4 26 26 22 21 4 10 12 2 3 3 4 5 4 3 3 4 3 3 3 3 3 2 2 2 2 2 2 3 4 4 2 2 1 5 4 1 4 2 2 3 3
31 31 31 30 29 27 26 20 17 15 19 16 14 20 26 21 16 5 4 10 14 6 3 3 12 14 5 2 4 3 3 2 3 4 1 2 1 1 3 2 1 2 4 3 6 4 2 1 1 1 2 3 3 3
29 31 30 28 27 27 20 17 11 13 14 12 15 23 23 27 16 3 2 4 7 4 3 4 4 9 16 8 2 4 1 3 2 1 3 2 2 2 3 4 2 2 3 2 1 2 3 2 1 2 2 3 3 4
27 29 29 28 27 24 17 11 10 11 10 5 18 19 19 18 15 12 3 4 5 3 3 2 8 5 14 8 4 2 5 5 6 3 3 2 2 1 2 1 2 3 3 3 3 4 3 6 5 5 4 4 4 3
25 26 26 25 25 19 11 11 13 10 9 16 18 20 21 20 13 12 8 3 4 4 3 1 3 10 14 14 15 13 9 4 3 3 3 1 1 2 1 1 3 4 5 4 4 4 3 3 7 6 6 4 4 1
24 24 24 22 21 13 13 15 21 21 15 14 17 16 22 20 14 9 3 0 4 5 4 2 2 5 10 11 17 14 8 4 3 3 2 1 1 2 2 3 3 3 3 4 3 3 1 1 5 4 3 2 1 3
22 23 21 19 14 9 13 20 5 22 18 20 20 18 17 18 13 5 3 1 6 4 3 3 2 4 5 5 4 3 6 3 3 2 2 2 1 2 2 4 4 5 4 2 4 6 2 3 3 5 1 1 3 4
19 19 17 13 6 7 10 10 20 27 28 25 23 21 19 16 9 3 3 9 4 9 3 3 1 2 3 2 2 3 2 2 4 2 1 1 0 1 3 5 3 4 4 3 5 0 1 4 5 3 0 2 3 6
18 16 12 7 3 5 4 20 27 29 30 26 22 22 16 5 3 2 7 6 7 5 3 2 4 3 2 1 1 2 2 3 1 1 0 1 1 4 5 5 6 6 6 6 4 4 4 2 3 1 3 4 4 6
16 14 10 6 7 6 9 22 27 27 26 27 19 4 2 3 12 8 1 3 4 3 3 2 0 2 2 0 1 2 2 1 1 1 1 2 3 4 3 3 5 7 5 7 5 1 2 2 4 3 5 5 5 6
16 14 11 11 12 10 25 25 26 26 25 5 2 2 4 12 3 3 1 2 1 2 1 2 2 4 2 3 2 0 2 0 2 3 2 2 3 3 2 3 4 6 6 6 3 3 3 3 3 4 7 8 11 12
16 13 13 16 18 15 28 29 30 15 7 5 14 10 5 3 3 4 2 2 2 4 2 4 4 3 2 2 3 0 3 2 2 1 1 3 4 2 4 4 4 6 7 5 3 3 3 5 6 8 9 10 13 15
18 15 17 23 23 23 31 35 29 15 18 7 4 4 3 2 4 5 6 4 3 5 5 4 3 3 2 2 3 3 4 1 1 1 3 4 3 2 5 4 4 3 4 4 3 3 5 7 7 8 11 13 15 17
18 20 22 28 28 29 27 38 23 19 1 2 4 2 5 2 5 5 4 3 2 3 8 4 3 3 2 3 2 5 2 2 2 1 5 3 5 4 6 3 5 5 5 3 4 5 7 8 11 11 11 13 14 18
20 23 27 31 31 30 27 39 28 11 1 2 3 5 6 2 1 1 2 2 1 7 5 4 3 3 2 4 1 4 3 2 5 5 3 3 3 5 6 5 5 5 4 4 5 5 8 10 11 15 17 16 18 22
21 22 28 33 35 36 27 35 19 5 1 3 2 2 2 0 2 1 1 2 2 3 2 2 3 4 2 4 3 5 7 6 4 3 3 2 2 4 4 5 5 5 5 7 8 9 11 11 12 15 20 24 24 20
29 13 26 39 36 41 37 15 7 3 3 2 3 2 3 1 3 3 4 4 6 3 3 3 4 4 3 3 1 3 5 3 3 3 2 3 3 4 4 5 4 4 6 9 9 11 13 15 17 20 14 22 24 21
15 25 26 28 42 49 18 6 4 2 5 3 3 2 2 1 1 2 2 3 4 3 3 4 5 3 5 5 3 3 3 1 2 1 1 2 3 5 6 3 2 4 7 10 11 13 14 18 16 14 18 21 22 20
28 27 40 57 44 15 4 3 2 4 3 2 2 1 2 1 1 2 3 3 2 2 5 2 5 3 3 3 3 3 2 3 3 3 2 3 5 4 2 1 3 5 7 8 11 13 15 16 15 17 18 20 16 19
33 36 51 49 38 6 4 1 2 3 4 3 2 2 2 1 0 2 2 2 2 2 1 2 3 3 4 4 3 3 3 4 4 3 1 1 2 2 2 1 1 4 7 9 15 12 13 16 15 17 17 16 15 16
35 40 46 37 7 8 3 3 1 2 3 2 2 3 2 2 2 1 0 1 2 2 2 3 2 1 3 6 7 8 8 8 4 3 3 2 4 3 1 2 3 4 5 10 9 13 11 12 16 17 17 19 20 19
18 44 13 9 4 3 3 2 2 3 2 2 3 2 3 2 2 1 1 2 3 3 3 3 2 3 3 4 3 6 12 12 11 11 9 9 3 1 2 2 4 6 9 8 8 8 12 13 15 18 19 19 19 19
34 16 6 4 4 3 2 2 2 1 4 4 2 3 0 1 2 1 1 2 3 2 2 2 3 4 6 8 9 11 11 13 8 8 6 5 3 1 1 2 4 5 9 10 9 9 14 16 18 16 18 19 19 18
23 5 4 4 3 4 4 3 1 3 3 3 3 3 2 3 1 2 3 3 2 2 2 4 7 4 4 4 2 4 8 7 10 8 6 5 2 1 3 3 3 4 3 6 9 14 15 16 15 18 19 21 21 20
6 5 5 4 2 5 4 5 3 1 3 3 4 1 3 2 2 2 4 3 2 3 3 3 1 2 4 2 1 5 9 10 9 3 3 4 1 0 3 2 4 2 4 11 12 13 15 17 19 19 20 19 18 17
5 3 4 5 4 6 7 6 7 6 5 4 3 2 2 3 3 5 4 5 4 5 7 9 8 3 1 3 4 4 11 11 9 6 6 4 1 1 1 2 3 2 6 9 12 13 16 18 19 20 18 18 20 22
5 5 3 0 4 5 4 3 2 3 5 6 5 5 3 4 5 4 1 2 3 7 18 21 19 9 9 12 15 16 16 11 5 6 6 5 4 3 3 1 2 4 7 8 10 11 13 16 18 18 17 19 20 20
3 4 8 4 4 1 5 4 4 4 4 3 5 5 9 9 5 2 2 4 8 17 22 19 13 14 23 22 21 18 13 10 10 11 9 6 4 1 3 5 4 4 6 8 9 9 9 12 13 16 18 19 22 21
2 3 4 4 4 4 3 3 4 2 2 4 4 3 4 1 1 1 3 11 24 24 20 18 18 24 23 20 16 11 15 15 11 3 1 2 3 4 4 2 2 4 6 5 7 7 9 9 11 13 15 17 18 18
2 1 4 3 4 3 0 1 1 1 2 2 2 3 2 1 2 3 12 20 14 13 19 24 31 28 21 21 17 13 11 9 5 3 4 3 4 3 2 0 2 4 5 7 10 11 11 13 14 16 18 20 20 21
2 2 5 4 3 1 1 1 0 2 2 2 2 2 2 2 2 3 8 14 16 23 24 20 17 20 22 21 18 12 4 10 6 2 1 2 2 3 2 2 4 5 6 7 10 11 12 13 15 17 18 19 19 18
2 2 4 5 3 0 1 2 2 2 2 3 3 3 2 2 2 2 11 16 21 17 16 24 21 19 19 17 13 9 7 9 7 2 1 2 4 4 2 3 4 5 6 7 8 9 11 12 13 14 15 17 17 17
3 2 3 4 3 3 1 3 2 2 3 2 1 1 0 1 4 3 14 17 20 24 24 21 18 23 20 17 14 11 8 6 2 1 1 3 3 1 2 4 4 4 5 7 8 9 10 11 12 13 14 15 16 16

GFSWCAN_925_spd_075.txt.gz
Wind_Speed
21 21 25 28 29 26 26 27 22 19 18 21 4 19 23 26 11 7 11 9 3 3 2 3 4 3 3 2 4 3 3 3 3 3 2 1 2 1 2 1 2 3 3 2 2 1 4 1 0 4 2 1 4 4
20 20 23 26 26 25 25 22 19 15 19 18 14 20 27 23 5 8 8 12 14 4 3 3 11 14 4 2 4 3 3 2 3 4 1 3 2 1 2 1 1 1 4 3 6 4 2 3 2 1 3 4 4 4
18 21 22 23 24 22 22 18 14 15 16 10 14 16 19 21 8 9 8 8 7 4 2 3 3 7 14 5 1 4 1 3 2 1 3 2 3 2 2 3 1 2 3 2 1 3 5 4 2 3 3 3 4 3
16 20 22 23 22 21 19 12 10 12 12 4 10 13 16 16 17 2 6 9 5 3 3 2 7 4 13 6 1 1 7 5 5 2 3 2 2 2 3 2 3 3 4 4 4 5 4 6 6 5 4 3 3 3
14 18 21 22 21 19 14 11 12 7 6 5 9 10 13 11 9 4 5 9 8 3 3 1 3 8 13 12 12 10 9 4 2 2 3 1 1 3 1 1 3 5 6 5 5 3 3 3 3 6 6 5 6 5
14 16 18 19 19 17 13 14 13 12 8 5 10 13 16 12 16 7 3 5 7 3 4 2 2 5 9 8 14 13 7 4 3 3 2 1 1 2 2 3 5 4 3 3 1 1 1 2 3 4 4 4 3 4
14 15 16 16 16 14 16 20 13 14 15 14 12 14 15 11 2 5 3 0 3 3 3 2 3 4 5 4 4 3 6 3 3 2 2 2 1 2 1 3 3 4 3 2 2 5 1 3 3 6 3 2 2 4
13 13 13 13 8 11 14 10 9 20 22 18 13 13 11 10 2 3 7 7 4 7 4 3 2 3 5 2 2 3 2 2 4 2 1 1 1 1 3 7 2 4 5 4 6 1 1 2 4 4 2 1 3 5
9 11 11 10 5 5 4 9 17 21 21 20 17 14 13 3 1 3 7 7 6 3 3 2 4 3 3 1 1 2 2 2 1 1 1 2 1 4 6 4 5 6 5 6 5 3 3 2 3 2 2 3 4 6
8 9 8 4 4 3 6 15 17 19 20 19 18 1 0 4 10 6 1 3 4 3 3 2 0 1 2 0 1 2 2 1 0 1 0 2 4 4 4 4 4 8 6 8 5 0 2 2 4 3 4 3 3 5
9 8 8 6 10 8 15 19 18 20 21 6 1 1 1 9 2 3 2 2 1 2 2 2 3 3 1 2 2 0 2 0 1 3 3 2 3 3 1 3 2 6 7 5 3 2 4 4 2 3 5 5 9 10
12 9 8 10 13 10 23 21 23 19 6 3 6 6 3 3 3 4 2 2 2 4 2 4 3 3 2 1 3 1 3 2 3 1 1 3 4 3 2 3 4 6 8 6 5 4 2 1 3 5 6 7 10 13
14 12 9 13 17 15 26 25 27 17 5 5 1 3 2 2 4 6 6 4 2 5 5 4 3 3 2 1 3 2 3 3 2 0 3 4 3 2 4 4 5 5 7 6 4 2 2 4 5 5 8 9 11 16
16 13 11 17 22 20 26 29 30 13 1 1 3 4 5 3 6 6 4 4 3 3 8 3 3 2 2 3 2 4 2 3 1 2 5 3 4 4 6 4 5 6 5 4 2 2 4 6 9 9 9 12 14 18
18 16 14 20 25 24 25 29 25 13 1 3 2 5 6 3 1 1 2 2 1 5 6 4 3 2 1 3 2 3 3 3 5 5 3 3 3 5 6 5 5 5 5 3 2 4 6 7 9 14 17 16 19 24
19 15 20 25 30 29 27 30 16 7 0 0 2 1 1 2 1 3 3 2 2 6 2 3 3 3 2 4 3 7 7 6 4 3 3 2 3 4 5 5 5 6 6 4 5 6 6 7 10 14 19 22 19 18
21 9 21 30 33 31 29 11 4 4 5 2 3 3 2 1 3 3 4 4 6 3 3 3 5 7 3 2 2 4 5 4 3 2 2 4 4 6 6 6 7 6 4 3 4 5 7 10 12 13 11 19 18 19
17 19 24 33 38 29 8 5 5 4 6 3 2 2 2 1 1 2 3 4 4 3 3 5 4 3 5 6 4 4 4 1 1 2 2 3 4 9 10 7 6 3 1 1 4 6 8 10 11 11 15 18 21 19
21 28 33 42 37 11 4 5 5 4 5 3 2 1 1 2 3 2 3 4 2 2 5 2 3 4 4 4 4 3 3 3 4 3 3 4 9 9 8 6 4 2 1 2 3 8 9 8 8 11 15 15 14 17
25 36 39 46 37 5 3 2 5 3 5 3 2 2 2 1 2 1 3 3 3 2 1 3 5 4 4 3 3 3 3 5 6 4 2 2 5 6 5 6 6 4 2 2 6 5 8 11 10 14 16 16 15 16
30 30 46 43 14 6 2 4 2 3 4 3 3 2 2 1 1 2 2 1 2 3 3 4 3 1 1 2 6 10 8 7 4 4 4 3 5 8 8 7 6 3 3 5 6 8 9 9 13 16 17 16 16 18
13 42 14 16 4 4 2 4 3 2 3 3 4 2 2 2 2 3 2 2 3 3 3 3 2 3 3 4 3 10 17 14 13 14 12 17 4 2 4 5 4 2 3 3 3 5 8 12 14 14 15 16 18 18
34 19 7 5 4 3 4 4 3 2 5 6 3 3 2 2 2 1 2 3 3 2 3 2 4 4 5 7 13 15 16 20 8 11 12 12 12 9 9 4 2 2 3 2 4 6 10 10 11 13 15 16 17 17
20 4 5 6 4 4 4 3 2 3 2 3 5 4 3 3 2 2 4 3 2 3 3 5 7 4 3 4 2 4 11 14 16 12 13 14 9 5 4 4 3 2 1 2 5 7 9 12 12 14 15 15 17 16
7 5 7 5 3 5 5 5 3 2 3 3 5 3 3 3 3 3 4 3 4 5 5 5 3 1 4 2 1 8 13 20 14 5 11 9 12 11 8 6 3 3 1 5 6 8 10 12 13 15 15 15 15 15
5 5 6 6 4 5 6 6 7 7 4 4 3 3 2 3 2 6 4 6 5 7 9 12 10 5 2 4 6 4 16 17 15 11 12 12 8 8 7 4 2 4 3 4 6 8 10 12 14 15 16 17 16 17
6 4 2 2 3 4 4 3 3 3 5 6 5 5 3 4 6 4 1 2 3 7 20 22 21 11 8 11 15 16 21 17 10 11 14 10 8 6 4 5 5 3 1 2 5 6 9 11 14 14 15 16 15 14
3 5 8 7 3 2 6 5 5 6 4 4 6 5 8 7 5 1 1 1 7 21 26 23 20 23 26 28 30 29 22 19 19 17 14 10 7 5 3 2 2 2 1 3 4 5 5 8 10 11 12 13 15 14
1 2 5 2 3 2 2 4 4 2 4 6 6 4 4 1 1 2 1 6 18 21 21 17 19 27 28 28 27 20 26 27 17 5 4 3 2 8 7 2 2 0 2 2 3 4 4 6 7 7 9 10 12 16
1 1 4 1 2 3 2 1 2 2 2 3 3 3 1 0 1 1 4 15 11 11 16 21 28 28 21 19 16 18 22 17 7 9 4 4 5 8 7 6 4 3 4 3 2 1 1 2 5 7 10 12 15 18
2 3 2 3 2 1 1 1 1 3 2 2 2 3 2 0 1 2 11 12 11 20 21 18 19 23 23 19 17 12 6 15 13 9 5 5 6 8 9 7 5 5 4 2 1 2 4 5 7 10 12 13 14 15
1 3 4 5 3 1 1 1 1 2 2 2 2 2 2 1 1 1 11 15 17 11 17 22 21 21 26 26 25 15 12 19 16 9 7 7 9 10 8 6 5 4 2 1 1 2 4 5 6 8 11 12 13 14
3 2 2 4 3 4 2 3 2 3 2 2 1 1 1 3 5 3 13 21 18 18 21 25 26 28 25 24 20 19 18 17 12 8 8 11 11 8 6 6 5 4 3 2 0 2 4 5 6 8 10 12 13 14

GFSWCAN_925_spd_078.txt.gz
Wind_Speed
22 17 18 19 21 24 21 21 18 17 21 13 12 16 17 10 2 11 10 6 4 4 5 4 3 2 1 1 3 2 2 1 1 2 1 2 1 2 1 0 1 1 0 1 1 2 1 5 3 3 2 2 5 6
19 16 15 18 19 20 19 18 14 14 17 7 13 18 16 10 13 6 5 12 14 6 4 3 5 8 3 3 0 1 2 1 1 2 1 2 2 1 1 1 1 2 2 1 4 0 1 4 2 0 2 2 4 6
16 14 14 16 18 17 17 14 10 12 12 9 12 16 12 6 11 16 10 7 7 4 3 1 3 4 8 3 2 1 2 2 2 2 2 2 1 2 2 3 2 4 3 3 3 3 7 6 5 4 4 4 3 2
13 11 15 16 18 17 13 11 9 10 10 9 11 10 13 12 5 10 8 8 5 3 3 2 5 3 11 5 1 2 1 4 4 1 1 1 1 2 1 1 3 1 6 4 5 6 4 9 8 5 6 3 3 2
11 9 14 13 15 14 11 8 8 3 8 9 8 8 9 7 5 5 7 11 7 1 3 2 2 5 9 9 8 6 4 2 1 1 1 1 2 2 0 2 4 6 5 5 3 2 1 2 1 8 7 5 3 3
10 8 11 13 13 12 11 8 8 6 2 10 7 8 7 6 4 3 1 6 8 4 3 3 3 4 7 6 10 11 6 3 2 1 2 1 0 2 2 3 3 7 4 0 0 1 0 2 3 3 4 3 3 3
10 7 12 13 11 10 10 12 10 11 13 14 11 12 10 7 0 1 0 2 4 2 2 3 0 2 4 3 2 2 4 2 2 2 1 1 2 1 2 4 2 3 4 4 2 3 1 2 2 4 3 3 1 0
10 7 8 9 10 8 9 5 8 19 20 16 13 15 10 3 3 3 3 2 3 5 3 3 0 1 4 1 1 3 1 1 3 2 1 1 1 1 4 7 2 3 4 3 5 1 2 2 3 4 3 1 2 2
9 8 7 5 5 2 3 7 21 23 19 15 15 12 5 1 1 1 3 2 4 1 2 2 4 2 2 1 0 1 2 1 1 1 1 1 2 5 4 3 5 7 5 6 6 3 3 2 3 3 2 1 3 4
11 8 7 5 4 2 6 12 18 22 23 19 9 3 0 1 5 3 1 2 2 2 2 2 1 3 1 0 1 1 2 1 1 1 1 3 4 6 5 4 2 8 6 10 5 2 3 2 3 2 1 1 3 5
13 11 8 7 9 9 11 16 21 25 18 2 2 1 1 4 1 2 1 1 0 2 3 2 2 4 2 2 2 1 1 0 2 2 2 2 4 3 1 5 3 8 8 7 3 3 3 3 3 1 2 3 5 7
16 14 12 10 13 13 18 20 21 7 10 7 6 4 2 2 2 2 2 1 4 3 3 4 3 2 3 1 2 2 2 1 3 3 1 3 4 3 3 4 4 8 8 7 5 5 5 3 1 2 4 5 6 8
19 18 15 12 16 17 19 19 20 11 11 8 5 3 1 1 1 6 7 3 2 5 5 4 4 3 3 1 3 2 4 3 3 2 4 5 1 3 5 6 6 5 7 7 6 5 3 1 2 3 5 4 7 10
22 22 20 16 19 20 25 25 26 15 2 2 3 4 5 4 6 5 3 2 2 4 7 4 4 2 2 3 3 3 1 2 2 3 6 2 6 7 7 6 8 8 7 5 5 3 1 3 4 5 5 6 8 12
23 23 20 17 22 23 28 30 26 11 3 2 5 5 5 3 2 3 1 0 1 6 6 4 3 1 2 3 3 3 3 5 6 4 2 3 6 8 9 8 7 8 7 5 5 3 2 4 5 8 7 9 11 12
23 19 23 21 25 25 27 32 15 6 3 2 2 3 4 1 1 2 2 2 2 6 3 3 3 2 4 4 5 8 6 6 3 3 2 5 7 7 8 7 6 7 7 6 4 2 2 2 4 7 12 10 10 11
26 10 24 25 28 27 30 12 5 4 5 5 4 3 0 2 3 2 2 2 5 5 3 3 6 6 3 2 4 5 5 3 3 3 3 4 6 7 7 7 8 8 7 5 3 1 1 3 5 6 7 9 12 12
19 25 22 29 34 32 6 3 5 5 8 3 3 4 3 3 4 2 3 3 5 2 3 4 5 4 5 5 4 4 4 1 1 4 4 4 5 9 10 8 10 9 6 5 3 1 2 4 5 5 7 10 12 11
26 30 26 37 36 11 4 5 4 4 5 2 1 2 2 1 2 3 4 7 1 2 2 2 3 4 4 4 4 3 4 3 4 3 3 5 9 10 12 11 10 8 7 5 2 0 1 3 4 5 7 10 11 13
26 28 29 43 39 6 4 3 5 3 4 3 2 3 2 1 3 2 4 5 3 2 3 4 5 3 4 3 4 3 5 6 7 5 3 3 6 11 11 11 9 9 7 3 1 0 1 2 2 5 8 10 11 13
25 24 27 39 18 8 4 4 3 3 3 4 3 5 2 1 3 3 3 3 2 3 4 4 4 2 1 1 4 9 6 8 6 4 6 5 7 10 10 9 10 6 3 3 2 1 1 2 5 8 9 11 10 12
16 31 15 18 4 4 3 6 2 3 2 2 5 4 3 3 3 4 4 2 4 6 4 3 2 3 3 3 3 9 16 14 10 11 13 19 5 4 6 10 8 4 3 3 2 1 1 4 6 6 8 10 11 11
29 21 7 5 3 5 4 11 4 4 4 6 2 3 2 3 2 2 3 4 4 3 3 2 3 1 4 6 13 16 16 17 6 9 13 11 14 14 14 10 8 7 5 4 2 1 2 3 5 6 7 8 10 12
18 8 7 7 5 5 5 4 3 4 2 3 4 4 3 4 4 2 4 3 3 3 5 6 6 5 3 4 3 3 12 16 14 14 18 17 8 7 10 8 8 6 5 6 3 1 1 3 4 6 7 8 9 10
6 6 6 6 4 5 6 5 5 4 5 5 6 3 4 4 4 5 4 3 4 5 6 6 7 6 6 4 3 8 16 20 13 7 16 18 15 11 7 6 6 6 6 4 3 1 1 3 4 6 7 7 10 11
7 6 8 6 6 6 7 6 8 7 5 5 5 3 3 4 4 6 4 6 5 8 10 13 12 7 5 4 9 6 16 23 21 9 16 20 20 14 8 5 3 6 9 5 4 2 0 2 4 7 7 9 10 11
8 6 4 1 5 6 3 1 3 4 6 6 5 6 4 6 7 5 2 2 4 6 24 27 25 12 11 10 16 18 25 24 18 15 17 19 13 11 12 9 7 6 10 7 5 3 1 2 4 6 8 9 9 9
3 7 8 7 3 2 6 5 6 9 6 4 6 7 11 10 6 3 2 1 4 10 20 21 21 21 22 23 29 31 25 20 20 21 19 13 11 10 8 8 8 10 9 7 5 3 1 2 4 6 7 8 9 9
4 4 6 4 1 4 6 6 7 5 6 7 7 5 5 3 2 2 3 5 13 17 15 13 15 25 27 29 31 31 34 33 19 7 8 4 3 12 12 10 10 10 8 7 5 2 0 3 4 5 5 6 6 7
5 3 3 4 8 8 3 2 2 2 0 1 2 2 1 1 3 7 8 11 10 7 14 18 21 24 20 23 17 20 28 26 17 13 6 5 7 12 19 14 13 11 8 7 5 3 3 4 4 4 3 4 5 7
4 3 3 2 3 2 3 1 1 1 1 1 2 1 2 3 2 3 10 14 14 16 17 15 16 21 25 22 20 12 9 21 14 12 10 11 15 18 17 15 12 10 8 7 5 4 3 3 3 3 4 5 6 7
3 4 4 3 1 1 1 1 2 1 1 1 1 2 1 1 2 3 12 19 15 11 16 18 18 19 21 23 28 23 24 28 23 18 15 16 17 17 16 14 12 10 9 7 5 4 4 4 4 5 6 7 8 8
3 3 2 3 3 1 3 2 2 1 1 1 1 2 2 1 3 1 12 23 15 16 18 19 21 29 29 27 26 18 25 26 22 18 16 16 16 17 15 13 12 10 8 6 5 4 4 4 5 5 6 7 8 9

GFSWCAN_925_spd_081.txt.gz
Wind_Speed
18 20 17 13 14 17 18 18 15 16 12 9 8 8 8 10 9 7 6 8 3 4 4 3 3 3 1 2 3 3 2 2 1 1 1 1 1 1 2 0 2 2 2 1 1 2 2 8 4 3 3 2 1 1
17 19 14 10 10 18 16 16 12 12 6 8 10 10 12 21 17 6 5 9 12 6 4 4 5 5 3 3 3 1 3 1 2 0 1 1 2 1 2 1 2 2 3 3 3 3 2 7 2 3 3 2 1 2
16 18 13 9 10 14 15 12 10 10 3 7 9 7 3 10 19 14 5 5 5 4 3 3 1 2 3 4 2 3 1 3 1 3 2 1 2 1 2 2 2 3 3 3 4 4 6 5 4 3 1 1 1 1
15 15 11 9 9 10 9 9 8 6 4 7 6 9 11 10 12 15 6 6 2 2 2 2 1 1 5 4 3 4 5 2 2 2 1 1 2 0 1 3 3 3 5 4 6 9 3 6 5 2 4 2 2 2
15 14 11 7 9 10 6 7 6 2 5 5 6 4 4 5 6 7 10 11 6 3 2 3 2 1 4 5 3 1 2 2 2 1 1 1 1 2 1 2 6 7 6 5 2 5 2 4 2 2 5 5 3 3
16 14 11 7 7 11 8 4 5 4 2 6 6 5 4 3 3 4 1 7 9 4 1 3 2 1 3 3 3 5 4 2 2 2 1 1 2 2 2 3 3 7 3 2 1 3 3 3 2 1 4 3 2 1
15 13 11 6 8 12 10 7 10 9 10 9 6 6 4 1 1 2 2 3 7 3 1 2 2 1 2 2 1 1 2 2 2 0 1 1 2 2 3 4 3 3 5 5 3 4 2 2 1 4 3 3 3 1
16 12 11 7 5 9 10 10 10 15 18 14 11 9 5 5 3 2 5 4 4 2 2 2 1 2 0 2 2 1 0 1 1 0 1 2 1 2 5 9 4 3 5 5 5 2 3 4 4 4 3 2 2 2
16 13 11 7 4 5 5 5 12 22 20 14 14 11 3 3 2 2 3 5 3 0 1 2 3 2 1 1 0 2 1 2 1 2 2 2 3 6 5 5 7 9 7 6 8 5 4 3 4 5 3 3 3 3
17 14 12 10 7 5 3 12 19 20 18 19 9 2 2 0 3 5 4 2 1 1 0 3 1 2 2 2 2 2 0 1 2 2 1 4 5 12 6 5 4 7 7 10 9 4 4 3 5 5 4 1 2 4
19 15 14 12 11 11 11 14 20 21 18 1 1 2 1 3 2 1 2 2 1 3 3 2 1 3 1 2 2 1 1 0 2 2 2 3 4 4 6 8 7 8 9 9 3 5 5 5 5 4 2 2 4 6
22 17 17 16 15 16 17 18 22 15 4 4 6 6 4 2 1 2 3 1 3 2 2 3 3 2 2 1 1 1 2 1 3 2 2 4 4 6 7 8 8 9 9 8 6 7 7 6 4 2 2 3 5 5
25 21 20 19 18 19 22 22 25 10 12 3 3 3 1 2 4 6 5 3 3 4 4 3 3 2 3 2 2 2 3 4 1 3 4 5 3 6 7 8 7 6 8 8 7 7 6 5 2 1 3 4 5 8
27 24 24 22 20 23 22 26 23 14 3 2 3 4 4 4 5 3 1 2 2 1 6 5 3 2 1 3 3 4 1 2 3 4 6 3 7 9 8 7 9 9 8 5 4 6 5 3 1 2 3 4 6 9
29 26 26 24 22 26 22 28 25 12 2 2 3 5 6 2 1 2 2 2 1 3 5 4 2 2 2 2 2 3 3 5 5 5 2 2 8 9 9 8 8 8 7 7 7 6 4 2 1 3 3 5 7 9
31 23 24 26 24 26 26 30 16 6 1 1 4 3 2 2 2 3 4 3 4 5 1 2 2 2 4 3 4 8 4 6 4 3 1 6 8 7 8 7 6 8 9 8 8 6 4 2 2 4 7 6 6 8
33 11 28 31 28 27 33 13 5 3 5 4 4 3 2 2 2 2 3 4 11 6 2 2 4 5 3 2 4 5 6 3 0 2 2 3 7 7 7 6 8 9 9 9 7 5 4 2 2 5 5 6 9 11
16 24 28 34 33 33 6 5 5 5 8 3 4 4 3 3 4 3 4 5 5 6 5 3 1 4 5 4 4 4 4 1 2 2 3 3 6 8 9 7 10 10 9 9 8 6 3 1 2 3 6 7 10 11
28 30 32 40 35 12 5 6 5 4 5 3 2 1 2 1 2 1 5 8 2 1 5 5 4 4 5 4 3 2 2 3 4 3 3 3 7 9 10 12 12 10 11 10 6 3 2 1 1 3 6 7 9 11
29 31 34 44 37 5 4 3 6 4 4 3 3 4 3 2 3 4 6 7 5 3 4 5 7 4 3 1 2 2 3 5 6 6 3 3 6 10 10 11 8 11 9 6 4 4 3 1 2 4 6 7 9 10
27 27 38 43 15 8 3 4 4 3 3 4 4 5 2 2 3 5 5 5 5 4 4 5 5 6 3 3 5 5 5 9 7 5 5 6 8 9 9 9 12 9 6 5 4 4 2 2 2 5 5 6 7 9
17 39 12 16 3 6 4 8 2 4 3 2 4 4 3 4 5 5 4 6 4 4 5 3 4 3 2 3 3 8 9 10 8 10 12 19 6 5 6 10 10 6 6 5 5 3 3 1 3 5 5 7 8 9
33 16 7 4 3 6 3 14 6 7 5 6 5 5 3 4 3 4 4 5 5 7 7 5 4 6 3 4 4 7 13 13 5 7 12 12 12 13 13 14 12 9 6 5 5 5 3 3 2 3 4 6 7 9
20 8 6 6 8 6 5 5 3 5 4 6 6 4 4 4 4 3 5 5 5 2 5 8 5 4 3 2 4 6 13 13 9 11 14 15 7 8 12 12 10 8 7 9 8 5 4 3 1 2 3 5 6 8
7 7 5 7 4 6 7 9 6 6 5 5 6 4 4 4 4 5 4 4 8 6 8 7 8 8 7 7 6 9 19 18 11 8 13 16 16 13 8 7 7 8 10 10 8 6 5 3 2 1 2 3 6 9
7 7 11 14 8 7 8 7 9 6 5 5 6 3 4 4 5 7 5 11 8 7 9 11 12 10 9 8 9 8 19 25 20 9 14 22 21 16 8 6 4 8 14 12 11 9 8 6 4 2 2 4 5 6
7 6 4 2 5 6 5 3 4 4 7 7 6 7 5 6 6 4 5 4 4 9 24 27 23 13 13 11 16 21 26 28 15 12 20 25 20 14 15 12 8 8 15 15 12 11 9 8 5 3 2 3 4 5
4 7 8 8 4 4 5 5 7 10 7 5 10 7 9 10 9 4 4 3 11 5 11 19 22 21 18 23 28 31 29 24 19 18 21 17 13 12 12 10 8 11 14 13 12 11 9 7 5 4 2 3 5 5
4 6 7 6 3 4 6 7 9 6 6 7 9 9 7 4 1 3 4 6 8 11 8 8 8 21 22 22 25 28 39 36 19 11 12 6 4 13 15 15 15 14 14 14 10 8 7 6 5 3 2 4 5 6
6 5 3 7 7 9 6 5 3 1 1 1 2 2 1 2 2 5 5 7 8 7 13 14 14 18 14 16 15 17 22 24 21 18 11 10 11 19 26 22 18 16 15 14 13 10 8 7 4 2 2 3 4 6
7 3 3 3 4 1 2 2 0 0 1 1 1 2 2 1 2 7 10 9 8 8 12 11 15 15 20 18 16 12 10 25 21 19 14 14 20 21 26 22 20 19 17 15 13 11 10 7 4 2 3 5 6 7
4 5 5 5 3 2 2 2 3 2 1 2 2 1 1 1 4 4 9 17 13 6 15 17 15 16 21 21 21 18 20 32 25 21 19 21 21 23 23 22 21 19 17 15 13 11 9 6 3 2 4 6 7 8
3 3 3 4 4 5 3 3 3 2 1 2 2 2 2 2 5 0 6 17 13 12 13 14 16 21 23 25 28 25 30 34 26 22 19 18 20 23 23 22 21 19 17 14 12 10 7 4 2 3 5 6 7 7

GFSWCAN_925_spd_084.txt.gz
Wind_Speed
17 20 17 17 13 14 15 15 13 13 9 7 4 13 23 20 11 8 7 11 6 3 2 4 4 3 3 2 0 1 2 2 2 2 2 1 2 1 2 1 3 2 2 1 2 1 4 4 2 0 2 1 3 1
14 20 17 16 11 11 12 12 12 10 6 4 4 6 15 24 22 6 6 9 12 6 3 3 3 3 2 2 2 1 1 2 3 2 1 1 2 1 1 2 0 2 2 1 1 2 0 4 3 2 2 2 1 2
11 19 17 15 11 10 10 9 7 8 1 3 3 4 10 18 22 13 6 10 3 3 2 2 1 1 3 3 2 1 2 4 2 1 2 1 2 2 2 3 2 4 3 2 4 1 4 5 3 4 2 1 3 4
12 17 16 15 9 9 10 4 6 4 2 6 3 7 12 13 15 16 8 9 3 3 2 0 1 0 4 4 3 3 3 4 3 1 1 1 1 1 2 2 2 3 5 4 4 6 4 3 2 5 5 4 3 5
14 14 18 15 9 7 9 6 4 3 2 4 4 3 6 8 9 11 10 13 8 2 1 1 1 1 3 3 2 4 7 3 1 2 1 2 1 1 2 2 4 6 6 4 5 1 3 4 3 2 5 5 3 4
14 14 18 14 10 9 8 8 5 5 5 3 4 4 4 4 7 6 2 7 13 5 1 0 1 2 1 2 3 3 3 1 1 0 1 1 1 1 2 3 5 6 3 3 5 4 4 6 4 2 3 5 5 4
15 15 18 14 11 9 9 10 9 9 9 6 3 3 2 0 3 3 1 7 12 5 1 2 2 1 1 2 1 1 1 0 0 0 2 1 2 2 3 4 4 6 7 6 6 6 2 4 3 5 7 8 6 5
17 15 17 14 11 9 9 11 11 12 12 11 8 5 3 3 6 1 4 5 6 3 2 1 3 1 1 2 2 0 1 1 1 1 0 2 1 2 5 8 5 6 7 7 7 4 4 7 7 6 7 5 4 3
19 17 17 14 10 8 6 8 9 16 17 13 8 5 2 2 2 2 4 6 4 1 1 2 3 3 2 0 0 1 1 1 1 2 2 2 3 6 8 8 9 7 7 7 8 6 6 6 7 6 5 4 2 2
21 19 17 15 10 7 2 5 11 20 19 13 7 2 1 3 3 0 1 2 1 1 0 2 1 0 2 0 2 1 1 2 2 3 2 3 5 10 7 5 6 9 7 11 7 4 4 4 6 6 5 3 3 1
23 20 19 15 12 9 8 14 20 20 17 5 4 1 3 2 2 2 1 1 1 2 2 0 1 3 1 2 2 0 2 1 1 3 1 3 4 4 7 9 7 8 9 7 4 4 7 6 7 6 5 4 2 1
26 23 21 17 15 15 15 17 22 14 7 5 4 3 1 2 1 2 2 1 3 3 1 0 1 1 1 1 1 1 1 2 5 1 0 4 4 2 4 6 7 8 9 8 9 7 9 9 9 7 4 2 1 2
30 27 24 21 19 20 19 18 23 9 11 5 2 2 3 2 2 7 6 3 2 3 4 3 1 1 1 0 2 1 1 4 2 1 4 5 2 3 4 5 6 7 12 9 8 12 11 9 6 4 2 1 2 5
34 30 28 25 23 24 24 23 23 12 3 2 3 3 5 3 5 4 3 4 3 2 3 3 3 3 1 1 2 3 2 2 3 3 6 3 6 7 6 5 5 7 9 7 6 10 9 7 4 2 1 2 4 6
37 34 29 27 27 26 23 26 25 10 3 2 3 5 6 3 1 1 2 1 2 3 4 3 2 2 1 1 2 2 2 4 6 5 3 3 4 7 7 6 7 7 7 7 8 8 8 6 3 1 2 3 6 7
39 30 28 31 29 29 26 29 18 7 1 1 4 2 1 2 1 1 2 2 2 3 2 2 3 3 4 3 2 7 5 7 4 3 3 1 4 5 6 6 6 8 9 10 11 10 8 6 4 2 4 5 4 7
42 12 32 34 30 29 29 12 5 4 4 4 4 3 2 0 3 3 4 4 9 3 3 3 6 8 1 2 4 5 5 4 1 3 2 2 5 6 6 6 7 10 10 12 11 10 9 6 2 1 2 4 8 11
22 28 38 39 35 35 11 8 5 5 7 5 3 3 3 2 2 1 2 5 4 3 3 5 3 3 5 5 4 4 4 2 2 2 2 2 4 6 9 7 11 13 12 12 12 11 9 5 2 3 2 5 10 10
34 42 47 47 39 14 4 6 5 4 5 3 2 1 2 1 2 2 4 6 1 1 4 1 3 4 5 4 5 3 3 3 3 3 2 3 6 9 11 14 15 14 15 13 12 9 7 5 3 2 3 5 8 10
39 48 53 50 40 7 5 3 8 4 5 4 2 3 3 2 3 3 4 4 3 2 2 4 6 4 5 4 4 3 3 4 3 2 3 3 7 12 13 14 12 16 15 11 10 8 7 4 2 3 3 5 8 10
38 41 51 45 12 5 4 4 5 3 4 4 4 5 3 2 2 2 3 4 2 3 4 6 6 8 6 4 8 7 4 6 7 7 4 4 7 13 13 14 17 16 10 10 7 7 7 5 4 4 3 5 7 10
14 44 22 14 3 6 2 8 3 3 2 2 3 2 3 3 3 4 4 5 4 4 5 6 10 10 9 7 7 16 14 18 15 8 9 13 6 5 6 13 13 8 11 13 13 11 8 6 4 3 3 5 7 8
34 16 6 5 4 6 3 15 4 6 5 4 5 3 2 3 2 6 4 5 6 6 10 11 18 15 8 11 7 9 17 17 7 7 11 11 12 16 16 17 18 13 7 10 12 12 10 7 5 3 1 4 6 7
20 6 5 8 7 6 5 4 2 5 4 4 5 3 4 4 3 2 5 4 5 3 8 17 8 3 1 0 5 7 15 18 12 15 19 15 6 9 16 17 20 17 15 15 15 13 10 8 6 4 1 3 4 5
6 6 6 6 4 6 6 6 5 4 4 4 5 4 3 3 4 4 4 3 5 10 12 11 9 11 12 11 10 9 20 22 9 9 17 20 15 14 13 16 16 16 16 18 16 14 12 10 8 6 4 4 5 5
6 5 11 12 6 7 8 7 9 6 4 4 6 2 2 4 4 8 4 5 11 10 11 11 11 9 10 12 10 6 14 24 19 7 15 29 25 19 11 8 6 11 19 17 17 17 15 13 11 8 6 6 4 3
9 7 5 2 5 5 4 3 4 4 6 6 4 6 4 5 8 5 4 5 7 7 20 22 17 10 12 9 21 18 20 29 24 18 17 27 25 26 27 18 9 14 19 22 19 18 18 16 13 10 8 7 4 2
3 5 8 7 3 3 5 5 6 8 5 5 8 7 9 10 7 4 5 3 12 10 5 12 22 22 19 16 18 22 23 25 20 21 23 21 17 17 17 15 13 13 16 19 19 17 16 14 13 11 9 7 5 3
4 6 6 5 3 4 5 6 7 5 5 7 9 6 6 5 3 3 3 4 5 5 5 3 4 12 12 16 21 25 31 32 13 11 15 8 4 11 18 19 20 19 20 20 17 16 14 13 11 9 7 5 4 3
6 7 4 6 7 7 5 6 4 2 2 4 2 3 3 3 3 6 7 6 5 3 9 15 17 16 8 11 9 12 23 26 25 16 12 12 13 26 28 25 24 23 22 21 20 17 13 12 10 8 6 5 3 2
7 3 3 3 5 1 2 2 2 2 1 1 0 2 5 3 4 5 11 11 11 11 13 6 10 15 13 11 9 10 9 24 20 19 18 20 25 32 33 30 27 25 24 23 21 20 18 13 12 9 6 4 2 2
3 4 5 4 2 1 2 2 3 3 2 1 2 1 3 3 3 3 9 17 14 6 15 14 10 11 21 18 19 21 9 29 24 22 23 24 28 30 32 30 27 26 25 22 19 18 16 13 11 8 6 4 1 4
3 3 3 4 3 4 4 4 2 1 1 1 3 4 4 4 7 3 7 19 18 17 16 17 17 14 19 21 21 19 21 33 31 25 22 24 26 30 31 29 27 26 24 22 19 17 16 13 10 7 5 2 1 4

GFSWCAN_925_spd_087.txt.gz
Wind_Speed
14 12 13 14 16 12 11 14 14 12 6 8 8 13 21 26 11 6 5 11 3 3 3 3 4 3 4 2 2 3 3 4 3 3 2 2 1 2 2 3 2 3 2 2 1 0 4 5 2 5 4 2 4 3
13 13 12 13 13 10 7 8 10 12 5 1 4 8 15 24 21 5 4 7 7 6 3 1 3 2 2 3 1 3 2 1 2 1 1 1 1 1 2 3 0 2 5 3 6 5 4 5 4 2 3 4 3 4
15 12 12 13 13 9 7 7 6 11 10 6 4 4 12 17 19 13 4 9 2 3 2 2 1 1 1 0 1 1 2 2 2 2 2 2 2 2 2 4 2 3 3 2 3 1 5 6 3 5 4 4 4 4
17 12 11 12 13 10 6 8 4 5 8 5 4 4 4 10 14 16 10 14 2 2 2 3 1 2 1 2 3 4 3 4 2 1 1 0 1 2 3 4 3 5 4 4 4 6 1 2 5 6 5 6 7 5
19 15 12 12 13 11 7 7 6 5 6 4 4 4 2 4 7 9 12 17 11 2 2 3 3 2 0 1 4 4 3 2 1 2 1 2 2 1 2 2 4 5 7 5 5 5 4 2 5 4 7 5 6 6
20 16 14 13 12 12 9 7 7 7 6 6 5 4 2 1 2 2 3 4 12 4 3 3 3 1 0 2 1 1 1 1 1 2 2 2 1 1 1 3 6 6 4 6 4 3 2 5 5 1 5 6 5 6
20 17 16 15 11 12 10 9 9 9 9 8 5 2 1 2 2 3 4 4 8 3 3 3 4 3 3 3 2 1 1 1 2 1 1 1 1 3 2 5 5 5 7 5 5 6 3 3 4 4 7 7 9 7
23 19 17 17 12 11 11 10 10 11 12 11 6 3 1 4 5 2 2 3 5 3 4 1 3 3 3 1 2 2 2 2 1 2 1 2 1 1 5 7 5 3 7 5 7 4 4 6 7 6 6 6 4 3
25 21 19 18 14 10 11 10 10 13 14 13 8 4 4 3 2 4 2 2 2 2 2 1 3 3 3 2 1 2 2 1 2 2 2 2 3 6 9 7 7 8 8 7 6 6 6 6 7 6 5 5 4 3
28 24 20 19 15 11 8 7 6 11 15 12 7 1 3 3 2 2 2 2 3 2 2 3 1 2 3 1 1 1 1 1 1 3 1 3 5 11 11 8 6 8 7 11 7 4 4 4 6 6 6 4 4 3
31 27 23 20 16 13 9 7 14 24 18 3 2 2 2 1 1 4 1 3 0 2 2 2 3 2 1 2 3 2 2 1 1 4 2 3 4 4 6 8 8 9 10 8 3 4 7 7 7 6 5 5 4 3
35 30 26 23 19 17 16 18 23 17 11 7 4 1 1 3 3 4 2 2 3 5 2 2 3 3 1 2 2 2 1 3 4 1 1 4 4 4 4 1 4 8 9 8 6 7 8 9 11 9 7 6 4 2
37 34 29 26 23 23 22 23 27 11 13 6 3 3 2 2 2 7 7 4 2 4 3 2 1 1 1 1 2 2 2 4 1 1 4 5 4 3 2 3 4 4 9 9 6 10 13 12 12 9 7 5 4 2
39 38 33 30 27 29 27 26 27 16 5 3 4 2 5 3 5 5 4 4 4 4 5 4 2 2 1 2 2 3 3 2 2 2 6 3 4 5 5 4 6 7 8 8 7 10 11 11 10 8 6 4 2 1
41 41 36 35 31 31 30 29 26 12 5 3 4 5 6 4 1 3 1 2 1 4 5 3 3 2 0 2 2 2 3 4 6 5 3 3 5 4 5 5 7 7 7 7 9 8 10 11 10 8 6 4 1 2
43 40 34 39 34 32 31 32 20 6 3 4 3 1 3 2 2 2 1 1 2 4 2 3 3 3 4 4 3 7 5 7 4 4 4 3 3 4 5 5 5 7 9 9 13 13 13 12 10 8 5 2 2 2
44 19 35 42 38 35 36 16 6 4 5 5 5 3 3 3 4 4 4 4 7 3 3 3 6 9 2 2 4 5 6 4 4 4 3 4 5 6 5 5 6 9 9 12 14 14 13 11 9 7 4 4 1 3
31 31 36 46 41 38 11 7 6 5 8 4 4 4 3 3 3 3 4 4 4 3 3 5 4 3 6 6 4 4 5 3 3 4 3 4 3 4 8 7 10 12 12 15 16 15 14 12 9 6 6 3 1 3
36 35 49 54 42 15 5 6 6 4 7 3 2 2 3 2 2 2 4 8 3 3 4 2 3 4 5 4 5 4 3 3 3 3 4 5 9 9 12 13 14 13 16 17 16 13 13 9 7 8 6 2 1 4
38 44 60 58 42 7 5 3 6 3 4 4 2 5 3 3 3 3 3 5 4 3 1 4 6 5 4 4 5 4 3 4 3 2 4 4 10 13 14 15 13 18 17 14 13 12 11 7 6 6 4 2 0 2
32 44 62 50 9 6 3 4 4 3 3 3 3 5 3 2 3 3 4 4 2 4 4 7 6 10 7 4 7 6 4 5 6 5 4 3 6 11 11 17 20 19 12 11 9 10 11 10 9 8 5 2 0 3
14 51 24 16 3 6 3 7 4 3 2 2 5 2 3 4 3 4 4 6 4 6 5 8 12 12 10 10 8 18 20 15 18 11 8 7 3 4 5 13 16 8 13 14 15 13 14 12 11 9 6 3 1 3
36 19 7 6 4 5 5 14 4 5 4 5 3 4 2 2 3 4 4 5 4 5 10 14 22 23 10 17 11 18 24 19 7 6 11 13 12 15 16 17 19 15 7 15 20 18 17 13 12 10 7 5 2 1
21 7 5 8 5 6 5 5 4 4 4 4 6 4 3 3 2 2 5 3 4 5 9 18 14 12 1 1 7 12 18 20 14 13 17 13 4 9 18 18 20 22 23 23 22 19 17 16 12 11 8 7 5 2
6 6 6 6 5 5 5 5 5 4 4 4 5 2 4 3 3 4 4 3 4 7 9 9 8 9 10 10 8 10 20 21 9 9 15 23 13 12 12 17 21 27 25 24 19 20 18 16 15 12 11 9 7 4
6 7 12 11 5 7 8 7 9 6 5 4 6 3 3 4 3 8 4 4 7 8 8 9 10 8 7 10 11 9 12 24 19 6 15 26 25 15 10 9 7 13 26 26 26 22 20 20 18 15 13 10 7 5
7 6 5 2 5 5 4 3 4 4 6 7 6 5 4 5 7 5 3 3 4 5 19 19 15 9 11 7 18 22 18 16 20 17 13 24 28 28 29 20 12 20 31 29 25 24 24 23 20 17 14 11 9 6
3 6 9 8 3 2 6 4 6 8 6 5 8 7 10 10 7 4 6 4 16 11 8 14 23 23 20 21 18 13 14 19 15 12 13 15 17 21 23 23 19 19 26 29 25 21 20 21 20 18 16 13 9 6
4 6 7 5 4 4 5 6 7 4 6 8 9 6 5 4 3 4 5 7 9 9 4 2 6 10 14 15 15 22 20 28 10 8 10 5 3 9 21 22 24 25 25 25 22 19 18 18 18 16 13 10 7 5
5 6 4 6 7 8 5 6 4 4 3 4 2 2 2 3 4 6 7 9 6 4 11 13 14 18 7 7 4 11 22 26 22 8 8 9 11 24 31 30 29 28 27 27 25 21 17 17 15 14 13 10 7 5
8 3 3 3 4 2 2 1 2 2 2 1 1 3 3 3 4 7 15 16 16 13 9 5 10 19 13 8 6 6 7 23 26 23 12 13 22 33 35 32 31 30 30 28 28 25 24 21 17 14 12 9 7 5
3 4 5 4 2 2 2 2 2 2 1 2 2 1 3 3 3 4 11 18 12 5 15 15 7 8 24 23 22 20 9 14 17 28 19 23 28 35 39 35 33 31 30 28 28 26 22 21 17 14 11 9 7 6
3 3 3 4 3 3 3 4 2 1 1 2 4 5 5 4 7 4 8 23 22 21 19 22 21 17 15 22 24 22 20 13 14 26 25 25 29 37 39 37 35 33 31 30 28 25 22 18 16 13 10 8 7 6